<?xml version="1.0" encoding="UTF-8" standalone="no" ?>
<gpx xmlns="http://www.topografix.com/GPX/1/1" xmlns:xsi="http://www.w3.org/2001/XMLSchema-instance" xsi:schemaLocation="http://www.topografix.com/GPX/1/1 http://www.topografix.com/GPX/1/1/gpx.xsd" version="1.1" creator="VisuGPX - https://www.visugpx.com">
  <metadata>
    <name>Mont Jovet </name>
    <desc><![CDATA[Départ ND du pré]]></desc>
  </metadata>
  <trk>
    <name><![CDATA[Tracé actuel: 06 MARS 2016 08:48]]></name>
    <trkseg>
      <trkpt lat="45.51341" lon="6.59837">
        <ele>1291.67</ele>
        <time>2016-03-06T07:48:59Z</time>
      </trkpt>
      <trkpt lat="45.5134" lon="6.59836">
        <ele>1292.15</ele>
        <time>2016-03-06T07:49:19Z</time>
      </trkpt>
      <trkpt lat="45.5134" lon="6.59834">
        <ele>1291.19</ele>
        <time>2016-03-06T07:49:38Z</time>
      </trkpt>
      <trkpt lat="45.51339" lon="6.59833">
        <ele>1291.19</ele>
        <time>2016-03-06T07:49:56Z</time>
      </trkpt>
      <trkpt lat="45.51337" lon="6.59838">
        <ele>1291.19</ele>
        <time>2016-03-06T07:50:08Z</time>
      </trkpt>
      <trkpt lat="45.5134" lon="6.59835">
        <ele>1291.19</ele>
        <time>2016-03-06T07:50:18Z</time>
      </trkpt>
      <trkpt lat="45.51339" lon="6.59838">
        <ele>1291.19</ele>
        <time>2016-03-06T07:50:31Z</time>
      </trkpt>
      <trkpt lat="45.5134" lon="6.59835">
        <ele>1291.67</ele>
        <time>2016-03-06T07:50:43Z</time>
      </trkpt>
      <trkpt lat="45.51338" lon="6.59837">
        <ele>1292.15</ele>
        <time>2016-03-06T07:51:02Z</time>
      </trkpt>
      <trkpt lat="45.51338" lon="6.59837">
        <ele>1292.63</ele>
        <time>2016-03-06T07:51:17Z</time>
      </trkpt>
      <trkpt lat="45.51336" lon="6.59835">
        <ele>1291.67</ele>
        <time>2016-03-06T07:51:43Z</time>
      </trkpt>
      <trkpt lat="45.51338" lon="6.59836">
        <ele>1291.67</ele>
        <time>2016-03-06T07:51:59Z</time>
      </trkpt>
      <trkpt lat="45.51338" lon="6.5984">
        <ele>1292.15</ele>
        <time>2016-03-06T07:52:24Z</time>
      </trkpt>
      <trkpt lat="45.51338" lon="6.5984">
        <ele>1290.71</ele>
        <time>2016-03-06T07:52:29Z</time>
      </trkpt>
      <trkpt lat="45.51337" lon="6.59842">
        <ele>1290.71</ele>
        <time>2016-03-06T07:52:37Z</time>
      </trkpt>
      <trkpt lat="45.51336" lon="6.59845">
        <ele>1292.15</ele>
        <time>2016-03-06T07:52:39Z</time>
      </trkpt>
      <trkpt lat="45.51337" lon="6.59845">
        <ele>1290.71</ele>
        <time>2016-03-06T07:52:44Z</time>
      </trkpt>
      <trkpt lat="45.51336" lon="6.59845">
        <ele>1286.86</ele>
        <time>2016-03-06T07:52:50Z</time>
      </trkpt>
      <trkpt lat="45.51336" lon="6.59845">
        <ele>1290.71</ele>
        <time>2016-03-06T07:52:51Z</time>
      </trkpt>
      <trkpt lat="45.51335" lon="6.59846">
        <ele>1296.48</ele>
        <time>2016-03-06T07:52:53Z</time>
      </trkpt>
      <trkpt lat="45.51335" lon="6.59846">
        <ele>1292.15</ele>
        <time>2016-03-06T07:52:54Z</time>
      </trkpt>
      <trkpt lat="45.51336" lon="6.59846">
        <ele>1291.67</ele>
        <time>2016-03-06T07:52:56Z</time>
      </trkpt>
      <trkpt lat="45.51334" lon="6.5985">
        <ele>1291.67</ele>
        <time>2016-03-06T07:53:10Z</time>
      </trkpt>
      <trkpt lat="45.51327" lon="6.5986">
        <ele>1293.11</ele>
        <time>2016-03-06T07:53:23Z</time>
      </trkpt>
      <trkpt lat="45.51322" lon="6.59863">
        <ele>1293.11</ele>
        <time>2016-03-06T07:53:40Z</time>
      </trkpt>
      <trkpt lat="45.51315" lon="6.59863">
        <ele>1294.07</ele>
        <time>2016-03-06T07:53:56Z</time>
      </trkpt>
      <trkpt lat="45.51301" lon="6.59867">
        <ele>1295.03</ele>
        <time>2016-03-06T07:54:16Z</time>
      </trkpt>
      <trkpt lat="45.51295" lon="6.5987">
        <ele>1295.51</ele>
        <time>2016-03-06T07:54:31Z</time>
      </trkpt>
      <trkpt lat="45.51292" lon="6.5989">
        <ele>1296.48</ele>
        <time>2016-03-06T07:54:49Z</time>
      </trkpt>
      <trkpt lat="45.51292" lon="6.59892">
        <ele>1296.48</ele>
        <time>2016-03-06T07:54:51Z</time>
      </trkpt>
      <trkpt lat="45.51291" lon="6.59901">
        <ele>1296.96</ele>
        <time>2016-03-06T07:54:59Z</time>
      </trkpt>
      <trkpt lat="45.5129" lon="6.59917">
        <ele>1297.44</ele>
        <time>2016-03-06T07:55:12Z</time>
      </trkpt>
      <trkpt lat="45.51294" lon="6.59934">
        <ele>1298.4</ele>
        <time>2016-03-06T07:55:27Z</time>
      </trkpt>
      <trkpt lat="45.51295" lon="6.59948">
        <ele>1299.36</ele>
        <time>2016-03-06T07:55:41Z</time>
      </trkpt>
      <trkpt lat="45.5129" lon="6.59968">
        <ele>1300.32</ele>
        <time>2016-03-06T07:55:58Z</time>
      </trkpt>
      <trkpt lat="45.51283" lon="6.59984">
        <ele>1301.76</ele>
        <time>2016-03-06T07:56:14Z</time>
      </trkpt>
      <trkpt lat="45.51274" lon="6.59997">
        <ele>1302.72</ele>
        <time>2016-03-06T07:56:30Z</time>
      </trkpt>
      <trkpt lat="45.51266" lon="6.60004">
        <ele>1302.72</ele>
        <time>2016-03-06T07:56:43Z</time>
      </trkpt>
      <trkpt lat="45.51262" lon="6.60007">
        <ele>1303.2</ele>
        <time>2016-03-06T07:56:49Z</time>
      </trkpt>
      <trkpt lat="45.51253" lon="6.6001">
        <ele>1303.69</ele>
        <time>2016-03-06T07:57:04Z</time>
      </trkpt>
      <trkpt lat="45.51251" lon="6.60011">
        <ele>1303.69</ele>
        <time>2016-03-06T07:57:08Z</time>
      </trkpt>
      <trkpt lat="45.51251" lon="6.60008">
        <ele>1300.32</ele>
        <time>2016-03-06T07:57:10Z</time>
      </trkpt>
      <trkpt lat="45.51251" lon="6.60007">
        <ele>1304.17</ele>
        <time>2016-03-06T07:57:11Z</time>
      </trkpt>
      <trkpt lat="45.51248" lon="6.60013">
        <ele>1304.17</ele>
        <time>2016-03-06T07:57:25Z</time>
      </trkpt>
      <trkpt lat="45.51238" lon="6.60019">
        <ele>1305.61</ele>
        <time>2016-03-06T07:57:41Z</time>
      </trkpt>
      <trkpt lat="45.51225" lon="6.60024">
        <ele>1306.09</ele>
        <time>2016-03-06T07:57:57Z</time>
      </trkpt>
      <trkpt lat="45.51214" lon="6.60028">
        <ele>1307.05</ele>
        <time>2016-03-06T07:58:12Z</time>
      </trkpt>
      <trkpt lat="45.51201" lon="6.60033">
        <ele>1308.49</ele>
        <time>2016-03-06T07:58:27Z</time>
      </trkpt>
      <trkpt lat="45.51187" lon="6.60045">
        <ele>1309.45</ele>
        <time>2016-03-06T07:58:46Z</time>
      </trkpt>
      <trkpt lat="45.51178" lon="6.60058">
        <ele>1310.41</ele>
        <time>2016-03-06T07:59:00Z</time>
      </trkpt>
      <trkpt lat="45.51166" lon="6.60075">
        <ele>1312.34</ele>
        <time>2016-03-06T07:59:19Z</time>
      </trkpt>
      <trkpt lat="45.51154" lon="6.60084">
        <ele>1313.3</ele>
        <time>2016-03-06T07:59:35Z</time>
      </trkpt>
      <trkpt lat="45.51142" lon="6.60091">
        <ele>1314.26</ele>
        <time>2016-03-06T07:59:50Z</time>
      </trkpt>
      <trkpt lat="45.51132" lon="6.60091">
        <ele>1315.7</ele>
        <time>2016-03-06T08:00:04Z</time>
      </trkpt>
      <trkpt lat="45.51119" lon="6.60094">
        <ele>1317.62</ele>
        <time>2016-03-06T08:00:20Z</time>
      </trkpt>
      <trkpt lat="45.51107" lon="6.60097">
        <ele>1318.59</ele>
        <time>2016-03-06T08:00:36Z</time>
      </trkpt>
      <trkpt lat="45.51096" lon="6.601">
        <ele>1320.03</ele>
        <time>2016-03-06T08:00:51Z</time>
      </trkpt>
      <trkpt lat="45.51083" lon="6.60099">
        <ele>1321.47</ele>
        <time>2016-03-06T08:01:05Z</time>
      </trkpt>
      <trkpt lat="45.51072" lon="6.60095">
        <ele>1322.91</ele>
        <time>2016-03-06T08:01:18Z</time>
      </trkpt>
      <trkpt lat="45.51057" lon="6.60084">
        <ele>1324.83</ele>
        <time>2016-03-06T08:01:37Z</time>
      </trkpt>
      <trkpt lat="45.51044" lon="6.60071">
        <ele>1326.28</ele>
        <time>2016-03-06T08:01:54Z</time>
      </trkpt>
      <trkpt lat="45.51031" lon="6.60062">
        <ele>1327.24</ele>
        <time>2016-03-06T08:02:09Z</time>
      </trkpt>
      <trkpt lat="45.51017" lon="6.60055">
        <ele>1328.68</ele>
        <time>2016-03-06T08:02:24Z</time>
      </trkpt>
      <trkpt lat="45.51007" lon="6.60044">
        <ele>1330.12</ele>
        <time>2016-03-06T08:02:38Z</time>
      </trkpt>
      <trkpt lat="45.50995" lon="6.60036">
        <ele>1331.56</ele>
        <time>2016-03-06T08:02:53Z</time>
      </trkpt>
      <trkpt lat="45.50983" lon="6.60028">
        <ele>1333.01</ele>
        <time>2016-03-06T08:03:09Z</time>
      </trkpt>
      <trkpt lat="45.50968" lon="6.60021">
        <ele>1333.97</ele>
        <time>2016-03-06T08:03:26Z</time>
      </trkpt>
      <trkpt lat="45.50958" lon="6.60013">
        <ele>1335.89</ele>
        <time>2016-03-06T08:03:38Z</time>
      </trkpt>
      <trkpt lat="45.50951" lon="6.60009">
        <ele>1335.89</ele>
        <time>2016-03-06T08:03:45Z</time>
      </trkpt>
      <trkpt lat="45.50941" lon="6.6">
        <ele>1336.85</ele>
        <time>2016-03-06T08:03:58Z</time>
      </trkpt>
      <trkpt lat="45.5093" lon="6.59984">
        <ele>1338.29</ele>
        <time>2016-03-06T08:04:15Z</time>
      </trkpt>
      <trkpt lat="45.50921" lon="6.59958">
        <ele>1340.22</ele>
        <time>2016-03-06T08:04:37Z</time>
      </trkpt>
      <trkpt lat="45.50914" lon="6.59931">
        <ele>1341.66</ele>
        <time>2016-03-06T08:04:59Z</time>
      </trkpt>
      <trkpt lat="45.50909" lon="6.59916">
        <ele>1342.14</ele>
        <time>2016-03-06T08:05:11Z</time>
      </trkpt>
      <trkpt lat="45.50901" lon="6.59889">
        <ele>1343.58</ele>
        <time>2016-03-06T08:05:33Z</time>
      </trkpt>
      <trkpt lat="45.5089" lon="6.5987">
        <ele>1345.98</ele>
        <time>2016-03-06T08:05:54Z</time>
      </trkpt>
      <trkpt lat="45.50877" lon="6.59864">
        <ele>1348.39</ele>
        <time>2016-03-06T08:06:12Z</time>
      </trkpt>
      <trkpt lat="45.5087" lon="6.59858">
        <ele>1349.83</ele>
        <time>2016-03-06T08:06:21Z</time>
      </trkpt>
      <trkpt lat="45.50858" lon="6.59849">
        <ele>1351.27</ele>
        <time>2016-03-06T08:06:36Z</time>
      </trkpt>
      <trkpt lat="45.50844" lon="6.59842">
        <ele>1354.63</ele>
        <time>2016-03-06T08:06:56Z</time>
      </trkpt>
      <trkpt lat="45.50833" lon="6.5984">
        <ele>1357.04</ele>
        <time>2016-03-06T08:07:10Z</time>
      </trkpt>
      <trkpt lat="45.5082" lon="6.59836">
        <ele>1359.92</ele>
        <time>2016-03-06T08:07:27Z</time>
      </trkpt>
      <trkpt lat="45.50811" lon="6.59838">
        <ele>1362.81</ele>
        <time>2016-03-06T08:07:40Z</time>
      </trkpt>
      <trkpt lat="45.508" lon="6.59839">
        <ele>1365.69</ele>
        <time>2016-03-06T08:07:56Z</time>
      </trkpt>
      <trkpt lat="45.5079" lon="6.59839">
        <ele>1369.05</ele>
        <time>2016-03-06T08:08:13Z</time>
      </trkpt>
      <trkpt lat="45.5078" lon="6.59841">
        <ele>1370.98</ele>
        <time>2016-03-06T08:08:28Z</time>
      </trkpt>
      <trkpt lat="45.50769" lon="6.59843">
        <ele>1373.86</ele>
        <time>2016-03-06T08:08:45Z</time>
      </trkpt>
      <trkpt lat="45.50759" lon="6.59838">
        <ele>1376.75</ele>
        <time>2016-03-06T08:09:01Z</time>
      </trkpt>
      <trkpt lat="45.50754" lon="6.59834">
        <ele>1379.15</ele>
        <time>2016-03-06T08:09:09Z</time>
      </trkpt>
      <trkpt lat="45.50747" lon="6.59828">
        <ele>1381.55</ele>
        <time>2016-03-06T08:09:25Z</time>
      </trkpt>
      <trkpt lat="45.5074" lon="6.5982">
        <ele>1384.92</ele>
        <time>2016-03-06T08:09:38Z</time>
      </trkpt>
      <trkpt lat="45.50734" lon="6.5981">
        <ele>1385.88</ele>
        <time>2016-03-06T08:09:53Z</time>
      </trkpt>
      <trkpt lat="45.50729" lon="6.59815">
        <ele>1387.8</ele>
        <time>2016-03-06T08:10:09Z</time>
      </trkpt>
      <trkpt lat="45.50726" lon="6.59828">
        <ele>1391.17</ele>
        <time>2016-03-06T08:10:22Z</time>
      </trkpt>
      <trkpt lat="45.5072" lon="6.59842">
        <ele>1393.57</ele>
        <time>2016-03-06T08:10:37Z</time>
      </trkpt>
      <trkpt lat="45.50719" lon="6.59856">
        <ele>1395.49</ele>
        <time>2016-03-06T08:10:52Z</time>
      </trkpt>
      <trkpt lat="45.50715" lon="6.59846">
        <ele>1397.41</ele>
        <time>2016-03-06T08:11:06Z</time>
      </trkpt>
      <trkpt lat="45.5071" lon="6.59836">
        <ele>1400.3</ele>
        <time>2016-03-06T08:11:22Z</time>
      </trkpt>
      <trkpt lat="45.50709" lon="6.59852">
        <ele>1402.22</ele>
        <time>2016-03-06T08:11:36Z</time>
      </trkpt>
      <trkpt lat="45.50705" lon="6.59865">
        <ele>1404.14</ele>
        <time>2016-03-06T08:11:51Z</time>
      </trkpt>
      <trkpt lat="45.50699" lon="6.59852">
        <ele>1407.51</ele>
        <time>2016-03-06T08:12:07Z</time>
      </trkpt>
      <trkpt lat="45.50695" lon="6.59853">
        <ele>1409.91</ele>
        <time>2016-03-06T08:12:22Z</time>
      </trkpt>
      <trkpt lat="45.50693" lon="6.59859">
        <ele>1409.43</ele>
        <time>2016-03-06T08:12:27Z</time>
      </trkpt>
      <trkpt lat="45.50693" lon="6.59862">
        <ele>1410.87</ele>
        <time>2016-03-06T08:12:30Z</time>
      </trkpt>
      <trkpt lat="45.5069" lon="6.59864">
        <ele>1412.31</ele>
        <time>2016-03-06T08:12:44Z</time>
      </trkpt>
      <trkpt lat="45.50686" lon="6.59853">
        <ele>1413.76</ele>
        <time>2016-03-06T08:12:58Z</time>
      </trkpt>
      <trkpt lat="45.5068" lon="6.59843">
        <ele>1415.68</ele>
        <time>2016-03-06T08:13:13Z</time>
      </trkpt>
      <trkpt lat="45.5068" lon="6.59852">
        <ele>1418.56</ele>
        <time>2016-03-06T08:13:24Z</time>
      </trkpt>
      <trkpt lat="45.50675" lon="6.59863">
        <ele>1419.04</ele>
        <time>2016-03-06T08:13:35Z</time>
      </trkpt>
      <trkpt lat="45.50672" lon="6.59868">
        <ele>1422.89</ele>
        <time>2016-03-06T08:13:43Z</time>
      </trkpt>
      <trkpt lat="45.50666" lon="6.59866">
        <ele>1424.81</ele>
        <time>2016-03-06T08:13:54Z</time>
      </trkpt>
      <trkpt lat="45.50659" lon="6.59858">
        <ele>1428.18</ele>
        <time>2016-03-06T08:14:07Z</time>
      </trkpt>
      <trkpt lat="45.50659" lon="6.59869">
        <ele>1429.14</ele>
        <time>2016-03-06T08:14:19Z</time>
      </trkpt>
      <trkpt lat="45.50657" lon="6.59879">
        <ele>1431.54</ele>
        <time>2016-03-06T08:14:35Z</time>
      </trkpt>
      <trkpt lat="45.50649" lon="6.5987">
        <ele>1434.42</ele>
        <time>2016-03-06T08:14:50Z</time>
      </trkpt>
      <trkpt lat="45.50649" lon="6.59879">
        <ele>1436.83</ele>
        <time>2016-03-06T08:15:04Z</time>
      </trkpt>
      <trkpt lat="45.50651" lon="6.59892">
        <ele>1439.23</ele>
        <time>2016-03-06T08:15:18Z</time>
      </trkpt>
      <trkpt lat="45.50647" lon="6.59888">
        <ele>1440.67</ele>
        <time>2016-03-06T08:15:30Z</time>
      </trkpt>
      <trkpt lat="45.50639" lon="6.59881">
        <ele>1442.6</ele>
        <time>2016-03-06T08:15:45Z</time>
      </trkpt>
      <trkpt lat="45.50638" lon="6.59881">
        <ele>1444.04</ele>
        <time>2016-03-06T08:15:47Z</time>
      </trkpt>
      <trkpt lat="45.50629" lon="6.59878">
        <ele>1446.44</ele>
        <time>2016-03-06T08:16:02Z</time>
      </trkpt>
      <trkpt lat="45.50631" lon="6.59888">
        <ele>1447.88</ele>
        <time>2016-03-06T08:16:15Z</time>
      </trkpt>
      <trkpt lat="45.50632" lon="6.59907">
        <ele>1450.29</ele>
        <time>2016-03-06T08:16:33Z</time>
      </trkpt>
      <trkpt lat="45.50634" lon="6.5992">
        <ele>1453.65</ele>
        <time>2016-03-06T08:16:47Z</time>
      </trkpt>
      <trkpt lat="45.50635" lon="6.59936">
        <ele>1455.57</ele>
        <time>2016-03-06T08:17:05Z</time>
      </trkpt>
      <trkpt lat="45.50629" lon="6.59942">
        <ele>1457.5</ele>
        <time>2016-03-06T08:17:21Z</time>
      </trkpt>
      <trkpt lat="45.50624" lon="6.59939">
        <ele>1459.9</ele>
        <time>2016-03-06T08:17:30Z</time>
      </trkpt>
      <trkpt lat="45.5062" lon="6.59953">
        <ele>1462.3</ele>
        <time>2016-03-06T08:17:47Z</time>
      </trkpt>
      <trkpt lat="45.5062" lon="6.59958">
        <ele>1464.23</ele>
        <time>2016-03-06T08:17:53Z</time>
      </trkpt>
      <trkpt lat="45.50613" lon="6.59973">
        <ele>1466.63</ele>
        <time>2016-03-06T08:18:11Z</time>
      </trkpt>
      <trkpt lat="45.50607" lon="6.59979">
        <ele>1469.99</ele>
        <time>2016-03-06T08:18:23Z</time>
      </trkpt>
      <trkpt lat="45.506" lon="6.59988">
        <ele>1472.4</ele>
        <time>2016-03-06T08:18:40Z</time>
      </trkpt>
      <trkpt lat="45.50594" lon="6.59998">
        <ele>1474.8</ele>
        <time>2016-03-06T08:18:54Z</time>
      </trkpt>
      <trkpt lat="45.50588" lon="6.60014">
        <ele>1477.68</ele>
        <time>2016-03-06T08:19:14Z</time>
      </trkpt>
      <trkpt lat="45.50583" lon="6.60028">
        <ele>1480.09</ele>
        <time>2016-03-06T08:19:30Z</time>
      </trkpt>
      <trkpt lat="45.50575" lon="6.60045">
        <ele>1483.45</ele>
        <time>2016-03-06T08:19:50Z</time>
      </trkpt>
      <trkpt lat="45.50571" lon="6.60058">
        <ele>1485.37</ele>
        <time>2016-03-06T08:20:05Z</time>
      </trkpt>
      <trkpt lat="45.50566" lon="6.60073">
        <ele>1488.26</ele>
        <time>2016-03-06T08:20:22Z</time>
      </trkpt>
      <trkpt lat="45.50561" lon="6.60087">
        <ele>1490.18</ele>
        <time>2016-03-06T08:20:37Z</time>
      </trkpt>
      <trkpt lat="45.50557" lon="6.601">
        <ele>1492.58</ele>
        <time>2016-03-06T08:20:53Z</time>
      </trkpt>
      <trkpt lat="45.5055" lon="6.60109">
        <ele>1495.95</ele>
        <time>2016-03-06T08:21:06Z</time>
      </trkpt>
      <trkpt lat="45.50544" lon="6.60119">
        <ele>1499.31</ele>
        <time>2016-03-06T08:21:20Z</time>
      </trkpt>
      <trkpt lat="45.5054" lon="6.60132">
        <ele>1501.72</ele>
        <time>2016-03-06T08:21:35Z</time>
      </trkpt>
      <trkpt lat="45.50542" lon="6.60144">
        <ele>1503.64</ele>
        <time>2016-03-06T08:21:47Z</time>
      </trkpt>
      <trkpt lat="45.50542" lon="6.60148">
        <ele>1504.6</ele>
        <time>2016-03-06T08:22:00Z</time>
      </trkpt>
      <trkpt lat="45.50543" lon="6.60161">
        <ele>1506.04</ele>
        <time>2016-03-06T08:22:15Z</time>
      </trkpt>
      <trkpt lat="45.50547" lon="6.60174">
        <ele>1508.93</ele>
        <time>2016-03-06T08:22:30Z</time>
      </trkpt>
      <trkpt lat="45.50545" lon="6.60187">
        <ele>1511.33</ele>
        <time>2016-03-06T08:22:45Z</time>
      </trkpt>
      <trkpt lat="45.50546" lon="6.60197">
        <ele>1514.69</ele>
        <time>2016-03-06T08:22:56Z</time>
      </trkpt>
      <trkpt lat="45.50544" lon="6.60207">
        <ele>1516.62</ele>
        <time>2016-03-06T08:23:10Z</time>
      </trkpt>
      <trkpt lat="45.50544" lon="6.60219">
        <ele>1518.54</ele>
        <time>2016-03-06T08:23:23Z</time>
      </trkpt>
      <trkpt lat="45.50545" lon="6.6023">
        <ele>1521.42</ele>
        <time>2016-03-06T08:23:34Z</time>
      </trkpt>
      <trkpt lat="45.50548" lon="6.60235">
        <ele>1525.27</ele>
        <time>2016-03-06T08:23:47Z</time>
      </trkpt>
      <trkpt lat="45.50548" lon="6.60235">
        <ele>1523.35</ele>
        <time>2016-03-06T08:23:48Z</time>
      </trkpt>
      <trkpt lat="45.50548" lon="6.60236">
        <ele>1522.87</ele>
        <time>2016-03-06T08:23:50Z</time>
      </trkpt>
      <trkpt lat="45.5055" lon="6.60243">
        <ele>1525.75</ele>
        <time>2016-03-06T08:24:02Z</time>
      </trkpt>
      <trkpt lat="45.50546" lon="6.60245">
        <ele>1527.67</ele>
        <time>2016-03-06T08:24:14Z</time>
      </trkpt>
      <trkpt lat="45.50539" lon="6.60257">
        <ele>1530.08</ele>
        <time>2016-03-06T08:24:28Z</time>
      </trkpt>
      <trkpt lat="45.50529" lon="6.60255">
        <ele>1533.44</ele>
        <time>2016-03-06T08:24:41Z</time>
      </trkpt>
      <trkpt lat="45.5053" lon="6.60261">
        <ele>1533.92</ele>
        <time>2016-03-06T08:24:48Z</time>
      </trkpt>
      <trkpt lat="45.50533" lon="6.60274">
        <ele>1536.32</ele>
        <time>2016-03-06T08:25:01Z</time>
      </trkpt>
      <trkpt lat="45.50534" lon="6.60272">
        <ele>1534.88</ele>
        <time>2016-03-06T08:25:17Z</time>
      </trkpt>
      <trkpt lat="45.50534" lon="6.60272">
        <ele>1536.32</ele>
        <time>2016-03-06T08:25:19Z</time>
      </trkpt>
      <trkpt lat="45.50535" lon="6.60269">
        <ele>1532.96</ele>
        <time>2016-03-06T08:25:27Z</time>
      </trkpt>
      <trkpt lat="45.50535" lon="6.6027">
        <ele>1532.96</ele>
        <time>2016-03-06T08:25:28Z</time>
      </trkpt>
      <trkpt lat="45.50535" lon="6.60271">
        <ele>1535.36</ele>
        <time>2016-03-06T08:25:31Z</time>
      </trkpt>
      <trkpt lat="45.50536" lon="6.6027">
        <ele>1535.36</ele>
        <time>2016-03-06T08:25:37Z</time>
      </trkpt>
      <trkpt lat="45.50534" lon="6.6027">
        <ele>1535.36</ele>
        <time>2016-03-06T08:26:09Z</time>
      </trkpt>
      <trkpt lat="45.50531" lon="6.60268">
        <ele>1535.84</ele>
        <time>2016-03-06T08:26:30Z</time>
      </trkpt>
      <trkpt lat="45.50532" lon="6.6027">
        <ele>1535.84</ele>
        <time>2016-03-06T08:26:52Z</time>
      </trkpt>
      <trkpt lat="45.50533" lon="6.60266">
        <ele>1535.84</ele>
        <time>2016-03-06T08:27:08Z</time>
      </trkpt>
      <trkpt lat="45.50537" lon="6.60271">
        <ele>1537.77</ele>
        <time>2016-03-06T08:27:20Z</time>
      </trkpt>
      <trkpt lat="45.50544" lon="6.60279">
        <ele>1540.65</ele>
        <time>2016-03-06T08:27:33Z</time>
      </trkpt>
      <trkpt lat="45.5055" lon="6.60291">
        <ele>1543.05</ele>
        <time>2016-03-06T08:27:47Z</time>
      </trkpt>
      <trkpt lat="45.50553" lon="6.603">
        <ele>1546.42</ele>
        <time>2016-03-06T08:27:59Z</time>
      </trkpt>
      <trkpt lat="45.50555" lon="6.60305">
        <ele>1548.34</ele>
        <time>2016-03-06T08:28:11Z</time>
      </trkpt>
      <trkpt lat="45.50556" lon="6.60307">
        <ele>1549.78</ele>
        <time>2016-03-06T08:28:14Z</time>
      </trkpt>
      <trkpt lat="45.50564" lon="6.60314">
        <ele>1552.19</ele>
        <time>2016-03-06T08:28:26Z</time>
      </trkpt>
      <trkpt lat="45.50571" lon="6.60318">
        <ele>1554.59</ele>
        <time>2016-03-06T08:28:39Z</time>
      </trkpt>
      <trkpt lat="45.50578" lon="6.60322">
        <ele>1557.95</ele>
        <time>2016-03-06T08:28:55Z</time>
      </trkpt>
      <trkpt lat="45.50581" lon="6.60336">
        <ele>1561.32</ele>
        <time>2016-03-06T08:29:08Z</time>
      </trkpt>
      <trkpt lat="45.50587" lon="6.60342">
        <ele>1563.72</ele>
        <time>2016-03-06T08:29:22Z</time>
      </trkpt>
      <trkpt lat="45.50591" lon="6.60355">
        <ele>1567.09</ele>
        <time>2016-03-06T08:29:35Z</time>
      </trkpt>
      <trkpt lat="45.50587" lon="6.60362">
        <ele>1569.49</ele>
        <time>2016-03-06T08:29:47Z</time>
      </trkpt>
      <trkpt lat="45.50583" lon="6.60364">
        <ele>1572.37</ele>
        <time>2016-03-06T08:30:00Z</time>
      </trkpt>
      <trkpt lat="45.50577" lon="6.60368">
        <ele>1575.26</ele>
        <time>2016-03-06T08:30:12Z</time>
      </trkpt>
      <trkpt lat="45.50582" lon="6.6037">
        <ele>1578.62</ele>
        <time>2016-03-06T08:30:28Z</time>
      </trkpt>
      <trkpt lat="45.50592" lon="6.60379">
        <ele>1581.51</ele>
        <time>2016-03-06T08:30:45Z</time>
      </trkpt>
      <trkpt lat="45.506" lon="6.60391">
        <ele>1584.87</ele>
        <time>2016-03-06T08:30:59Z</time>
      </trkpt>
      <trkpt lat="45.50607" lon="6.60401">
        <ele>1587.75</ele>
        <time>2016-03-06T08:31:13Z</time>
      </trkpt>
      <trkpt lat="45.50613" lon="6.60409">
        <ele>1590.64</ele>
        <time>2016-03-06T08:31:27Z</time>
      </trkpt>
      <trkpt lat="45.50621" lon="6.60415">
        <ele>1593.52</ele>
        <time>2016-03-06T08:31:41Z</time>
      </trkpt>
      <trkpt lat="45.5063" lon="6.60424">
        <ele>1596.89</ele>
        <time>2016-03-06T08:31:57Z</time>
      </trkpt>
      <trkpt lat="45.50636" lon="6.6043">
        <ele>1599.77</ele>
        <time>2016-03-06T08:32:11Z</time>
      </trkpt>
      <trkpt lat="45.50642" lon="6.60437">
        <ele>1602.66</ele>
        <time>2016-03-06T08:32:25Z</time>
      </trkpt>
      <trkpt lat="45.50649" lon="6.60442">
        <ele>1605.54</ele>
        <time>2016-03-06T08:32:38Z</time>
      </trkpt>
      <trkpt lat="45.50648" lon="6.60452">
        <ele>1607.46</ele>
        <time>2016-03-06T08:32:49Z</time>
      </trkpt>
      <trkpt lat="45.50641" lon="6.60457">
        <ele>1610.83</ele>
        <time>2016-03-06T08:33:04Z</time>
      </trkpt>
      <trkpt lat="45.50635" lon="6.60461">
        <ele>1612.75</ele>
        <time>2016-03-06T08:33:16Z</time>
      </trkpt>
      <trkpt lat="45.50625" lon="6.6046">
        <ele>1615.63</ele>
        <time>2016-03-06T08:33:33Z</time>
      </trkpt>
      <trkpt lat="45.50615" lon="6.60462">
        <ele>1617.56</ele>
        <time>2016-03-06T08:33:46Z</time>
      </trkpt>
      <trkpt lat="45.50605" lon="6.60462">
        <ele>1619.96</ele>
        <time>2016-03-06T08:34:00Z</time>
      </trkpt>
      <trkpt lat="45.50593" lon="6.60464">
        <ele>1621.88</ele>
        <time>2016-03-06T08:34:14Z</time>
      </trkpt>
      <trkpt lat="45.50583" lon="6.60467">
        <ele>1623.32</ele>
        <time>2016-03-06T08:34:27Z</time>
      </trkpt>
      <trkpt lat="45.50578" lon="6.60467">
        <ele>1624.28</ele>
        <time>2016-03-06T08:34:32Z</time>
      </trkpt>
      <trkpt lat="45.50574" lon="6.60466">
        <ele>1624.77</ele>
        <time>2016-03-06T08:34:36Z</time>
      </trkpt>
      <trkpt lat="45.5057" lon="6.60467">
        <ele>1624.77</ele>
        <time>2016-03-06T08:34:40Z</time>
      </trkpt>
      <trkpt lat="45.5056" lon="6.60466">
        <ele>1627.17</ele>
        <time>2016-03-06T08:34:53Z</time>
      </trkpt>
      <trkpt lat="45.50554" lon="6.60471">
        <ele>1629.09</ele>
        <time>2016-03-06T08:35:05Z</time>
      </trkpt>
      <trkpt lat="45.50558" lon="6.60473">
        <ele>1630.53</ele>
        <time>2016-03-06T08:35:18Z</time>
      </trkpt>
      <trkpt lat="45.50566" lon="6.60476">
        <ele>1633.42</ele>
        <time>2016-03-06T08:35:36Z</time>
      </trkpt>
      <trkpt lat="45.50578" lon="6.60481">
        <ele>1635.34</ele>
        <time>2016-03-06T08:35:53Z</time>
      </trkpt>
      <trkpt lat="45.50588" lon="6.60486">
        <ele>1638.22</ele>
        <time>2016-03-06T08:36:09Z</time>
      </trkpt>
      <trkpt lat="45.50601" lon="6.60497">
        <ele>1641.11</ele>
        <time>2016-03-06T08:36:26Z</time>
      </trkpt>
      <trkpt lat="45.50603" lon="6.60504">
        <ele>1643.51</ele>
        <time>2016-03-06T08:36:36Z</time>
      </trkpt>
      <trkpt lat="45.50599" lon="6.60507">
        <ele>1645.91</ele>
        <time>2016-03-06T08:36:50Z</time>
      </trkpt>
      <trkpt lat="45.5059" lon="6.60507">
        <ele>1648.32</ele>
        <time>2016-03-06T08:37:03Z</time>
      </trkpt>
      <trkpt lat="45.50581" lon="6.6051">
        <ele>1651.2</ele>
        <time>2016-03-06T08:37:19Z</time>
      </trkpt>
      <trkpt lat="45.50573" lon="6.60515">
        <ele>1653.6</ele>
        <time>2016-03-06T08:37:34Z</time>
      </trkpt>
      <trkpt lat="45.50563" lon="6.60519">
        <ele>1656.49</ele>
        <time>2016-03-06T08:37:48Z</time>
      </trkpt>
      <trkpt lat="45.50558" lon="6.60521">
        <ele>1657.93</ele>
        <time>2016-03-06T08:37:58Z</time>
      </trkpt>
      <trkpt lat="45.50546" lon="6.60527">
        <ele>1661.3</ele>
        <time>2016-03-06T08:38:12Z</time>
      </trkpt>
      <trkpt lat="45.50538" lon="6.60531">
        <ele>1663.22</ele>
        <time>2016-03-06T08:38:24Z</time>
      </trkpt>
      <trkpt lat="45.50528" lon="6.60531">
        <ele>1666.1</ele>
        <time>2016-03-06T08:38:39Z</time>
      </trkpt>
      <trkpt lat="45.50525" lon="6.60531">
        <ele>1666.58</ele>
        <time>2016-03-06T08:38:50Z</time>
      </trkpt>
      <trkpt lat="45.50517" lon="6.60536">
        <ele>1668.51</ele>
        <time>2016-03-06T08:39:01Z</time>
      </trkpt>
      <trkpt lat="45.50511" lon="6.60542">
        <ele>1670.43</ele>
        <time>2016-03-06T08:39:14Z</time>
      </trkpt>
      <trkpt lat="45.50503" lon="6.60546">
        <ele>1673.31</ele>
        <time>2016-03-06T08:39:28Z</time>
      </trkpt>
      <trkpt lat="45.50504" lon="6.60553">
        <ele>1675.72</ele>
        <time>2016-03-06T08:39:42Z</time>
      </trkpt>
      <trkpt lat="45.50506" lon="6.60552">
        <ele>1679.08</ele>
        <time>2016-03-06T08:39:54Z</time>
      </trkpt>
      <trkpt lat="45.50513" lon="6.6055">
        <ele>1681</ele>
        <time>2016-03-06T08:40:05Z</time>
      </trkpt>
      <trkpt lat="45.50521" lon="6.60556">
        <ele>1684.37</ele>
        <time>2016-03-06T08:40:21Z</time>
      </trkpt>
      <trkpt lat="45.50521" lon="6.60559">
        <ele>1684.85</ele>
        <time>2016-03-06T08:40:23Z</time>
      </trkpt>
      <trkpt lat="45.50514" lon="6.60568">
        <ele>1687.25</ele>
        <time>2016-03-06T08:40:37Z</time>
      </trkpt>
      <trkpt lat="45.5051" lon="6.60575">
        <ele>1689.65</ele>
        <time>2016-03-06T08:40:49Z</time>
      </trkpt>
      <trkpt lat="45.50514" lon="6.60576">
        <ele>1692.54</ele>
        <time>2016-03-06T08:41:03Z</time>
      </trkpt>
      <trkpt lat="45.50524" lon="6.60581">
        <ele>1695.9</ele>
        <time>2016-03-06T08:41:19Z</time>
      </trkpt>
      <trkpt lat="45.50539" lon="6.60584">
        <ele>1698.79</ele>
        <time>2016-03-06T08:41:37Z</time>
      </trkpt>
      <trkpt lat="45.50541" lon="6.60587">
        <ele>1700.23</ele>
        <time>2016-03-06T08:41:41Z</time>
      </trkpt>
      <trkpt lat="45.50549" lon="6.60594">
        <ele>1703.59</ele>
        <time>2016-03-06T08:41:55Z</time>
      </trkpt>
      <trkpt lat="45.50557" lon="6.60603">
        <ele>1705.52</ele>
        <time>2016-03-06T08:42:08Z</time>
      </trkpt>
      <trkpt lat="45.50564" lon="6.60607">
        <ele>1707.92</ele>
        <time>2016-03-06T08:42:22Z</time>
      </trkpt>
      <trkpt lat="45.50571" lon="6.60611">
        <ele>1709.36</ele>
        <time>2016-03-06T08:42:35Z</time>
      </trkpt>
      <trkpt lat="45.50578" lon="6.60614">
        <ele>1712.73</ele>
        <time>2016-03-06T08:42:49Z</time>
      </trkpt>
      <trkpt lat="45.50587" lon="6.60617">
        <ele>1715.13</ele>
        <time>2016-03-06T08:43:03Z</time>
      </trkpt>
      <trkpt lat="45.50593" lon="6.60621">
        <ele>1716.57</ele>
        <time>2016-03-06T08:43:13Z</time>
      </trkpt>
      <trkpt lat="45.50599" lon="6.60624">
        <ele>1719.46</ele>
        <time>2016-03-06T08:43:28Z</time>
      </trkpt>
      <trkpt lat="45.50594" lon="6.60636">
        <ele>1721.86</ele>
        <time>2016-03-06T08:43:43Z</time>
      </trkpt>
      <trkpt lat="45.50588" lon="6.60642">
        <ele>1723.3</ele>
        <time>2016-03-06T08:43:52Z</time>
      </trkpt>
      <trkpt lat="45.50577" lon="6.60655">
        <ele>1724.74</ele>
        <time>2016-03-06T08:44:06Z</time>
      </trkpt>
      <trkpt lat="45.50569" lon="6.60663">
        <ele>1727.63</ele>
        <time>2016-03-06T08:44:19Z</time>
      </trkpt>
      <trkpt lat="45.50561" lon="6.60674">
        <ele>1730.51</ele>
        <time>2016-03-06T08:44:35Z</time>
      </trkpt>
      <trkpt lat="45.50556" lon="6.60682">
        <ele>1731.95</ele>
        <time>2016-03-06T08:44:45Z</time>
      </trkpt>
      <trkpt lat="45.50547" lon="6.60691">
        <ele>1733.88</ele>
        <time>2016-03-06T08:45:00Z</time>
      </trkpt>
      <trkpt lat="45.50537" lon="6.60699">
        <ele>1736.76</ele>
        <time>2016-03-06T08:45:17Z</time>
      </trkpt>
      <trkpt lat="45.50525" lon="6.60706">
        <ele>1740.12</ele>
        <time>2016-03-06T08:45:33Z</time>
      </trkpt>
      <trkpt lat="45.50513" lon="6.60711">
        <ele>1742.53</ele>
        <time>2016-03-06T08:45:51Z</time>
      </trkpt>
      <trkpt lat="45.50508" lon="6.60717">
        <ele>1744.93</ele>
        <time>2016-03-06T08:46:05Z</time>
      </trkpt>
      <trkpt lat="45.50502" lon="6.60726">
        <ele>1748.29</ele>
        <time>2016-03-06T08:46:19Z</time>
      </trkpt>
      <trkpt lat="45.50497" lon="6.60734">
        <ele>1750.7</ele>
        <time>2016-03-06T08:46:34Z</time>
      </trkpt>
      <trkpt lat="45.50493" lon="6.60741">
        <ele>1754.06</ele>
        <time>2016-03-06T08:46:48Z</time>
      </trkpt>
      <trkpt lat="45.50489" lon="6.60749">
        <ele>1756.95</ele>
        <time>2016-03-06T08:47:03Z</time>
      </trkpt>
      <trkpt lat="45.50485" lon="6.60761">
        <ele>1759.35</ele>
        <time>2016-03-06T08:47:19Z</time>
      </trkpt>
      <trkpt lat="45.50479" lon="6.60774">
        <ele>1763.2</ele>
        <time>2016-03-06T08:47:37Z</time>
      </trkpt>
      <trkpt lat="45.50472" lon="6.6078">
        <ele>1765.6</ele>
        <time>2016-03-06T08:47:52Z</time>
      </trkpt>
      <trkpt lat="45.50464" lon="6.60788">
        <ele>1768.48</ele>
        <time>2016-03-06T08:48:07Z</time>
      </trkpt>
      <trkpt lat="45.50456" lon="6.60794">
        <ele>1770.89</ele>
        <time>2016-03-06T08:48:22Z</time>
      </trkpt>
      <trkpt lat="45.50446" lon="6.60799">
        <ele>1773.77</ele>
        <time>2016-03-06T08:48:36Z</time>
      </trkpt>
      <trkpt lat="45.50434" lon="6.60805">
        <ele>1776.17</ele>
        <time>2016-03-06T08:48:53Z</time>
      </trkpt>
      <trkpt lat="45.50424" lon="6.60812">
        <ele>1778.58</ele>
        <time>2016-03-06T08:49:12Z</time>
      </trkpt>
      <trkpt lat="45.50416" lon="6.60818">
        <ele>1781.94</ele>
        <time>2016-03-06T08:49:27Z</time>
      </trkpt>
      <trkpt lat="45.50408" lon="6.60828">
        <ele>1784.34</ele>
        <time>2016-03-06T08:49:44Z</time>
      </trkpt>
      <trkpt lat="45.50401" lon="6.60836">
        <ele>1786.27</ele>
        <time>2016-03-06T08:49:56Z</time>
      </trkpt>
      <trkpt lat="45.50395" lon="6.60845">
        <ele>1789.15</ele>
        <time>2016-03-06T08:50:11Z</time>
      </trkpt>
      <trkpt lat="45.50385" lon="6.60854">
        <ele>1792.03</ele>
        <time>2016-03-06T08:50:27Z</time>
      </trkpt>
      <trkpt lat="45.50377" lon="6.60862">
        <ele>1795.4</ele>
        <time>2016-03-06T08:50:43Z</time>
      </trkpt>
      <trkpt lat="45.50371" lon="6.60865">
        <ele>1797.32</ele>
        <time>2016-03-06T08:50:57Z</time>
      </trkpt>
      <trkpt lat="45.50372" lon="6.60868">
        <ele>1797.8</ele>
        <time>2016-03-06T08:51:04Z</time>
      </trkpt>
      <trkpt lat="45.50379" lon="6.60878">
        <ele>1799.73</ele>
        <time>2016-03-06T08:51:23Z</time>
      </trkpt>
      <trkpt lat="45.50376" lon="6.60885">
        <ele>1802.13</ele>
        <time>2016-03-06T08:51:35Z</time>
      </trkpt>
      <trkpt lat="45.50373" lon="6.60891">
        <ele>1804.05</ele>
        <time>2016-03-06T08:51:48Z</time>
      </trkpt>
      <trkpt lat="45.50368" lon="6.60892">
        <ele>1806.45</ele>
        <time>2016-03-06T08:52:02Z</time>
      </trkpt>
      <trkpt lat="45.50359" lon="6.60895">
        <ele>1810.3</ele>
        <time>2016-03-06T08:52:18Z</time>
      </trkpt>
      <trkpt lat="45.50352" lon="6.60895">
        <ele>1812.7</ele>
        <time>2016-03-06T08:52:32Z</time>
      </trkpt>
      <trkpt lat="45.50341" lon="6.60896">
        <ele>1815.59</ele>
        <time>2016-03-06T08:52:46Z</time>
      </trkpt>
      <trkpt lat="45.5033" lon="6.609">
        <ele>1817.99</ele>
        <time>2016-03-06T08:53:01Z</time>
      </trkpt>
      <trkpt lat="45.50319" lon="6.60905">
        <ele>1821.35</ele>
        <time>2016-03-06T08:53:18Z</time>
      </trkpt>
      <trkpt lat="45.50314" lon="6.60913">
        <ele>1824.24</ele>
        <time>2016-03-06T08:53:33Z</time>
      </trkpt>
      <trkpt lat="45.50314" lon="6.60915">
        <ele>1825.2</ele>
        <time>2016-03-06T08:53:47Z</time>
      </trkpt>
      <trkpt lat="45.50308" lon="6.60918">
        <ele>1827.6</ele>
        <time>2016-03-06T08:53:58Z</time>
      </trkpt>
      <trkpt lat="45.50301" lon="6.6092">
        <ele>1830.97</ele>
        <time>2016-03-06T08:54:13Z</time>
      </trkpt>
      <trkpt lat="45.50299" lon="6.60926">
        <ele>1831.93</ele>
        <time>2016-03-06T08:54:25Z</time>
      </trkpt>
      <trkpt lat="45.503" lon="6.6093">
        <ele>1831.93</ele>
        <time>2016-03-06T08:54:41Z</time>
      </trkpt>
      <trkpt lat="45.50289" lon="6.60934">
        <ele>1835.29</ele>
        <time>2016-03-06T08:54:57Z</time>
      </trkpt>
      <trkpt lat="45.50283" lon="6.60943">
        <ele>1837.7</ele>
        <time>2016-03-06T08:55:08Z</time>
      </trkpt>
      <trkpt lat="45.50275" lon="6.6095">
        <ele>1839.62</ele>
        <time>2016-03-06T08:55:23Z</time>
      </trkpt>
      <trkpt lat="45.50271" lon="6.60956">
        <ele>1840.58</ele>
        <time>2016-03-06T08:55:35Z</time>
      </trkpt>
      <trkpt lat="45.50266" lon="6.60956">
        <ele>1841.06</ele>
        <time>2016-03-06T08:55:47Z</time>
      </trkpt>
      <trkpt lat="45.50257" lon="6.60956">
        <ele>1843.95</ele>
        <time>2016-03-06T08:56:00Z</time>
      </trkpt>
      <trkpt lat="45.50248" lon="6.60955">
        <ele>1847.31</ele>
        <time>2016-03-06T08:56:12Z</time>
      </trkpt>
      <trkpt lat="45.50238" lon="6.60958">
        <ele>1850.19</ele>
        <time>2016-03-06T08:56:25Z</time>
      </trkpt>
      <trkpt lat="45.50236" lon="6.60972">
        <ele>1852.12</ele>
        <time>2016-03-06T08:56:40Z</time>
      </trkpt>
      <trkpt lat="45.5023" lon="6.60975">
        <ele>1855</ele>
        <time>2016-03-06T08:56:54Z</time>
      </trkpt>
      <trkpt lat="45.50227" lon="6.60982">
        <ele>1857.89</ele>
        <time>2016-03-06T08:57:07Z</time>
      </trkpt>
      <trkpt lat="45.50229" lon="6.60984">
        <ele>1859.33</ele>
        <time>2016-03-06T08:57:14Z</time>
      </trkpt>
      <trkpt lat="45.50231" lon="6.60996">
        <ele>1862.21</ele>
        <time>2016-03-06T08:57:30Z</time>
      </trkpt>
      <trkpt lat="45.50226" lon="6.61013">
        <ele>1865.09</ele>
        <time>2016-03-06T08:57:49Z</time>
      </trkpt>
      <trkpt lat="45.50221" lon="6.61024">
        <ele>1867.98</ele>
        <time>2016-03-06T08:58:05Z</time>
      </trkpt>
      <trkpt lat="45.50214" lon="6.61029">
        <ele>1870.86</ele>
        <time>2016-03-06T08:58:19Z</time>
      </trkpt>
      <trkpt lat="45.50202" lon="6.61034">
        <ele>1873.75</ele>
        <time>2016-03-06T08:58:35Z</time>
      </trkpt>
      <trkpt lat="45.5019" lon="6.61038">
        <ele>1875.67</ele>
        <time>2016-03-06T08:58:51Z</time>
      </trkpt>
      <trkpt lat="45.50178" lon="6.61044">
        <ele>1879.03</ele>
        <time>2016-03-06T08:59:08Z</time>
      </trkpt>
      <trkpt lat="45.50166" lon="6.6105">
        <ele>1881.44</ele>
        <time>2016-03-06T08:59:23Z</time>
      </trkpt>
      <trkpt lat="45.50154" lon="6.61056">
        <ele>1883.36</ele>
        <time>2016-03-06T08:59:37Z</time>
      </trkpt>
      <trkpt lat="45.50141" lon="6.61059">
        <ele>1885.28</ele>
        <time>2016-03-06T08:59:52Z</time>
      </trkpt>
      <trkpt lat="45.50138" lon="6.61063">
        <ele>1885.76</ele>
        <time>2016-03-06T08:59:58Z</time>
      </trkpt>
      <trkpt lat="45.50135" lon="6.61079">
        <ele>1888.17</ele>
        <time>2016-03-06T09:00:15Z</time>
      </trkpt>
      <trkpt lat="45.50137" lon="6.61091">
        <ele>1890.57</ele>
        <time>2016-03-06T09:00:27Z</time>
      </trkpt>
      <trkpt lat="45.50137" lon="6.61105">
        <ele>1893.45</ele>
        <time>2016-03-06T09:00:43Z</time>
      </trkpt>
      <trkpt lat="45.50135" lon="6.6112">
        <ele>1896.34</ele>
        <time>2016-03-06T09:00:59Z</time>
      </trkpt>
      <trkpt lat="45.50133" lon="6.61136">
        <ele>1899.7</ele>
        <time>2016-03-06T09:01:15Z</time>
      </trkpt>
      <trkpt lat="45.50132" lon="6.61146">
        <ele>1901.14</ele>
        <time>2016-03-06T09:01:30Z</time>
      </trkpt>
      <trkpt lat="45.50132" lon="6.61149">
        <ele>1901.14</ele>
        <time>2016-03-06T09:01:32Z</time>
      </trkpt>
      <trkpt lat="45.50125" lon="6.61168">
        <ele>1903.55</ele>
        <time>2016-03-06T09:01:50Z</time>
      </trkpt>
      <trkpt lat="45.50123" lon="6.6117">
        <ele>1904.03</ele>
        <time>2016-03-06T09:02:05Z</time>
      </trkpt>
      <trkpt lat="45.50124" lon="6.61174">
        <ele>1904.99</ele>
        <time>2016-03-06T09:02:18Z</time>
      </trkpt>
      <trkpt lat="45.50129" lon="6.61188">
        <ele>1907.87</ele>
        <time>2016-03-06T09:02:33Z</time>
      </trkpt>
      <trkpt lat="45.50132" lon="6.61199">
        <ele>1911.24</ele>
        <time>2016-03-06T09:02:47Z</time>
      </trkpt>
      <trkpt lat="45.50135" lon="6.61215">
        <ele>1914.12</ele>
        <time>2016-03-06T09:03:03Z</time>
      </trkpt>
      <trkpt lat="45.50137" lon="6.61229">
        <ele>1917.01</ele>
        <time>2016-03-06T09:03:19Z</time>
      </trkpt>
      <trkpt lat="45.50136" lon="6.61243">
        <ele>1919.89</ele>
        <time>2016-03-06T09:03:35Z</time>
      </trkpt>
      <trkpt lat="45.50134" lon="6.61259">
        <ele>1923.25</ele>
        <time>2016-03-06T09:03:49Z</time>
      </trkpt>
      <trkpt lat="45.50132" lon="6.6127">
        <ele>1925.18</ele>
        <time>2016-03-06T09:04:00Z</time>
      </trkpt>
      <trkpt lat="45.50127" lon="6.61284">
        <ele>1928.54</ele>
        <time>2016-03-06T09:04:16Z</time>
      </trkpt>
      <trkpt lat="45.50124" lon="6.61296">
        <ele>1931.43</ele>
        <time>2016-03-06T09:04:29Z</time>
      </trkpt>
      <trkpt lat="45.50118" lon="6.61309">
        <ele>1934.79</ele>
        <time>2016-03-06T09:04:45Z</time>
      </trkpt>
      <trkpt lat="45.5011" lon="6.61322">
        <ele>1937.67</ele>
        <time>2016-03-06T09:05:02Z</time>
      </trkpt>
      <trkpt lat="45.50101" lon="6.61332">
        <ele>1940.08</ele>
        <time>2016-03-06T09:05:18Z</time>
      </trkpt>
      <trkpt lat="45.50091" lon="6.61343">
        <ele>1942.96</ele>
        <time>2016-03-06T09:05:37Z</time>
      </trkpt>
      <trkpt lat="45.50081" lon="6.61355">
        <ele>1946.33</ele>
        <time>2016-03-06T09:05:54Z</time>
      </trkpt>
      <trkpt lat="45.50074" lon="6.61356">
        <ele>1948.25</ele>
        <time>2016-03-06T09:06:09Z</time>
      </trkpt>
      <trkpt lat="45.50071" lon="6.61357">
        <ele>1949.69</ele>
        <time>2016-03-06T09:06:22Z</time>
      </trkpt>
      <trkpt lat="45.50067" lon="6.61361">
        <ele>1951.13</ele>
        <time>2016-03-06T09:06:33Z</time>
      </trkpt>
      <trkpt lat="45.50065" lon="6.61362">
        <ele>1951.13</ele>
        <time>2016-03-06T09:06:35Z</time>
      </trkpt>
      <trkpt lat="45.50054" lon="6.61372">
        <ele>1954.02</ele>
        <time>2016-03-06T09:06:52Z</time>
      </trkpt>
      <trkpt lat="45.50048" lon="6.61379">
        <ele>1955.46</ele>
        <time>2016-03-06T09:07:01Z</time>
      </trkpt>
      <trkpt lat="45.50041" lon="6.61398">
        <ele>1959.78</ele>
        <time>2016-03-06T09:07:21Z</time>
      </trkpt>
      <trkpt lat="45.50037" lon="6.61415">
        <ele>1962.67</ele>
        <time>2016-03-06T09:07:37Z</time>
      </trkpt>
      <trkpt lat="45.50032" lon="6.61431">
        <ele>1966.03</ele>
        <time>2016-03-06T09:07:53Z</time>
      </trkpt>
      <trkpt lat="45.5003" lon="6.61443">
        <ele>1968.44</ele>
        <time>2016-03-06T09:08:07Z</time>
      </trkpt>
      <trkpt lat="45.50028" lon="6.61455">
        <ele>1971.8</ele>
        <time>2016-03-06T09:08:21Z</time>
      </trkpt>
      <trkpt lat="45.50025" lon="6.61471">
        <ele>1975.17</ele>
        <time>2016-03-06T09:08:37Z</time>
      </trkpt>
      <trkpt lat="45.50024" lon="6.61482">
        <ele>1978.53</ele>
        <time>2016-03-06T09:08:52Z</time>
      </trkpt>
      <trkpt lat="45.50025" lon="6.61496">
        <ele>1981.9</ele>
        <time>2016-03-06T09:09:07Z</time>
      </trkpt>
      <trkpt lat="45.50026" lon="6.61506">
        <ele>1984.78</ele>
        <time>2016-03-06T09:09:22Z</time>
      </trkpt>
      <trkpt lat="45.50027" lon="6.61518">
        <ele>1988.14</ele>
        <time>2016-03-06T09:09:36Z</time>
      </trkpt>
      <trkpt lat="45.5002" lon="6.61523">
        <ele>1990.55</ele>
        <time>2016-03-06T09:09:50Z</time>
      </trkpt>
      <trkpt lat="45.5001" lon="6.61525">
        <ele>1993.43</ele>
        <time>2016-03-06T09:10:04Z</time>
      </trkpt>
      <trkpt lat="45.50006" lon="6.61532">
        <ele>1995.83</ele>
        <time>2016-03-06T09:10:18Z</time>
      </trkpt>
      <trkpt lat="45.50006" lon="6.61532">
        <ele>1995.35</ele>
        <time>2016-03-06T09:10:32Z</time>
      </trkpt>
      <trkpt lat="45.50007" lon="6.6153">
        <ele>1995.35</ele>
        <time>2016-03-06T09:10:49Z</time>
      </trkpt>
      <trkpt lat="45.50006" lon="6.61535">
        <ele>1995.35</ele>
        <time>2016-03-06T09:11:07Z</time>
      </trkpt>
      <trkpt lat="45.50005" lon="6.61535">
        <ele>1995.35</ele>
        <time>2016-03-06T09:11:22Z</time>
      </trkpt>
      <trkpt lat="45.50004" lon="6.61532">
        <ele>1994.87</ele>
        <time>2016-03-06T09:11:38Z</time>
      </trkpt>
      <trkpt lat="45.50006" lon="6.61533">
        <ele>1994.87</ele>
        <time>2016-03-06T09:11:49Z</time>
      </trkpt>
      <trkpt lat="45.50005" lon="6.61532">
        <ele>1994.87</ele>
        <time>2016-03-06T09:12:08Z</time>
      </trkpt>
      <trkpt lat="45.5001" lon="6.61536">
        <ele>1994.87</ele>
        <time>2016-03-06T09:12:22Z</time>
      </trkpt>
      <trkpt lat="45.50012" lon="6.61538">
        <ele>1994.87</ele>
        <time>2016-03-06T09:12:25Z</time>
      </trkpt>
      <trkpt lat="45.50017" lon="6.6154">
        <ele>1994.87</ele>
        <time>2016-03-06T09:12:29Z</time>
      </trkpt>
      <trkpt lat="45.50018" lon="6.61542">
        <ele>1994.87</ele>
        <time>2016-03-06T09:12:41Z</time>
      </trkpt>
      <trkpt lat="45.50017" lon="6.61542">
        <ele>1994.39</ele>
        <time>2016-03-06T09:13:12Z</time>
      </trkpt>
      <trkpt lat="45.50019" lon="6.61541">
        <ele>1994.39</ele>
        <time>2016-03-06T09:13:35Z</time>
      </trkpt>
      <trkpt lat="45.50018" lon="6.61541">
        <ele>1994.39</ele>
        <time>2016-03-06T09:13:56Z</time>
      </trkpt>
      <trkpt lat="45.50019" lon="6.61546">
        <ele>1994.39</ele>
        <time>2016-03-06T09:14:15Z</time>
      </trkpt>
      <trkpt lat="45.50008" lon="6.61548">
        <ele>1994.87</ele>
        <time>2016-03-06T09:14:30Z</time>
      </trkpt>
      <trkpt lat="45.50009" lon="6.61548">
        <ele>1994.39</ele>
        <time>2016-03-06T09:14:47Z</time>
      </trkpt>
      <trkpt lat="45.50007" lon="6.61549">
        <ele>1994.39</ele>
        <time>2016-03-06T09:15:04Z</time>
      </trkpt>
      <trkpt lat="45.50005" lon="6.61549">
        <ele>1994.39</ele>
        <time>2016-03-06T09:15:20Z</time>
      </trkpt>
      <trkpt lat="45.50004" lon="6.61547">
        <ele>1994.39</ele>
        <time>2016-03-06T09:15:44Z</time>
      </trkpt>
      <trkpt lat="45.50003" lon="6.61547">
        <ele>1993.91</ele>
        <time>2016-03-06T09:16:02Z</time>
      </trkpt>
      <trkpt lat="45.50004" lon="6.61549">
        <ele>1993.91</ele>
        <time>2016-03-06T09:16:17Z</time>
      </trkpt>
      <trkpt lat="45.50003" lon="6.61547">
        <ele>1993.91</ele>
        <time>2016-03-06T09:16:30Z</time>
      </trkpt>
      <trkpt lat="45.50002" lon="6.61547">
        <ele>1993.91</ele>
        <time>2016-03-06T09:16:39Z</time>
      </trkpt>
      <trkpt lat="45.50002" lon="6.61547">
        <ele>1993.91</ele>
        <time>2016-03-06T09:17:00Z</time>
      </trkpt>
      <trkpt lat="45.50003" lon="6.6155">
        <ele>1993.91</ele>
        <time>2016-03-06T09:17:23Z</time>
      </trkpt>
      <trkpt lat="45.50003" lon="6.61548">
        <ele>1993.91</ele>
        <time>2016-03-06T09:17:43Z</time>
      </trkpt>
      <trkpt lat="45.50001" lon="6.61549">
        <ele>1993.43</ele>
        <time>2016-03-06T09:18:11Z</time>
      </trkpt>
      <trkpt lat="45.50002" lon="6.61547">
        <ele>1993.43</ele>
        <time>2016-03-06T09:18:35Z</time>
      </trkpt>
      <trkpt lat="45.50004" lon="6.61548">
        <ele>1993.43</ele>
        <time>2016-03-06T09:19:02Z</time>
      </trkpt>
      <trkpt lat="45.50001" lon="6.6155">
        <ele>1993.43</ele>
        <time>2016-03-06T09:19:14Z</time>
      </trkpt>
      <trkpt lat="45.49993" lon="6.61565">
        <ele>1994.39</ele>
        <time>2016-03-06T09:19:28Z</time>
      </trkpt>
      <trkpt lat="45.49988" lon="6.61576">
        <ele>1997.76</ele>
        <time>2016-03-06T09:19:43Z</time>
      </trkpt>
      <trkpt lat="45.49982" lon="6.61589">
        <ele>1999.68</ele>
        <time>2016-03-06T09:20:00Z</time>
      </trkpt>
      <trkpt lat="45.49978" lon="6.61599">
        <ele>2002.56</ele>
        <time>2016-03-06T09:20:16Z</time>
      </trkpt>
      <trkpt lat="45.49977" lon="6.61607">
        <ele>2004.49</ele>
        <time>2016-03-06T09:20:28Z</time>
      </trkpt>
      <trkpt lat="45.4998" lon="6.61618">
        <ele>2005.93</ele>
        <time>2016-03-06T09:20:43Z</time>
      </trkpt>
      <trkpt lat="45.4998" lon="6.6162">
        <ele>2006.89</ele>
        <time>2016-03-06T09:20:47Z</time>
      </trkpt>
      <trkpt lat="45.49977" lon="6.61623">
        <ele>2008.33</ele>
        <time>2016-03-06T09:20:56Z</time>
      </trkpt>
      <trkpt lat="45.49969" lon="6.61625">
        <ele>2010.73</ele>
        <time>2016-03-06T09:21:12Z</time>
      </trkpt>
      <trkpt lat="45.49959" lon="6.61628">
        <ele>2014.1</ele>
        <time>2016-03-06T09:21:28Z</time>
      </trkpt>
      <trkpt lat="45.49953" lon="6.61631">
        <ele>2016.98</ele>
        <time>2016-03-06T09:21:42Z</time>
      </trkpt>
      <trkpt lat="45.49951" lon="6.61635">
        <ele>2017.94</ele>
        <time>2016-03-06T09:22:00Z</time>
      </trkpt>
      <trkpt lat="45.49954" lon="6.61641">
        <ele>2019.87</ele>
        <time>2016-03-06T09:22:13Z</time>
      </trkpt>
      <trkpt lat="45.49959" lon="6.61648">
        <ele>2022.27</ele>
        <time>2016-03-06T09:22:27Z</time>
      </trkpt>
      <trkpt lat="45.49961" lon="6.6165">
        <ele>2023.71</ele>
        <time>2016-03-06T09:22:41Z</time>
      </trkpt>
      <trkpt lat="45.4996" lon="6.61652">
        <ele>2023.71</ele>
        <time>2016-03-06T09:23:03Z</time>
      </trkpt>
      <trkpt lat="45.49961" lon="6.61654">
        <ele>2023.71</ele>
        <time>2016-03-06T09:23:06Z</time>
      </trkpt>
      <trkpt lat="45.49972" lon="6.61667">
        <ele>2025.64</ele>
        <time>2016-03-06T09:23:23Z</time>
      </trkpt>
      <trkpt lat="45.49975" lon="6.61671">
        <ele>2026.6</ele>
        <time>2016-03-06T09:23:44Z</time>
      </trkpt>
      <trkpt lat="45.49984" lon="6.61685">
        <ele>2029.96</ele>
        <time>2016-03-06T09:23:59Z</time>
      </trkpt>
      <trkpt lat="45.4998" lon="6.61693">
        <ele>2032.36</ele>
        <time>2016-03-06T09:24:10Z</time>
      </trkpt>
      <trkpt lat="45.49971" lon="6.61695">
        <ele>2035.73</ele>
        <time>2016-03-06T09:24:24Z</time>
      </trkpt>
      <trkpt lat="45.49967" lon="6.61695">
        <ele>2037.65</ele>
        <time>2016-03-06T09:24:38Z</time>
      </trkpt>
      <trkpt lat="45.49971" lon="6.61703">
        <ele>2039.57</ele>
        <time>2016-03-06T09:24:48Z</time>
      </trkpt>
      <trkpt lat="45.4998" lon="6.61716">
        <ele>2041.5</ele>
        <time>2016-03-06T09:25:03Z</time>
      </trkpt>
      <trkpt lat="45.49979" lon="6.61718">
        <ele>2042.46</ele>
        <time>2016-03-06T09:25:14Z</time>
      </trkpt>
      <trkpt lat="45.49971" lon="6.61718">
        <ele>2045.82</ele>
        <time>2016-03-06T09:25:27Z</time>
      </trkpt>
      <trkpt lat="45.49965" lon="6.61717">
        <ele>2048.23</ele>
        <time>2016-03-06T09:25:40Z</time>
      </trkpt>
      <trkpt lat="45.49957" lon="6.61719">
        <ele>2051.59</ele>
        <time>2016-03-06T09:25:53Z</time>
      </trkpt>
      <trkpt lat="45.49948" lon="6.61719">
        <ele>2054.47</ele>
        <time>2016-03-06T09:26:06Z</time>
      </trkpt>
      <trkpt lat="45.49939" lon="6.61721">
        <ele>2057.84</ele>
        <time>2016-03-06T09:26:21Z</time>
      </trkpt>
      <trkpt lat="45.49932" lon="6.61722">
        <ele>2061.2</ele>
        <time>2016-03-06T09:26:36Z</time>
      </trkpt>
      <trkpt lat="45.49937" lon="6.61733">
        <ele>2063.13</ele>
        <time>2016-03-06T09:26:49Z</time>
      </trkpt>
      <trkpt lat="45.4994" lon="6.61741">
        <ele>2066.49</ele>
        <time>2016-03-06T09:27:05Z</time>
      </trkpt>
      <trkpt lat="45.49936" lon="6.61743">
        <ele>2068.41</ele>
        <time>2016-03-06T09:27:16Z</time>
      </trkpt>
      <trkpt lat="45.49936" lon="6.61743">
        <ele>2068.41</ele>
        <time>2016-03-06T09:27:18Z</time>
      </trkpt>
      <trkpt lat="45.49938" lon="6.61746">
        <ele>2068.89</ele>
        <time>2016-03-06T09:27:22Z</time>
      </trkpt>
      <trkpt lat="45.49943" lon="6.61756">
        <ele>2071.3</ele>
        <time>2016-03-06T09:27:36Z</time>
      </trkpt>
      <trkpt lat="45.49945" lon="6.61763">
        <ele>2074.66</ele>
        <time>2016-03-06T09:27:49Z</time>
      </trkpt>
      <trkpt lat="45.49949" lon="6.61771">
        <ele>2077.07</ele>
        <time>2016-03-06T09:28:03Z</time>
      </trkpt>
      <trkpt lat="45.49941" lon="6.61769">
        <ele>2078.03</ele>
        <time>2016-03-06T09:28:17Z</time>
      </trkpt>
      <trkpt lat="45.49934" lon="6.61765">
        <ele>2078.99</ele>
        <time>2016-03-06T09:28:25Z</time>
      </trkpt>
      <trkpt lat="45.49917" lon="6.61754">
        <ele>2080.91</ele>
        <time>2016-03-06T09:28:43Z</time>
      </trkpt>
      <trkpt lat="45.49901" lon="6.6175">
        <ele>2082.35</ele>
        <time>2016-03-06T09:28:58Z</time>
      </trkpt>
      <trkpt lat="45.49891" lon="6.61749">
        <ele>2084.76</ele>
        <time>2016-03-06T09:29:10Z</time>
      </trkpt>
      <trkpt lat="45.49872" lon="6.61748">
        <ele>2086.2</ele>
        <time>2016-03-06T09:29:27Z</time>
      </trkpt>
      <trkpt lat="45.49853" lon="6.61742">
        <ele>2087.16</ele>
        <time>2016-03-06T09:29:45Z</time>
      </trkpt>
      <trkpt lat="45.49837" lon="6.61738">
        <ele>2089.08</ele>
        <time>2016-03-06T09:30:01Z</time>
      </trkpt>
      <trkpt lat="45.49817" lon="6.61737">
        <ele>2091.49</ele>
        <time>2016-03-06T09:30:19Z</time>
      </trkpt>
      <trkpt lat="45.49802" lon="6.61732">
        <ele>2094.37</ele>
        <time>2016-03-06T09:30:38Z</time>
      </trkpt>
      <trkpt lat="45.49788" lon="6.61725">
        <ele>2096.29</ele>
        <time>2016-03-06T09:30:53Z</time>
      </trkpt>
      <trkpt lat="45.49774" lon="6.61719">
        <ele>2096.77</ele>
        <time>2016-03-06T09:31:06Z</time>
      </trkpt>
      <trkpt lat="45.49771" lon="6.61716">
        <ele>2097.73</ele>
        <time>2016-03-06T09:31:19Z</time>
      </trkpt>
      <trkpt lat="45.49767" lon="6.61713">
        <ele>2098.21</ele>
        <time>2016-03-06T09:31:38Z</time>
      </trkpt>
      <trkpt lat="45.49763" lon="6.61711">
        <ele>2098.7</ele>
        <time>2016-03-06T09:31:53Z</time>
      </trkpt>
      <trkpt lat="45.49756" lon="6.6171">
        <ele>2098.7</ele>
        <time>2016-03-06T09:32:10Z</time>
      </trkpt>
      <trkpt lat="45.49754" lon="6.6171">
        <ele>2098.7</ele>
        <time>2016-03-06T09:32:44Z</time>
      </trkpt>
      <trkpt lat="45.49753" lon="6.6171">
        <ele>2098.7</ele>
        <time>2016-03-06T09:33:05Z</time>
      </trkpt>
      <trkpt lat="45.49739" lon="6.61709">
        <ele>2100.14</ele>
        <time>2016-03-06T09:33:21Z</time>
      </trkpt>
      <trkpt lat="45.49726" lon="6.61704">
        <ele>2102.54</ele>
        <time>2016-03-06T09:33:37Z</time>
      </trkpt>
      <trkpt lat="45.49718" lon="6.617">
        <ele>2103.5</ele>
        <time>2016-03-06T09:33:47Z</time>
      </trkpt>
      <trkpt lat="45.49707" lon="6.61697">
        <ele>2104.94</ele>
        <time>2016-03-06T09:33:59Z</time>
      </trkpt>
      <trkpt lat="45.49692" lon="6.61689">
        <ele>2106.39</ele>
        <time>2016-03-06T09:34:15Z</time>
      </trkpt>
      <trkpt lat="45.49677" lon="6.6168">
        <ele>2108.79</ele>
        <time>2016-03-06T09:34:37Z</time>
      </trkpt>
      <trkpt lat="45.49665" lon="6.61677">
        <ele>2110.71</ele>
        <time>2016-03-06T09:34:53Z</time>
      </trkpt>
      <trkpt lat="45.49657" lon="6.61678">
        <ele>2112.63</ele>
        <time>2016-03-06T09:35:07Z</time>
      </trkpt>
      <trkpt lat="45.49658" lon="6.61682">
        <ele>2114.56</ele>
        <time>2016-03-06T09:35:21Z</time>
      </trkpt>
      <trkpt lat="45.49659" lon="6.61686">
        <ele>2115.04</ele>
        <time>2016-03-06T09:35:41Z</time>
      </trkpt>
      <trkpt lat="45.49666" lon="6.617">
        <ele>2118.4</ele>
        <time>2016-03-06T09:35:55Z</time>
      </trkpt>
      <trkpt lat="45.49662" lon="6.61705">
        <ele>2119.84</ele>
        <time>2016-03-06T09:36:06Z</time>
      </trkpt>
      <trkpt lat="45.4966" lon="6.61707">
        <ele>2120.32</ele>
        <time>2016-03-06T09:36:08Z</time>
      </trkpt>
      <trkpt lat="45.49652" lon="6.61712">
        <ele>2123.69</ele>
        <time>2016-03-06T09:36:23Z</time>
      </trkpt>
      <trkpt lat="45.49646" lon="6.61713">
        <ele>2125.61</ele>
        <time>2016-03-06T09:36:40Z</time>
      </trkpt>
      <trkpt lat="45.49638" lon="6.61715">
        <ele>2128.5</ele>
        <time>2016-03-06T09:36:56Z</time>
      </trkpt>
      <trkpt lat="45.49641" lon="6.61728">
        <ele>2130.9</ele>
        <time>2016-03-06T09:37:12Z</time>
      </trkpt>
      <trkpt lat="45.49642" lon="6.61731">
        <ele>2131.86</ele>
        <time>2016-03-06T09:37:24Z</time>
      </trkpt>
      <trkpt lat="45.49642" lon="6.61735">
        <ele>2133.3</ele>
        <time>2016-03-06T09:37:35Z</time>
      </trkpt>
      <trkpt lat="45.49641" lon="6.61735">
        <ele>2133.78</ele>
        <time>2016-03-06T09:37:36Z</time>
      </trkpt>
      <trkpt lat="45.49635" lon="6.61735">
        <ele>2134.74</ele>
        <time>2016-03-06T09:37:52Z</time>
      </trkpt>
      <trkpt lat="45.49633" lon="6.61735">
        <ele>2135.23</ele>
        <time>2016-03-06T09:38:06Z</time>
      </trkpt>
      <trkpt lat="45.49628" lon="6.61734">
        <ele>2136.19</ele>
        <time>2016-03-06T09:38:19Z</time>
      </trkpt>
      <trkpt lat="45.49626" lon="6.61733">
        <ele>2137.63</ele>
        <time>2016-03-06T09:38:23Z</time>
      </trkpt>
      <trkpt lat="45.49624" lon="6.61741">
        <ele>2140.03</ele>
        <time>2016-03-06T09:38:36Z</time>
      </trkpt>
      <trkpt lat="45.49624" lon="6.61752">
        <ele>2143.4</ele>
        <time>2016-03-06T09:38:52Z</time>
      </trkpt>
      <trkpt lat="45.49624" lon="6.61762">
        <ele>2145.32</ele>
        <time>2016-03-06T09:39:09Z</time>
      </trkpt>
      <trkpt lat="45.49625" lon="6.61772">
        <ele>2147.24</ele>
        <time>2016-03-06T09:39:30Z</time>
      </trkpt>
      <trkpt lat="45.49624" lon="6.61773">
        <ele>2147.24</ele>
        <time>2016-03-06T09:39:31Z</time>
      </trkpt>
      <trkpt lat="45.49617" lon="6.61784">
        <ele>2150.13</ele>
        <time>2016-03-06T09:39:47Z</time>
      </trkpt>
      <trkpt lat="45.4961" lon="6.61793">
        <ele>2153.49</ele>
        <time>2016-03-06T09:40:05Z</time>
      </trkpt>
      <trkpt lat="45.49602" lon="6.61802">
        <ele>2156.37</ele>
        <time>2016-03-06T09:40:19Z</time>
      </trkpt>
      <trkpt lat="45.49597" lon="6.61817">
        <ele>2159.74</ele>
        <time>2016-03-06T09:40:37Z</time>
      </trkpt>
      <trkpt lat="45.49603" lon="6.6183">
        <ele>2162.62</ele>
        <time>2016-03-06T09:40:56Z</time>
      </trkpt>
      <trkpt lat="45.49603" lon="6.61832">
        <ele>2162.14</ele>
        <time>2016-03-06T09:40:58Z</time>
      </trkpt>
      <trkpt lat="45.49613" lon="6.61845">
        <ele>2165.51</ele>
        <time>2016-03-06T09:41:14Z</time>
      </trkpt>
      <trkpt lat="45.49621" lon="6.61858">
        <ele>2168.87</ele>
        <time>2016-03-06T09:41:30Z</time>
      </trkpt>
      <trkpt lat="45.49628" lon="6.6187">
        <ele>2171.27</ele>
        <time>2016-03-06T09:41:46Z</time>
      </trkpt>
      <trkpt lat="45.49635" lon="6.61884">
        <ele>2174.16</ele>
        <time>2016-03-06T09:42:04Z</time>
      </trkpt>
      <trkpt lat="45.49641" lon="6.61897">
        <ele>2177.04</ele>
        <time>2016-03-06T09:42:21Z</time>
      </trkpt>
      <trkpt lat="45.49648" lon="6.6191">
        <ele>2180.41</ele>
        <time>2016-03-06T09:42:37Z</time>
      </trkpt>
      <trkpt lat="45.4965" lon="6.6192">
        <ele>2182.81</ele>
        <time>2016-03-06T09:42:51Z</time>
      </trkpt>
      <trkpt lat="45.49647" lon="6.61931">
        <ele>2183.77</ele>
        <time>2016-03-06T09:43:00Z</time>
      </trkpt>
      <trkpt lat="45.49638" lon="6.61948">
        <ele>2187.14</ele>
        <time>2016-03-06T09:43:21Z</time>
      </trkpt>
      <trkpt lat="45.49636" lon="6.61961">
        <ele>2189.54</ele>
        <time>2016-03-06T09:43:35Z</time>
      </trkpt>
      <trkpt lat="45.49637" lon="6.61965">
        <ele>2190.02</ele>
        <time>2016-03-06T09:43:39Z</time>
      </trkpt>
      <trkpt lat="45.49643" lon="6.61988">
        <ele>2192.42</ele>
        <time>2016-03-06T09:43:56Z</time>
      </trkpt>
      <trkpt lat="45.49647" lon="6.62005">
        <ele>2193.87</ele>
        <time>2016-03-06T09:44:11Z</time>
      </trkpt>
      <trkpt lat="45.49648" lon="6.62027">
        <ele>2194.35</ele>
        <time>2016-03-06T09:44:26Z</time>
      </trkpt>
      <trkpt lat="45.49648" lon="6.62047">
        <ele>2196.75</ele>
        <time>2016-03-06T09:44:42Z</time>
      </trkpt>
      <trkpt lat="45.49646" lon="6.62058">
        <ele>2198.67</ele>
        <time>2016-03-06T09:44:57Z</time>
      </trkpt>
      <trkpt lat="45.49646" lon="6.62058">
        <ele>2198.67</ele>
        <time>2016-03-06T09:45:17Z</time>
      </trkpt>
      <trkpt lat="45.49647" lon="6.62056">
        <ele>2198.67</ele>
        <time>2016-03-06T09:45:31Z</time>
      </trkpt>
      <trkpt lat="45.49647" lon="6.62055">
        <ele>2198.67</ele>
        <time>2016-03-06T09:45:48Z</time>
      </trkpt>
      <trkpt lat="45.49645" lon="6.62055">
        <ele>2198.67</ele>
        <time>2016-03-06T09:46:06Z</time>
      </trkpt>
      <trkpt lat="45.49644" lon="6.62056">
        <ele>2198.67</ele>
        <time>2016-03-06T09:46:29Z</time>
      </trkpt>
      <trkpt lat="45.49645" lon="6.62055">
        <ele>2198.19</ele>
        <time>2016-03-06T09:46:49Z</time>
      </trkpt>
      <trkpt lat="45.49645" lon="6.62056">
        <ele>2198.19</ele>
        <time>2016-03-06T09:47:09Z</time>
      </trkpt>
      <trkpt lat="45.49648" lon="6.62057">
        <ele>2198.19</ele>
        <time>2016-03-06T09:47:28Z</time>
      </trkpt>
      <trkpt lat="45.4965" lon="6.62061">
        <ele>2197.71</ele>
        <time>2016-03-06T09:47:55Z</time>
      </trkpt>
      <trkpt lat="45.49646" lon="6.62062">
        <ele>2197.71</ele>
        <time>2016-03-06T09:48:18Z</time>
      </trkpt>
      <trkpt lat="45.49646" lon="6.6207">
        <ele>2198.19</ele>
        <time>2016-03-06T09:48:36Z</time>
      </trkpt>
      <trkpt lat="45.49644" lon="6.62096">
        <ele>2201.08</ele>
        <time>2016-03-06T09:48:55Z</time>
      </trkpt>
      <trkpt lat="45.4964" lon="6.62109">
        <ele>2203.96</ele>
        <time>2016-03-06T09:49:07Z</time>
      </trkpt>
      <trkpt lat="45.49633" lon="6.62125">
        <ele>2206.84</ele>
        <time>2016-03-06T09:49:23Z</time>
      </trkpt>
      <trkpt lat="45.49627" lon="6.62135">
        <ele>2210.21</ele>
        <time>2016-03-06T09:49:36Z</time>
      </trkpt>
      <trkpt lat="45.49621" lon="6.62149">
        <ele>2213.57</ele>
        <time>2016-03-06T09:49:51Z</time>
      </trkpt>
      <trkpt lat="45.49617" lon="6.62155">
        <ele>2215.01</ele>
        <time>2016-03-06T09:49:59Z</time>
      </trkpt>
      <trkpt lat="45.49611" lon="6.62168">
        <ele>2218.38</ele>
        <time>2016-03-06T09:50:13Z</time>
      </trkpt>
      <trkpt lat="45.49604" lon="6.6218">
        <ele>2221.74</ele>
        <time>2016-03-06T09:50:30Z</time>
      </trkpt>
      <trkpt lat="45.49598" lon="6.62186">
        <ele>2223.67</ele>
        <time>2016-03-06T09:50:46Z</time>
      </trkpt>
      <trkpt lat="45.49594" lon="6.62194">
        <ele>2225.59</ele>
        <time>2016-03-06T09:50:58Z</time>
      </trkpt>
      <trkpt lat="45.49589" lon="6.62202">
        <ele>2228.95</ele>
        <time>2016-03-06T09:51:10Z</time>
      </trkpt>
      <trkpt lat="45.49584" lon="6.62219">
        <ele>2232.32</ele>
        <time>2016-03-06T09:51:25Z</time>
      </trkpt>
      <trkpt lat="45.49581" lon="6.62239">
        <ele>2235.68</ele>
        <time>2016-03-06T09:51:45Z</time>
      </trkpt>
      <trkpt lat="45.49575" lon="6.62251">
        <ele>2239.05</ele>
        <time>2016-03-06T09:51:59Z</time>
      </trkpt>
      <trkpt lat="45.49575" lon="6.6226">
        <ele>2241.93</ele>
        <time>2016-03-06T09:52:11Z</time>
      </trkpt>
      <trkpt lat="45.49575" lon="6.62275">
        <ele>2244.82</ele>
        <time>2016-03-06T09:52:24Z</time>
      </trkpt>
      <trkpt lat="45.49571" lon="6.6229">
        <ele>2248.18</ele>
        <time>2016-03-06T09:52:40Z</time>
      </trkpt>
      <trkpt lat="45.49567" lon="6.62304">
        <ele>2249.62</ele>
        <time>2016-03-06T09:52:56Z</time>
      </trkpt>
      <trkpt lat="45.49568" lon="6.62304">
        <ele>2249.62</ele>
        <time>2016-03-06T09:53:16Z</time>
      </trkpt>
      <trkpt lat="45.49565" lon="6.62307">
        <ele>2250.1</ele>
        <time>2016-03-06T09:53:29Z</time>
      </trkpt>
      <trkpt lat="45.49566" lon="6.62309">
        <ele>2250.1</ele>
        <time>2016-03-06T09:53:40Z</time>
      </trkpt>
      <trkpt lat="45.49564" lon="6.6231">
        <ele>2250.1</ele>
        <time>2016-03-06T09:53:55Z</time>
      </trkpt>
      <trkpt lat="45.49565" lon="6.62313">
        <ele>2250.1</ele>
        <time>2016-03-06T09:54:06Z</time>
      </trkpt>
      <trkpt lat="45.49565" lon="6.62314">
        <ele>2250.1</ele>
        <time>2016-03-06T09:54:07Z</time>
      </trkpt>
      <trkpt lat="45.49561" lon="6.62324">
        <ele>2249.14</ele>
        <time>2016-03-06T09:54:12Z</time>
      </trkpt>
      <trkpt lat="45.49556" lon="6.62346">
        <ele>2250.1</ele>
        <time>2016-03-06T09:54:28Z</time>
      </trkpt>
      <trkpt lat="45.49548" lon="6.62367">
        <ele>2251.06</ele>
        <time>2016-03-06T09:54:43Z</time>
      </trkpt>
      <trkpt lat="45.49544" lon="6.62394">
        <ele>2251.54</ele>
        <time>2016-03-06T09:55:01Z</time>
      </trkpt>
      <trkpt lat="45.49542" lon="6.62415">
        <ele>2252.51</ele>
        <time>2016-03-06T09:55:17Z</time>
      </trkpt>
      <trkpt lat="45.49539" lon="6.62434">
        <ele>2254.43</ele>
        <time>2016-03-06T09:55:31Z</time>
      </trkpt>
      <trkpt lat="45.49535" lon="6.62448">
        <ele>2257.79</ele>
        <time>2016-03-06T09:55:46Z</time>
      </trkpt>
      <trkpt lat="45.4953" lon="6.62458">
        <ele>2260.68</ele>
        <time>2016-03-06T09:56:00Z</time>
      </trkpt>
      <trkpt lat="45.49524" lon="6.62469">
        <ele>2264.04</ele>
        <time>2016-03-06T09:56:14Z</time>
      </trkpt>
      <trkpt lat="45.49519" lon="6.62477">
        <ele>2265.96</ele>
        <time>2016-03-06T09:56:25Z</time>
      </trkpt>
      <trkpt lat="45.49515" lon="6.62482">
        <ele>2266.45</ele>
        <time>2016-03-06T09:56:31Z</time>
      </trkpt>
      <trkpt lat="45.49509" lon="6.62492">
        <ele>2265.96</ele>
        <time>2016-03-06T09:56:40Z</time>
      </trkpt>
      <trkpt lat="45.49501" lon="6.62513">
        <ele>2266.93</ele>
        <time>2016-03-06T09:56:56Z</time>
      </trkpt>
      <trkpt lat="45.49495" lon="6.62535">
        <ele>2267.89</ele>
        <time>2016-03-06T09:57:12Z</time>
      </trkpt>
      <trkpt lat="45.49491" lon="6.62543">
        <ele>2271.25</ele>
        <time>2016-03-06T09:57:25Z</time>
      </trkpt>
      <trkpt lat="45.49485" lon="6.62556">
        <ele>2274.62</ele>
        <time>2016-03-06T09:57:39Z</time>
      </trkpt>
      <trkpt lat="45.49479" lon="6.62568">
        <ele>2276.54</ele>
        <time>2016-03-06T09:57:53Z</time>
      </trkpt>
      <trkpt lat="45.49474" lon="6.62577">
        <ele>2279.9</ele>
        <time>2016-03-06T09:58:05Z</time>
      </trkpt>
      <trkpt lat="45.49469" lon="6.62591">
        <ele>2282.31</ele>
        <time>2016-03-06T09:58:18Z</time>
      </trkpt>
      <trkpt lat="45.49465" lon="6.62612">
        <ele>2285.19</ele>
        <time>2016-03-06T09:58:36Z</time>
      </trkpt>
      <trkpt lat="45.49458" lon="6.62633">
        <ele>2288.56</ele>
        <time>2016-03-06T09:58:56Z</time>
      </trkpt>
      <trkpt lat="45.49453" lon="6.62646">
        <ele>2291.92</ele>
        <time>2016-03-06T09:59:09Z</time>
      </trkpt>
      <trkpt lat="45.49452" lon="6.62663">
        <ele>2294.32</ele>
        <time>2016-03-06T09:59:25Z</time>
      </trkpt>
      <trkpt lat="45.49453" lon="6.62678">
        <ele>2297.69</ele>
        <time>2016-03-06T09:59:38Z</time>
      </trkpt>
      <trkpt lat="45.49457" lon="6.62694">
        <ele>2301.05</ele>
        <time>2016-03-06T09:59:56Z</time>
      </trkpt>
      <trkpt lat="45.49458" lon="6.627">
        <ele>2301.53</ele>
        <time>2016-03-06T10:00:01Z</time>
      </trkpt>
      <trkpt lat="45.49462" lon="6.62722">
        <ele>2303.94</ele>
        <time>2016-03-06T10:00:20Z</time>
      </trkpt>
      <trkpt lat="45.49461" lon="6.62735">
        <ele>2307.78</ele>
        <time>2016-03-06T10:00:35Z</time>
      </trkpt>
      <trkpt lat="45.49461" lon="6.62754">
        <ele>2311.15</ele>
        <time>2016-03-06T10:00:51Z</time>
      </trkpt>
      <trkpt lat="45.49463" lon="6.6277">
        <ele>2313.55</ele>
        <time>2016-03-06T10:01:07Z</time>
      </trkpt>
      <trkpt lat="45.49468" lon="6.62791">
        <ele>2315.95</ele>
        <time>2016-03-06T10:01:24Z</time>
      </trkpt>
      <trkpt lat="45.4947" lon="6.62798">
        <ele>2316.43</ele>
        <time>2016-03-06T10:01:29Z</time>
      </trkpt>
      <trkpt lat="45.49477" lon="6.62817">
        <ele>2314.99</ele>
        <time>2016-03-06T10:01:41Z</time>
      </trkpt>
      <trkpt lat="45.49484" lon="6.62835">
        <ele>2316.91</ele>
        <time>2016-03-06T10:01:57Z</time>
      </trkpt>
      <trkpt lat="45.49491" lon="6.62856">
        <ele>2318.84</ele>
        <time>2016-03-06T10:02:13Z</time>
      </trkpt>
      <trkpt lat="45.49497" lon="6.62875">
        <ele>2320.76</ele>
        <time>2016-03-06T10:02:28Z</time>
      </trkpt>
      <trkpt lat="45.49499" lon="6.62883">
        <ele>2321.24</ele>
        <time>2016-03-06T10:02:34Z</time>
      </trkpt>
      <trkpt lat="45.49505" lon="6.62906">
        <ele>2323.16</ele>
        <time>2016-03-06T10:02:50Z</time>
      </trkpt>
      <trkpt lat="45.49509" lon="6.62925">
        <ele>2324.12</ele>
        <time>2016-03-06T10:03:04Z</time>
      </trkpt>
      <trkpt lat="45.49517" lon="6.62943">
        <ele>2327.49</ele>
        <time>2016-03-06T10:03:22Z</time>
      </trkpt>
      <trkpt lat="45.49525" lon="6.62962">
        <ele>2330.37</ele>
        <time>2016-03-06T10:03:40Z</time>
      </trkpt>
      <trkpt lat="45.49528" lon="6.62971">
        <ele>2331.33</ele>
        <time>2016-03-06T10:03:49Z</time>
      </trkpt>
      <trkpt lat="45.49534" lon="6.62984">
        <ele>2333.74</ele>
        <time>2016-03-06T10:04:01Z</time>
      </trkpt>
      <trkpt lat="45.49545" lon="6.62989">
        <ele>2337.1</ele>
        <time>2016-03-06T10:04:16Z</time>
      </trkpt>
      <trkpt lat="45.49551" lon="6.62997">
        <ele>2339.51</ele>
        <time>2016-03-06T10:04:29Z</time>
      </trkpt>
      <trkpt lat="45.49557" lon="6.63002">
        <ele>2341.91</ele>
        <time>2016-03-06T10:04:40Z</time>
      </trkpt>
      <trkpt lat="45.49565" lon="6.63006">
        <ele>2344.79</ele>
        <time>2016-03-06T10:04:54Z</time>
      </trkpt>
      <trkpt lat="45.49566" lon="6.63015">
        <ele>2347.68</ele>
        <time>2016-03-06T10:05:07Z</time>
      </trkpt>
      <trkpt lat="45.49574" lon="6.63022">
        <ele>2350.56</ele>
        <time>2016-03-06T10:05:20Z</time>
      </trkpt>
      <trkpt lat="45.49577" lon="6.63032">
        <ele>2353.44</ele>
        <time>2016-03-06T10:05:35Z</time>
      </trkpt>
      <trkpt lat="45.49583" lon="6.6304">
        <ele>2356.81</ele>
        <time>2016-03-06T10:05:48Z</time>
      </trkpt>
      <trkpt lat="45.49588" lon="6.63052">
        <ele>2359.69</ele>
        <time>2016-03-06T10:06:03Z</time>
      </trkpt>
      <trkpt lat="45.49588" lon="6.63053">
        <ele>2359.69</ele>
        <time>2016-03-06T10:06:04Z</time>
      </trkpt>
      <trkpt lat="45.4959" lon="6.63072">
        <ele>2363.06</ele>
        <time>2016-03-06T10:06:21Z</time>
      </trkpt>
      <trkpt lat="45.49591" lon="6.63088">
        <ele>2365.94</ele>
        <time>2016-03-06T10:06:36Z</time>
      </trkpt>
      <trkpt lat="45.49591" lon="6.63104">
        <ele>2368.83</ele>
        <time>2016-03-06T10:06:50Z</time>
      </trkpt>
      <trkpt lat="45.4959" lon="6.63115">
        <ele>2372.19</ele>
        <time>2016-03-06T10:07:02Z</time>
      </trkpt>
      <trkpt lat="45.49588" lon="6.63135">
        <ele>2374.59</ele>
        <time>2016-03-06T10:07:19Z</time>
      </trkpt>
      <trkpt lat="45.49586" lon="6.63159">
        <ele>2376.04</ele>
        <time>2016-03-06T10:07:36Z</time>
      </trkpt>
      <trkpt lat="45.49579" lon="6.63176">
        <ele>2375.55</ele>
        <time>2016-03-06T10:07:49Z</time>
      </trkpt>
      <trkpt lat="45.4957" lon="6.63188">
        <ele>2377.96</ele>
        <time>2016-03-06T10:08:07Z</time>
      </trkpt>
      <trkpt lat="45.49568" lon="6.6319">
        <ele>2378.44</ele>
        <time>2016-03-06T10:08:09Z</time>
      </trkpt>
      <trkpt lat="45.49555" lon="6.6321">
        <ele>2379.88</ele>
        <time>2016-03-06T10:08:27Z</time>
      </trkpt>
      <trkpt lat="45.49541" lon="6.63229">
        <ele>2379.4</ele>
        <time>2016-03-06T10:08:43Z</time>
      </trkpt>
      <trkpt lat="45.49528" lon="6.6325">
        <ele>2379.4</ele>
        <time>2016-03-06T10:09:00Z</time>
      </trkpt>
      <trkpt lat="45.49523" lon="6.63259">
        <ele>2380.84</ele>
        <time>2016-03-06T10:09:11Z</time>
      </trkpt>
      <trkpt lat="45.49517" lon="6.63272">
        <ele>2383.73</ele>
        <time>2016-03-06T10:09:27Z</time>
      </trkpt>
      <trkpt lat="45.49506" lon="6.63285">
        <ele>2387.09</ele>
        <time>2016-03-06T10:09:45Z</time>
      </trkpt>
      <trkpt lat="45.49499" lon="6.63293">
        <ele>2390.46</ele>
        <time>2016-03-06T10:09:59Z</time>
      </trkpt>
      <trkpt lat="45.4949" lon="6.63304">
        <ele>2393.82</ele>
        <time>2016-03-06T10:10:16Z</time>
      </trkpt>
      <trkpt lat="45.4948" lon="6.63318">
        <ele>2396.22</ele>
        <time>2016-03-06T10:10:33Z</time>
      </trkpt>
      <trkpt lat="45.4947" lon="6.63336">
        <ele>2399.59</ele>
        <time>2016-03-06T10:10:52Z</time>
      </trkpt>
      <trkpt lat="45.49468" lon="6.63343">
        <ele>2400.55</ele>
        <time>2016-03-06T10:11:05Z</time>
      </trkpt>
      <trkpt lat="45.49472" lon="6.63344">
        <ele>2401.03</ele>
        <time>2016-03-06T10:11:16Z</time>
      </trkpt>
      <trkpt lat="45.49484" lon="6.63344">
        <ele>2404.39</ele>
        <time>2016-03-06T10:11:33Z</time>
      </trkpt>
      <trkpt lat="45.49491" lon="6.63349">
        <ele>2406.8</ele>
        <time>2016-03-06T10:11:47Z</time>
      </trkpt>
      <trkpt lat="45.49497" lon="6.63356">
        <ele>2409.68</ele>
        <time>2016-03-06T10:11:58Z</time>
      </trkpt>
      <trkpt lat="45.49507" lon="6.63361">
        <ele>2413.05</ele>
        <time>2016-03-06T10:12:15Z</time>
      </trkpt>
      <trkpt lat="45.49515" lon="6.6337">
        <ele>2416.41</ele>
        <time>2016-03-06T10:12:31Z</time>
      </trkpt>
      <trkpt lat="45.49519" lon="6.63374">
        <ele>2417.37</ele>
        <time>2016-03-06T10:12:38Z</time>
      </trkpt>
      <trkpt lat="45.49527" lon="6.63379">
        <ele>2419.78</ele>
        <time>2016-03-06T10:12:52Z</time>
      </trkpt>
      <trkpt lat="45.49535" lon="6.6338">
        <ele>2422.66</ele>
        <time>2016-03-06T10:13:06Z</time>
      </trkpt>
      <trkpt lat="45.49543" lon="6.63384">
        <ele>2425.54</ele>
        <time>2016-03-06T10:13:21Z</time>
      </trkpt>
      <trkpt lat="45.49553" lon="6.63388">
        <ele>2428.43</ele>
        <time>2016-03-06T10:13:36Z</time>
      </trkpt>
      <trkpt lat="45.49564" lon="6.63396">
        <ele>2430.35</ele>
        <time>2016-03-06T10:13:52Z</time>
      </trkpt>
      <trkpt lat="45.49574" lon="6.63406">
        <ele>2432.75</ele>
        <time>2016-03-06T10:14:09Z</time>
      </trkpt>
      <trkpt lat="45.49573" lon="6.6342">
        <ele>2435.64</ele>
        <time>2016-03-06T10:14:25Z</time>
      </trkpt>
      <trkpt lat="45.49568" lon="6.63429">
        <ele>2438.52</ele>
        <time>2016-03-06T10:14:40Z</time>
      </trkpt>
      <trkpt lat="45.49568" lon="6.63443">
        <ele>2441.89</ele>
        <time>2016-03-06T10:14:58Z</time>
      </trkpt>
      <trkpt lat="45.49577" lon="6.63452">
        <ele>2444.77</ele>
        <time>2016-03-06T10:15:14Z</time>
      </trkpt>
      <trkpt lat="45.49583" lon="6.63461">
        <ele>2448.13</ele>
        <time>2016-03-06T10:15:29Z</time>
      </trkpt>
      <trkpt lat="45.49587" lon="6.63471">
        <ele>2451.02</ele>
        <time>2016-03-06T10:15:43Z</time>
      </trkpt>
      <trkpt lat="45.49591" lon="6.6348">
        <ele>2454.86</ele>
        <time>2016-03-06T10:15:58Z</time>
      </trkpt>
      <trkpt lat="45.49596" lon="6.63491">
        <ele>2458.23</ele>
        <time>2016-03-06T10:16:14Z</time>
      </trkpt>
      <trkpt lat="45.49598" lon="6.635">
        <ele>2461.59</ele>
        <time>2016-03-06T10:16:26Z</time>
      </trkpt>
      <trkpt lat="45.49593" lon="6.63509">
        <ele>2464</ele>
        <time>2016-03-06T10:16:41Z</time>
      </trkpt>
      <trkpt lat="45.49585" lon="6.63521">
        <ele>2466.4</ele>
        <time>2016-03-06T10:16:57Z</time>
      </trkpt>
      <trkpt lat="45.4958" lon="6.6353">
        <ele>2469.76</ele>
        <time>2016-03-06T10:17:10Z</time>
      </trkpt>
      <trkpt lat="45.49574" lon="6.63538">
        <ele>2472.65</ele>
        <time>2016-03-06T10:17:24Z</time>
      </trkpt>
      <trkpt lat="45.49573" lon="6.63541">
        <ele>2475.05</ele>
        <time>2016-03-06T10:17:38Z</time>
      </trkpt>
      <trkpt lat="45.49577" lon="6.63551">
        <ele>2478.42</ele>
        <time>2016-03-06T10:17:53Z</time>
      </trkpt>
      <trkpt lat="45.49577" lon="6.63562">
        <ele>2481.3</ele>
        <time>2016-03-06T10:18:07Z</time>
      </trkpt>
      <trkpt lat="45.49573" lon="6.63569">
        <ele>2484.66</ele>
        <time>2016-03-06T10:18:19Z</time>
      </trkpt>
      <trkpt lat="45.49568" lon="6.63576">
        <ele>2488.03</ele>
        <time>2016-03-06T10:18:32Z</time>
      </trkpt>
      <trkpt lat="45.49565" lon="6.63586">
        <ele>2491.39</ele>
        <time>2016-03-06T10:18:44Z</time>
      </trkpt>
      <trkpt lat="45.49564" lon="6.63587">
        <ele>2491.87</ele>
        <time>2016-03-06T10:18:56Z</time>
      </trkpt>
      <trkpt lat="45.49564" lon="6.63587">
        <ele>2492.36</ele>
        <time>2016-03-06T10:19:19Z</time>
      </trkpt>
      <trkpt lat="45.49565" lon="6.63589">
        <ele>2492.84</ele>
        <time>2016-03-06T10:19:42Z</time>
      </trkpt>
      <trkpt lat="45.49564" lon="6.63593">
        <ele>2492.84</ele>
        <time>2016-03-06T10:19:57Z</time>
      </trkpt>
      <trkpt lat="45.49559" lon="6.63601">
        <ele>2495.72</ele>
        <time>2016-03-06T10:20:08Z</time>
      </trkpt>
      <trkpt lat="45.49558" lon="6.63604">
        <ele>2496.68</ele>
        <time>2016-03-06T10:20:22Z</time>
      </trkpt>
      <trkpt lat="45.49553" lon="6.63612">
        <ele>2500.05</ele>
        <time>2016-03-06T10:20:34Z</time>
      </trkpt>
      <trkpt lat="45.49548" lon="6.63621">
        <ele>2502.93</ele>
        <time>2016-03-06T10:20:50Z</time>
      </trkpt>
      <trkpt lat="45.49548" lon="6.63621">
        <ele>2502.93</ele>
        <time>2016-03-06T10:21:04Z</time>
      </trkpt>
      <trkpt lat="45.49547" lon="6.63623">
        <ele>2503.41</ele>
        <time>2016-03-06T10:21:07Z</time>
      </trkpt>
      <trkpt lat="45.49541" lon="6.63629">
        <ele>2504.85</ele>
        <time>2016-03-06T10:21:23Z</time>
      </trkpt>
      <trkpt lat="45.49533" lon="6.63638">
        <ele>2507.26</ele>
        <time>2016-03-06T10:21:39Z</time>
      </trkpt>
      <trkpt lat="45.49528" lon="6.63649">
        <ele>2510.62</ele>
        <time>2016-03-06T10:21:52Z</time>
      </trkpt>
      <trkpt lat="45.49527" lon="6.63651">
        <ele>2511.58</ele>
        <time>2016-03-06T10:21:57Z</time>
      </trkpt>
      <trkpt lat="45.49525" lon="6.63651">
        <ele>2510.14</ele>
        <time>2016-03-06T10:22:03Z</time>
      </trkpt>
      <trkpt lat="45.49525" lon="6.63652">
        <ele>2510.14</ele>
        <time>2016-03-06T10:22:19Z</time>
      </trkpt>
      <trkpt lat="45.49525" lon="6.63651">
        <ele>2511.1</ele>
        <time>2016-03-06T10:22:37Z</time>
      </trkpt>
      <trkpt lat="45.49526" lon="6.63652">
        <ele>2511.1</ele>
        <time>2016-03-06T10:22:56Z</time>
      </trkpt>
      <trkpt lat="45.49525" lon="6.63651">
        <ele>2511.1</ele>
        <time>2016-03-06T10:23:11Z</time>
      </trkpt>
      <trkpt lat="45.49525" lon="6.63652">
        <ele>2511.1</ele>
        <time>2016-03-06T10:23:21Z</time>
      </trkpt>
      <trkpt lat="45.49522" lon="6.63658">
        <ele>2511.58</ele>
        <time>2016-03-06T10:23:32Z</time>
      </trkpt>
      <trkpt lat="45.49521" lon="6.63662">
        <ele>2513.02</ele>
        <time>2016-03-06T10:23:38Z</time>
      </trkpt>
      <trkpt lat="45.49518" lon="6.63682">
        <ele>2515.91</ele>
        <time>2016-03-06T10:23:57Z</time>
      </trkpt>
      <trkpt lat="45.49517" lon="6.637">
        <ele>2519.27</ele>
        <time>2016-03-06T10:24:15Z</time>
      </trkpt>
      <trkpt lat="45.49515" lon="6.63716">
        <ele>2522.64</ele>
        <time>2016-03-06T10:24:30Z</time>
      </trkpt>
      <trkpt lat="45.49511" lon="6.63734">
        <ele>2525.04</ele>
        <time>2016-03-06T10:24:47Z</time>
      </trkpt>
      <trkpt lat="45.49509" lon="6.63745">
        <ele>2528.4</ele>
        <time>2016-03-06T10:25:00Z</time>
      </trkpt>
      <trkpt lat="45.49508" lon="6.6375">
        <ele>2529.37</ele>
        <time>2016-03-06T10:25:14Z</time>
      </trkpt>
      <trkpt lat="45.49508" lon="6.6375">
        <ele>2529.37</ele>
        <time>2016-03-06T10:25:29Z</time>
      </trkpt>
      <trkpt lat="45.49508" lon="6.63757">
        <ele>2530.33</ele>
        <time>2016-03-06T10:25:43Z</time>
      </trkpt>
      <trkpt lat="45.49508" lon="6.63767">
        <ele>2532.25</ele>
        <time>2016-03-06T10:25:56Z</time>
      </trkpt>
      <trkpt lat="45.49508" lon="6.63773">
        <ele>2533.69</ele>
        <time>2016-03-06T10:26:09Z</time>
      </trkpt>
      <trkpt lat="45.49507" lon="6.63777">
        <ele>2535.13</ele>
        <time>2016-03-06T10:26:20Z</time>
      </trkpt>
      <trkpt lat="45.49498" lon="6.63783">
        <ele>2538.98</ele>
        <time>2016-03-06T10:26:34Z</time>
      </trkpt>
      <trkpt lat="45.49495" lon="6.63791">
        <ele>2542.34</ele>
        <time>2016-03-06T10:26:48Z</time>
      </trkpt>
      <trkpt lat="45.49499" lon="6.63799">
        <ele>2545.71</ele>
        <time>2016-03-06T10:27:00Z</time>
      </trkpt>
      <trkpt lat="45.495" lon="6.63808">
        <ele>2549.07</ele>
        <time>2016-03-06T10:27:12Z</time>
      </trkpt>
      <trkpt lat="45.495" lon="6.63817">
        <ele>2551.48</ele>
        <time>2016-03-06T10:27:24Z</time>
      </trkpt>
      <trkpt lat="45.49495" lon="6.63827">
        <ele>2554.84</ele>
        <time>2016-03-06T10:27:38Z</time>
      </trkpt>
      <trkpt lat="45.49491" lon="6.63839">
        <ele>2557.73</ele>
        <time>2016-03-06T10:27:53Z</time>
      </trkpt>
      <trkpt lat="45.49488" lon="6.63851">
        <ele>2560.13</ele>
        <time>2016-03-06T10:28:08Z</time>
      </trkpt>
      <trkpt lat="45.49485" lon="6.63865">
        <ele>2562.53</ele>
        <time>2016-03-06T10:28:22Z</time>
      </trkpt>
      <trkpt lat="45.49483" lon="6.6388">
        <ele>2565.9</ele>
        <time>2016-03-06T10:28:37Z</time>
      </trkpt>
      <trkpt lat="45.4948" lon="6.63889">
        <ele>2567.34</ele>
        <time>2016-03-06T10:28:50Z</time>
      </trkpt>
      <trkpt lat="45.49477" lon="6.63905">
        <ele>2570.7</ele>
        <time>2016-03-06T10:29:05Z</time>
      </trkpt>
      <trkpt lat="45.49473" lon="6.63919">
        <ele>2573.11</ele>
        <time>2016-03-06T10:29:19Z</time>
      </trkpt>
      <trkpt lat="45.49472" lon="6.63932">
        <ele>2575.51</ele>
        <time>2016-03-06T10:29:34Z</time>
      </trkpt>
      <trkpt lat="45.49474" lon="6.63933">
        <ele>2575.99</ele>
        <time>2016-03-06T10:29:44Z</time>
      </trkpt>
      <trkpt lat="45.49476" lon="6.63933">
        <ele>2575.51</ele>
        <time>2016-03-06T10:29:58Z</time>
      </trkpt>
      <trkpt lat="45.49475" lon="6.63934">
        <ele>2575.51</ele>
        <time>2016-03-06T10:30:12Z</time>
      </trkpt>
      <trkpt lat="45.49475" lon="6.63934">
        <ele>2575.51</ele>
        <time>2016-03-06T10:30:27Z</time>
      </trkpt>
      <trkpt lat="45.49475" lon="6.63935">
        <ele>2575.51</ele>
        <time>2016-03-06T10:30:47Z</time>
      </trkpt>
      <trkpt lat="45.49475" lon="6.63935">
        <ele>2575.03</ele>
        <time>2016-03-06T10:31:10Z</time>
      </trkpt>
      <trkpt lat="45.49475" lon="6.63933">
        <ele>2575.03</ele>
        <time>2016-03-06T10:31:30Z</time>
      </trkpt>
      <trkpt lat="45.49475" lon="6.63932">
        <ele>2575.03</ele>
        <time>2016-03-06T10:31:48Z</time>
      </trkpt>
      <trkpt lat="45.49475" lon="6.63932">
        <ele>2575.03</ele>
        <time>2016-03-06T10:32:00Z</time>
      </trkpt>
      <trkpt lat="45.49476" lon="6.63933">
        <ele>2575.03</ele>
        <time>2016-03-06T10:32:14Z</time>
      </trkpt>
      <trkpt lat="45.49476" lon="6.63932">
        <ele>2575.51</ele>
        <time>2016-03-06T10:32:28Z</time>
      </trkpt>
      <trkpt lat="45.49475" lon="6.63933">
        <ele>2574.07</ele>
        <time>2016-03-06T10:32:30Z</time>
      </trkpt>
      <trkpt lat="45.49473" lon="6.63933">
        <ele>2573.59</ele>
        <time>2016-03-06T10:32:53Z</time>
      </trkpt>
      <trkpt lat="45.49473" lon="6.63932">
        <ele>2573.59</ele>
        <time>2016-03-06T10:33:25Z</time>
      </trkpt>
      <trkpt lat="45.49473" lon="6.63934">
        <ele>2574.55</ele>
        <time>2016-03-06T10:34:06Z</time>
      </trkpt>
      <trkpt lat="45.49473" lon="6.63934">
        <ele>2573.11</ele>
        <time>2016-03-06T10:34:09Z</time>
      </trkpt>
      <trkpt lat="45.49474" lon="6.63934">
        <ele>2574.55</ele>
        <time>2016-03-06T10:34:13Z</time>
      </trkpt>
      <trkpt lat="45.49474" lon="6.63933">
        <ele>2573.59</ele>
        <time>2016-03-06T10:34:28Z</time>
      </trkpt>
      <trkpt lat="45.49474" lon="6.63933">
        <ele>2573.59</ele>
        <time>2016-03-06T10:34:29Z</time>
      </trkpt>
      <trkpt lat="45.49473" lon="6.63932">
        <ele>2573.11</ele>
        <time>2016-03-06T10:34:44Z</time>
      </trkpt>
      <trkpt lat="45.49473" lon="6.63932">
        <ele>2572.63</ele>
        <time>2016-03-06T10:35:22Z</time>
      </trkpt>
      <trkpt lat="45.49472" lon="6.63932">
        <ele>2574.07</ele>
        <time>2016-03-06T10:35:48Z</time>
      </trkpt>
      <trkpt lat="45.49473" lon="6.63931">
        <ele>2572.63</ele>
        <time>2016-03-06T10:35:53Z</time>
      </trkpt>
      <trkpt lat="45.49472" lon="6.63932">
        <ele>2574.55</ele>
        <time>2016-03-06T10:36:03Z</time>
      </trkpt>
      <trkpt lat="45.49473" lon="6.63932">
        <ele>2573.59</ele>
        <time>2016-03-06T10:36:27Z</time>
      </trkpt>
      <trkpt lat="45.49472" lon="6.63933">
        <ele>2572.63</ele>
        <time>2016-03-06T10:36:45Z</time>
      </trkpt>
      <trkpt lat="45.49472" lon="6.63934">
        <ele>2574.07</ele>
        <time>2016-03-06T10:36:53Z</time>
      </trkpt>
      <trkpt lat="45.49473" lon="6.63933">
        <ele>2572.63</ele>
        <time>2016-03-06T10:36:58Z</time>
      </trkpt>
      <trkpt lat="45.49474" lon="6.63932">
        <ele>2568.3</ele>
        <time>2016-03-06T10:37:07Z</time>
      </trkpt>
      <trkpt lat="45.49474" lon="6.63932">
        <ele>2576.47</ele>
        <time>2016-03-06T10:37:08Z</time>
      </trkpt>
      <trkpt lat="45.49474" lon="6.63933">
        <ele>2573.11</ele>
        <time>2016-03-06T10:37:09Z</time>
      </trkpt>
      <trkpt lat="45.49474" lon="6.63932">
        <ele>2572.63</ele>
        <time>2016-03-06T10:37:21Z</time>
      </trkpt>
      <trkpt lat="45.49473" lon="6.63933">
        <ele>2572.14</ele>
        <time>2016-03-06T10:37:45Z</time>
      </trkpt>
      <trkpt lat="45.49473" lon="6.63932">
        <ele>2571.66</ele>
        <time>2016-03-06T10:38:10Z</time>
      </trkpt>
      <trkpt lat="45.49473" lon="6.63931">
        <ele>2573.11</ele>
        <time>2016-03-06T10:38:18Z</time>
      </trkpt>
      <trkpt lat="45.49473" lon="6.63931">
        <ele>2571.66</ele>
        <time>2016-03-06T10:38:20Z</time>
      </trkpt>
      <trkpt lat="45.49474" lon="6.63931">
        <ele>2567.82</ele>
        <time>2016-03-06T10:38:23Z</time>
      </trkpt>
      <trkpt lat="45.49474" lon="6.63931">
        <ele>2574.55</ele>
        <time>2016-03-06T10:38:24Z</time>
      </trkpt>
      <trkpt lat="45.49473" lon="6.63932">
        <ele>2572.14</ele>
        <time>2016-03-06T10:38:27Z</time>
      </trkpt>
      <trkpt lat="45.49475" lon="6.63932">
        <ele>2572.63</ele>
        <time>2016-03-06T10:38:49Z</time>
      </trkpt>
      <trkpt lat="45.49474" lon="6.63933">
        <ele>2572.14</ele>
        <time>2016-03-06T10:39:11Z</time>
      </trkpt>
      <trkpt lat="45.49473" lon="6.63933">
        <ele>2571.18</ele>
        <time>2016-03-06T10:39:32Z</time>
      </trkpt>
      <trkpt lat="45.49476" lon="6.63932">
        <ele>2572.14</ele>
        <time>2016-03-06T10:39:52Z</time>
      </trkpt>
      <trkpt lat="45.49473" lon="6.63934">
        <ele>2572.14</ele>
        <time>2016-03-06T10:40:24Z</time>
      </trkpt>
      <trkpt lat="45.49474" lon="6.63933">
        <ele>2571.66</ele>
        <time>2016-03-06T10:40:55Z</time>
      </trkpt>
      <trkpt lat="45.49473" lon="6.63932">
        <ele>2570.22</ele>
        <time>2016-03-06T10:41:04Z</time>
      </trkpt>
      <trkpt lat="45.49473" lon="6.63932">
        <ele>2571.66</ele>
        <time>2016-03-06T10:41:09Z</time>
      </trkpt>
      <trkpt lat="45.49473" lon="6.63934">
        <ele>2571.66</ele>
        <time>2016-03-06T10:41:33Z</time>
      </trkpt>
      <trkpt lat="45.49474" lon="6.63931">
        <ele>2571.66</ele>
        <time>2016-03-06T10:42:00Z</time>
      </trkpt>
      <trkpt lat="45.49476" lon="6.63932">
        <ele>2571.18</ele>
        <time>2016-03-06T10:42:22Z</time>
      </trkpt>
      <trkpt lat="45.49476" lon="6.63932">
        <ele>2570.22</ele>
        <time>2016-03-06T10:42:35Z</time>
      </trkpt>
      <trkpt lat="45.49476" lon="6.63932">
        <ele>2570.7</ele>
        <time>2016-03-06T10:42:37Z</time>
      </trkpt>
      <trkpt lat="45.49475" lon="6.63933">
        <ele>2568.78</ele>
        <time>2016-03-06T10:42:50Z</time>
      </trkpt>
      <trkpt lat="45.49475" lon="6.63933">
        <ele>2570.22</ele>
        <time>2016-03-06T10:42:52Z</time>
      </trkpt>
      <trkpt lat="45.49476" lon="6.63933">
        <ele>2573.59</ele>
        <time>2016-03-06T10:42:54Z</time>
      </trkpt>
      <trkpt lat="45.49476" lon="6.63933">
        <ele>2569.26</ele>
        <time>2016-03-06T10:42:57Z</time>
      </trkpt>
      <trkpt lat="45.49473" lon="6.63934">
        <ele>2571.66</ele>
        <time>2016-03-06T10:43:01Z</time>
      </trkpt>
      <trkpt lat="45.49473" lon="6.63934">
        <ele>2566.38</ele>
        <time>2016-03-06T10:43:02Z</time>
      </trkpt>
      <trkpt lat="45.49473" lon="6.63934">
        <ele>2568.78</ele>
        <time>2016-03-06T10:43:03Z</time>
      </trkpt>
      <trkpt lat="45.49473" lon="6.63935">
        <ele>2573.11</ele>
        <time>2016-03-06T10:43:06Z</time>
      </trkpt>
      <trkpt lat="45.49473" lon="6.63934">
        <ele>2571.18</ele>
        <time>2016-03-06T10:43:07Z</time>
      </trkpt>
      <trkpt lat="45.49474" lon="6.63934">
        <ele>2568.3</ele>
        <time>2016-03-06T10:43:10Z</time>
      </trkpt>
      <trkpt lat="45.49474" lon="6.63935">
        <ele>2573.11</ele>
        <time>2016-03-06T10:43:12Z</time>
      </trkpt>
      <trkpt lat="45.49474" lon="6.63935">
        <ele>2567.34</ele>
        <time>2016-03-06T10:43:14Z</time>
      </trkpt>
      <trkpt lat="45.49474" lon="6.63935">
        <ele>2571.66</ele>
        <time>2016-03-06T10:43:15Z</time>
      </trkpt>
      <trkpt lat="45.49474" lon="6.63935">
        <ele>2575.03</ele>
        <time>2016-03-06T10:43:16Z</time>
      </trkpt>
      <trkpt lat="45.49474" lon="6.63935">
        <ele>2571.66</ele>
        <time>2016-03-06T10:43:17Z</time>
      </trkpt>
      <trkpt lat="45.49475" lon="6.63936">
        <ele>2570.7</ele>
        <time>2016-03-06T10:43:19Z</time>
      </trkpt>
      <trkpt lat="45.49478" lon="6.63933">
        <ele>2570.22</ele>
        <time>2016-03-06T10:43:35Z</time>
      </trkpt>
      <trkpt lat="45.49474" lon="6.63934">
        <ele>2569.74</ele>
        <time>2016-03-06T10:43:56Z</time>
      </trkpt>
      <trkpt lat="45.49475" lon="6.63934">
        <ele>2568.78</ele>
        <time>2016-03-06T10:44:03Z</time>
      </trkpt>
      <trkpt lat="45.49474" lon="6.63934">
        <ele>2572.14</ele>
        <time>2016-03-06T10:44:08Z</time>
      </trkpt>
      <trkpt lat="45.49473" lon="6.63933">
        <ele>2569.74</ele>
        <time>2016-03-06T10:44:29Z</time>
      </trkpt>
      <trkpt lat="45.4947" lon="6.63934">
        <ele>2569.74</ele>
        <time>2016-03-06T10:44:58Z</time>
      </trkpt>
      <trkpt lat="45.49472" lon="6.63931">
        <ele>2570.22</ele>
        <time>2016-03-06T10:45:19Z</time>
      </trkpt>
      <trkpt lat="45.49471" lon="6.63932">
        <ele>2570.22</ele>
        <time>2016-03-06T10:45:42Z</time>
      </trkpt>
      <trkpt lat="45.49471" lon="6.63933">
        <ele>2569.74</ele>
        <time>2016-03-06T10:46:06Z</time>
      </trkpt>
      <trkpt lat="45.49471" lon="6.63931">
        <ele>2569.74</ele>
        <time>2016-03-06T10:46:29Z</time>
      </trkpt>
      <trkpt lat="45.49472" lon="6.6393">
        <ele>2568.3</ele>
        <time>2016-03-06T10:46:47Z</time>
      </trkpt>
      <trkpt lat="45.49467" lon="6.63928">
        <ele>2568.78</ele>
        <time>2016-03-06T10:47:09Z</time>
      </trkpt>
      <trkpt lat="45.49465" lon="6.63926">
        <ele>2567.82</ele>
        <time>2016-03-06T10:47:10Z</time>
      </trkpt>
      <trkpt lat="45.49462" lon="6.63924">
        <ele>2567.82</ele>
        <time>2016-03-06T10:47:11Z</time>
      </trkpt>
      <trkpt lat="45.49458" lon="6.63921">
        <ele>2566.86</ele>
        <time>2016-03-06T10:47:12Z</time>
      </trkpt>
      <trkpt lat="45.49444" lon="6.63908">
        <ele>2561.09</ele>
        <time>2016-03-06T10:47:16Z</time>
      </trkpt>
      <trkpt lat="45.49444" lon="6.63906">
        <ele>2561.09</ele>
        <time>2016-03-06T10:47:17Z</time>
      </trkpt>
      <trkpt lat="45.49446" lon="6.63905">
        <ele>2560.13</ele>
        <time>2016-03-06T10:47:28Z</time>
      </trkpt>
      <trkpt lat="45.49447" lon="6.63903">
        <ele>2560.13</ele>
        <time>2016-03-06T10:47:55Z</time>
      </trkpt>
      <trkpt lat="45.49449" lon="6.63903">
        <ele>2560.13</ele>
        <time>2016-03-06T10:48:32Z</time>
      </trkpt>
      <trkpt lat="45.49459" lon="6.63894">
        <ele>2557.24</ele>
        <time>2016-03-06T10:48:37Z</time>
      </trkpt>
      <trkpt lat="45.49461" lon="6.63891">
        <ele>2557.24</ele>
        <time>2016-03-06T10:48:39Z</time>
      </trkpt>
      <trkpt lat="45.49463" lon="6.63886">
        <ele>2556.28</ele>
        <time>2016-03-06T10:48:40Z</time>
      </trkpt>
      <trkpt lat="45.49463" lon="6.63881">
        <ele>2556.28</ele>
        <time>2016-03-06T10:48:41Z</time>
      </trkpt>
      <trkpt lat="45.49461" lon="6.63878">
        <ele>2551.96</ele>
        <time>2016-03-06T10:48:42Z</time>
      </trkpt>
      <trkpt lat="45.49457" lon="6.6387">
        <ele>2548.59</ele>
        <time>2016-03-06T10:48:44Z</time>
      </trkpt>
      <trkpt lat="45.49453" lon="6.63862">
        <ele>2547.63</ele>
        <time>2016-03-06T10:48:46Z</time>
      </trkpt>
      <trkpt lat="45.49452" lon="6.63859">
        <ele>2544.75</ele>
        <time>2016-03-06T10:48:47Z</time>
      </trkpt>
      <trkpt lat="45.4945" lon="6.63855">
        <ele>2541.38</ele>
        <time>2016-03-06T10:48:48Z</time>
      </trkpt>
      <trkpt lat="45.49449" lon="6.63851">
        <ele>2537.06</ele>
        <time>2016-03-06T10:48:49Z</time>
      </trkpt>
      <trkpt lat="45.49448" lon="6.63847">
        <ele>2542.82</ele>
        <time>2016-03-06T10:48:50Z</time>
      </trkpt>
      <trkpt lat="45.49446" lon="6.63842">
        <ele>2535.61</ele>
        <time>2016-03-06T10:48:51Z</time>
      </trkpt>
      <trkpt lat="45.49444" lon="6.63838">
        <ele>2535.13</ele>
        <time>2016-03-06T10:48:52Z</time>
      </trkpt>
      <trkpt lat="45.49442" lon="6.63833">
        <ele>2530.81</ele>
        <time>2016-03-06T10:48:53Z</time>
      </trkpt>
      <trkpt lat="45.4944" lon="6.63829">
        <ele>2528.4</ele>
        <time>2016-03-06T10:48:54Z</time>
      </trkpt>
      <trkpt lat="45.49438" lon="6.63824">
        <ele>2526</ele>
        <time>2016-03-06T10:48:55Z</time>
      </trkpt>
      <trkpt lat="45.49436" lon="6.6382">
        <ele>2525.04</ele>
        <time>2016-03-06T10:48:56Z</time>
      </trkpt>
      <trkpt lat="45.4943" lon="6.63815">
        <ele>2521.68</ele>
        <time>2016-03-06T10:48:58Z</time>
      </trkpt>
      <trkpt lat="45.49426" lon="6.6381">
        <ele>2519.27</ele>
        <time>2016-03-06T10:49:00Z</time>
      </trkpt>
      <trkpt lat="45.49425" lon="6.63805">
        <ele>2515.91</ele>
        <time>2016-03-06T10:49:02Z</time>
      </trkpt>
      <trkpt lat="45.49416" lon="6.63798">
        <ele>2512.06</ele>
        <time>2016-03-06T10:49:04Z</time>
      </trkpt>
      <trkpt lat="45.49411" lon="6.63792">
        <ele>2508.7</ele>
        <time>2016-03-06T10:49:06Z</time>
      </trkpt>
      <trkpt lat="45.49406" lon="6.63781">
        <ele>2504.37</ele>
        <time>2016-03-06T10:49:09Z</time>
      </trkpt>
      <trkpt lat="45.49406" lon="6.63776">
        <ele>2501.01</ele>
        <time>2016-03-06T10:49:10Z</time>
      </trkpt>
      <trkpt lat="45.49405" lon="6.63771">
        <ele>2502.45</ele>
        <time>2016-03-06T10:49:11Z</time>
      </trkpt>
      <trkpt lat="45.49404" lon="6.63767">
        <ele>2498.6</ele>
        <time>2016-03-06T10:49:12Z</time>
      </trkpt>
      <trkpt lat="45.49403" lon="6.63762">
        <ele>2498.6</ele>
        <time>2016-03-06T10:49:13Z</time>
      </trkpt>
      <trkpt lat="45.49402" lon="6.63758">
        <ele>2494.28</ele>
        <time>2016-03-06T10:49:14Z</time>
      </trkpt>
      <trkpt lat="45.49401" lon="6.63753">
        <ele>2490.91</ele>
        <time>2016-03-06T10:49:15Z</time>
      </trkpt>
      <trkpt lat="45.49397" lon="6.63742">
        <ele>2487.07</ele>
        <time>2016-03-06T10:49:17Z</time>
      </trkpt>
      <trkpt lat="45.49396" lon="6.63737">
        <ele>2484.66</ele>
        <time>2016-03-06T10:49:18Z</time>
      </trkpt>
      <trkpt lat="45.49395" lon="6.63732">
        <ele>2479.38</ele>
        <time>2016-03-06T10:49:19Z</time>
      </trkpt>
      <trkpt lat="45.49394" lon="6.63726">
        <ele>2483.22</ele>
        <time>2016-03-06T10:49:20Z</time>
      </trkpt>
      <trkpt lat="45.49393" lon="6.63721">
        <ele>2478.42</ele>
        <time>2016-03-06T10:49:21Z</time>
      </trkpt>
      <trkpt lat="45.49392" lon="6.63715">
        <ele>2478.42</ele>
        <time>2016-03-06T10:49:22Z</time>
      </trkpt>
      <trkpt lat="45.49392" lon="6.63709">
        <ele>2474.09</ele>
        <time>2016-03-06T10:49:23Z</time>
      </trkpt>
      <trkpt lat="45.49391" lon="6.63704">
        <ele>2472.17</ele>
        <time>2016-03-06T10:49:24Z</time>
      </trkpt>
      <trkpt lat="45.49392" lon="6.63698">
        <ele>2470.24</ele>
        <time>2016-03-06T10:49:25Z</time>
      </trkpt>
      <trkpt lat="45.49391" lon="6.63692">
        <ele>2465.92</ele>
        <time>2016-03-06T10:49:26Z</time>
      </trkpt>
      <trkpt lat="45.49391" lon="6.63686">
        <ele>2464.96</ele>
        <time>2016-03-06T10:49:27Z</time>
      </trkpt>
      <trkpt lat="45.4939" lon="6.63681">
        <ele>2460.63</ele>
        <time>2016-03-06T10:49:28Z</time>
      </trkpt>
      <trkpt lat="45.49389" lon="6.63675">
        <ele>2464</ele>
        <time>2016-03-06T10:49:29Z</time>
      </trkpt>
      <trkpt lat="45.49387" lon="6.6367">
        <ele>2457.27</ele>
        <time>2016-03-06T10:49:30Z</time>
      </trkpt>
      <trkpt lat="45.49386" lon="6.63664">
        <ele>2453.42</ele>
        <time>2016-03-06T10:49:31Z</time>
      </trkpt>
      <trkpt lat="45.49386" lon="6.63658">
        <ele>2456.31</ele>
        <time>2016-03-06T10:49:32Z</time>
      </trkpt>
      <trkpt lat="45.49388" lon="6.63656">
        <ele>2453.9</ele>
        <time>2016-03-06T10:49:37Z</time>
      </trkpt>
      <trkpt lat="45.49388" lon="6.63657">
        <ele>2454.86</ele>
        <time>2016-03-06T10:49:59Z</time>
      </trkpt>
      <trkpt lat="45.49388" lon="6.63656">
        <ele>2454.86</ele>
        <time>2016-03-06T10:50:23Z</time>
      </trkpt>
      <trkpt lat="45.49387" lon="6.63656">
        <ele>2454.86</ele>
        <time>2016-03-06T10:50:30Z</time>
      </trkpt>
      <trkpt lat="45.49384" lon="6.63647">
        <ele>2451.98</ele>
        <time>2016-03-06T10:50:34Z</time>
      </trkpt>
      <trkpt lat="45.49382" lon="6.63638">
        <ele>2446.69</ele>
        <time>2016-03-06T10:50:36Z</time>
      </trkpt>
      <trkpt lat="45.49381" lon="6.63633">
        <ele>2448.13</ele>
        <time>2016-03-06T10:50:37Z</time>
      </trkpt>
      <trkpt lat="45.49377" lon="6.63629">
        <ele>2444.29</ele>
        <time>2016-03-06T10:50:38Z</time>
      </trkpt>
      <trkpt lat="45.49374" lon="6.63619">
        <ele>2439.96</ele>
        <time>2016-03-06T10:50:40Z</time>
      </trkpt>
      <trkpt lat="45.49372" lon="6.63608">
        <ele>2432.27</ele>
        <time>2016-03-06T10:50:42Z</time>
      </trkpt>
      <trkpt lat="45.4937" lon="6.63602">
        <ele>2436.12</ele>
        <time>2016-03-06T10:50:43Z</time>
      </trkpt>
      <trkpt lat="45.49369" lon="6.63594">
        <ele>2425.54</ele>
        <time>2016-03-06T10:50:44Z</time>
      </trkpt>
      <trkpt lat="45.49367" lon="6.63587">
        <ele>2433.71</ele>
        <time>2016-03-06T10:50:45Z</time>
      </trkpt>
      <trkpt lat="45.49366" lon="6.63578">
        <ele>2426.02</ele>
        <time>2016-03-06T10:50:46Z</time>
      </trkpt>
      <trkpt lat="45.49372" lon="6.63562">
        <ele>2422.18</ele>
        <time>2016-03-06T10:50:48Z</time>
      </trkpt>
      <trkpt lat="45.49373" lon="6.63543">
        <ele>2418.33</ele>
        <time>2016-03-06T10:50:50Z</time>
      </trkpt>
      <trkpt lat="45.49373" lon="6.63532">
        <ele>2415.45</ele>
        <time>2016-03-06T10:50:51Z</time>
      </trkpt>
      <trkpt lat="45.49374" lon="6.63523">
        <ele>2414.01</ele>
        <time>2016-03-06T10:50:52Z</time>
      </trkpt>
      <trkpt lat="45.49379" lon="6.63478">
        <ele>2410.16</ele>
        <time>2016-03-06T10:50:57Z</time>
      </trkpt>
      <trkpt lat="45.49386" lon="6.63435">
        <ele>2408.72</ele>
        <time>2016-03-06T10:51:06Z</time>
      </trkpt>
      <trkpt lat="45.49389" lon="6.6342">
        <ele>2408.24</ele>
        <time>2016-03-06T10:51:12Z</time>
      </trkpt>
      <trkpt lat="45.49394" lon="6.63408">
        <ele>2408.72</ele>
        <time>2016-03-06T10:51:23Z</time>
      </trkpt>
      <trkpt lat="45.49394" lon="6.63399">
        <ele>2406.8</ele>
        <time>2016-03-06T10:51:30Z</time>
      </trkpt>
      <trkpt lat="45.49396" lon="6.63371">
        <ele>2402.95</ele>
        <time>2016-03-06T10:51:36Z</time>
      </trkpt>
      <trkpt lat="45.49397" lon="6.63366">
        <ele>2402.95</ele>
        <time>2016-03-06T10:51:37Z</time>
      </trkpt>
      <trkpt lat="45.494" lon="6.63349">
        <ele>2401.03</ele>
        <time>2016-03-06T10:51:40Z</time>
      </trkpt>
      <trkpt lat="45.49404" lon="6.63336">
        <ele>2399.59</ele>
        <time>2016-03-06T10:51:42Z</time>
      </trkpt>
      <trkpt lat="45.49405" lon="6.6333">
        <ele>2399.59</ele>
        <time>2016-03-06T10:51:47Z</time>
      </trkpt>
      <trkpt lat="45.49408" lon="6.63327">
        <ele>2399.11</ele>
        <time>2016-03-06T10:51:52Z</time>
      </trkpt>
      <trkpt lat="45.49411" lon="6.63323">
        <ele>2398.15</ele>
        <time>2016-03-06T10:51:56Z</time>
      </trkpt>
      <trkpt lat="45.49416" lon="6.63312">
        <ele>2397.18</ele>
        <time>2016-03-06T10:52:05Z</time>
      </trkpt>
      <trkpt lat="45.49424" lon="6.63302">
        <ele>2394.78</ele>
        <time>2016-03-06T10:52:11Z</time>
      </trkpt>
      <trkpt lat="45.49428" lon="6.63299">
        <ele>2393.82</ele>
        <time>2016-03-06T10:52:13Z</time>
      </trkpt>
      <trkpt lat="45.4944" lon="6.633">
        <ele>2390.94</ele>
        <time>2016-03-06T10:52:16Z</time>
      </trkpt>
      <trkpt lat="45.49444" lon="6.63302">
        <ele>2386.61</ele>
        <time>2016-03-06T10:52:17Z</time>
      </trkpt>
      <trkpt lat="45.4946" lon="6.63311">
        <ele>2379.88</ele>
        <time>2016-03-06T10:52:20Z</time>
      </trkpt>
      <trkpt lat="45.49465" lon="6.63315">
        <ele>2379.88</ele>
        <time>2016-03-06T10:52:21Z</time>
      </trkpt>
      <trkpt lat="45.49468" lon="6.63315">
        <ele>2381.32</ele>
        <time>2016-03-06T10:52:22Z</time>
      </trkpt>
      <trkpt lat="45.4947" lon="6.63314">
        <ele>2381.8</ele>
        <time>2016-03-06T10:52:24Z</time>
      </trkpt>
      <trkpt lat="45.4947" lon="6.63313">
        <ele>2381.8</ele>
        <time>2016-03-06T10:52:26Z</time>
      </trkpt>
      <trkpt lat="45.49473" lon="6.63309">
        <ele>2380.36</ele>
        <time>2016-03-06T10:52:29Z</time>
      </trkpt>
      <trkpt lat="45.49485" lon="6.63298">
        <ele>2378.44</ele>
        <time>2016-03-06T10:52:38Z</time>
      </trkpt>
      <trkpt lat="45.49501" lon="6.63284">
        <ele>2374.59</ele>
        <time>2016-03-06T10:52:45Z</time>
      </trkpt>
      <trkpt lat="45.49516" lon="6.63269">
        <ele>2369.79</ele>
        <time>2016-03-06T10:52:49Z</time>
      </trkpt>
      <trkpt lat="45.4952" lon="6.63263">
        <ele>2368.83</ele>
        <time>2016-03-06T10:52:50Z</time>
      </trkpt>
      <trkpt lat="45.49524" lon="6.63257">
        <ele>2367.86</ele>
        <time>2016-03-06T10:52:51Z</time>
      </trkpt>
      <trkpt lat="45.49531" lon="6.63244">
        <ele>2366.9</ele>
        <time>2016-03-06T10:52:53Z</time>
      </trkpt>
      <trkpt lat="45.49538" lon="6.63233">
        <ele>2365.46</ele>
        <time>2016-03-06T10:52:55Z</time>
      </trkpt>
      <trkpt lat="45.49541" lon="6.63229">
        <ele>2365.46</ele>
        <time>2016-03-06T10:52:56Z</time>
      </trkpt>
      <trkpt lat="45.49544" lon="6.63226">
        <ele>2365.46</ele>
        <time>2016-03-06T10:52:57Z</time>
      </trkpt>
      <trkpt lat="45.49552" lon="6.63217">
        <ele>2366.9</ele>
        <time>2016-03-06T10:53:00Z</time>
      </trkpt>
      <trkpt lat="45.49559" lon="6.63205">
        <ele>2365.94</ele>
        <time>2016-03-06T10:53:08Z</time>
      </trkpt>
      <trkpt lat="45.49561" lon="6.63203">
        <ele>2364.98</ele>
        <time>2016-03-06T10:53:10Z</time>
      </trkpt>
      <trkpt lat="45.49561" lon="6.63201">
        <ele>2368.35</ele>
        <time>2016-03-06T10:53:11Z</time>
      </trkpt>
      <trkpt lat="45.49563" lon="6.63198">
        <ele>2365.94</ele>
        <time>2016-03-06T10:53:17Z</time>
      </trkpt>
      <trkpt lat="45.49564" lon="6.63196">
        <ele>2366.42</ele>
        <time>2016-03-06T10:53:18Z</time>
      </trkpt>
      <trkpt lat="45.49565" lon="6.63195">
        <ele>2365.94</ele>
        <time>2016-03-06T10:53:19Z</time>
      </trkpt>
      <trkpt lat="45.49567" lon="6.63193">
        <ele>2366.42</ele>
        <time>2016-03-06T10:53:20Z</time>
      </trkpt>
      <trkpt lat="45.49569" lon="6.6319">
        <ele>2366.42</ele>
        <time>2016-03-06T10:53:21Z</time>
      </trkpt>
      <trkpt lat="45.49572" lon="6.63187">
        <ele>2365.46</ele>
        <time>2016-03-06T10:53:22Z</time>
      </trkpt>
      <trkpt lat="45.49575" lon="6.63183">
        <ele>2364.5</ele>
        <time>2016-03-06T10:53:23Z</time>
      </trkpt>
      <trkpt lat="45.49586" lon="6.63171">
        <ele>2361.62</ele>
        <time>2016-03-06T10:53:26Z</time>
      </trkpt>
      <trkpt lat="45.49588" lon="6.63162">
        <ele>2363.54</ele>
        <time>2016-03-06T10:53:35Z</time>
      </trkpt>
      <trkpt lat="45.49587" lon="6.63153">
        <ele>2361.62</ele>
        <time>2016-03-06T10:53:46Z</time>
      </trkpt>
      <trkpt lat="45.49587" lon="6.63148">
        <ele>2363.54</ele>
        <time>2016-03-06T10:53:49Z</time>
      </trkpt>
      <trkpt lat="45.4959" lon="6.63122">
        <ele>2361.14</ele>
        <time>2016-03-06T10:54:02Z</time>
      </trkpt>
      <trkpt lat="45.49593" lon="6.63108">
        <ele>2357.77</ele>
        <time>2016-03-06T10:54:05Z</time>
      </trkpt>
      <trkpt lat="45.49595" lon="6.63096">
        <ele>2356.33</ele>
        <time>2016-03-06T10:54:07Z</time>
      </trkpt>
      <trkpt lat="45.49595" lon="6.63081">
        <ele>2352</ele>
        <time>2016-03-06T10:54:09Z</time>
      </trkpt>
      <trkpt lat="45.49595" lon="6.63073">
        <ele>2350.56</ele>
        <time>2016-03-06T10:54:10Z</time>
      </trkpt>
      <trkpt lat="45.49594" lon="6.63065">
        <ele>2349.12</ele>
        <time>2016-03-06T10:54:11Z</time>
      </trkpt>
      <trkpt lat="45.49592" lon="6.63056">
        <ele>2347.68</ele>
        <time>2016-03-06T10:54:12Z</time>
      </trkpt>
      <trkpt lat="45.4959" lon="6.63047">
        <ele>2346.23</ele>
        <time>2016-03-06T10:54:13Z</time>
      </trkpt>
      <trkpt lat="45.49587" lon="6.63038">
        <ele>2342.87</ele>
        <time>2016-03-06T10:54:14Z</time>
      </trkpt>
      <trkpt lat="45.49585" lon="6.63031">
        <ele>2342.87</ele>
        <time>2016-03-06T10:54:15Z</time>
      </trkpt>
      <trkpt lat="45.49583" lon="6.63017">
        <ele>2342.87</ele>
        <time>2016-03-06T10:54:22Z</time>
      </trkpt>
      <trkpt lat="45.49582" lon="6.63014">
        <ele>2342.87</ele>
        <time>2016-03-06T10:54:35Z</time>
      </trkpt>
      <trkpt lat="45.49581" lon="6.63012">
        <ele>2342.87</ele>
        <time>2016-03-06T10:54:36Z</time>
      </trkpt>
      <trkpt lat="45.49581" lon="6.6301">
        <ele>2342.87</ele>
        <time>2016-03-06T10:54:37Z</time>
      </trkpt>
      <trkpt lat="45.4958" lon="6.63007">
        <ele>2341.91</ele>
        <time>2016-03-06T10:54:38Z</time>
      </trkpt>
      <trkpt lat="45.49579" lon="6.63004">
        <ele>2341.91</ele>
        <time>2016-03-06T10:54:39Z</time>
      </trkpt>
      <trkpt lat="45.49576" lon="6.62985">
        <ele>2337.58</ele>
        <time>2016-03-06T10:54:44Z</time>
      </trkpt>
      <trkpt lat="45.49571" lon="6.62965">
        <ele>2333.74</ele>
        <time>2016-03-06T10:54:47Z</time>
      </trkpt>
      <trkpt lat="45.49564" lon="6.6294">
        <ele>2331.81</ele>
        <time>2016-03-06T10:54:54Z</time>
      </trkpt>
      <trkpt lat="45.49562" lon="6.62934">
        <ele>2329.89</ele>
        <time>2016-03-06T10:54:55Z</time>
      </trkpt>
      <trkpt lat="45.4956" lon="6.62927">
        <ele>2328.93</ele>
        <time>2016-03-06T10:54:56Z</time>
      </trkpt>
      <trkpt lat="45.49558" lon="6.62919">
        <ele>2326.53</ele>
        <time>2016-03-06T10:54:57Z</time>
      </trkpt>
      <trkpt lat="45.49556" lon="6.62911">
        <ele>2324.61</ele>
        <time>2016-03-06T10:54:58Z</time>
      </trkpt>
      <trkpt lat="45.49554" lon="6.62904">
        <ele>2322.2</ele>
        <time>2016-03-06T10:54:59Z</time>
      </trkpt>
      <trkpt lat="45.49551" lon="6.62898">
        <ele>2322.2</ele>
        <time>2016-03-06T10:55:00Z</time>
      </trkpt>
      <trkpt lat="45.49548" lon="6.62892">
        <ele>2319.8</ele>
        <time>2016-03-06T10:55:01Z</time>
      </trkpt>
      <trkpt lat="45.49545" lon="6.62886">
        <ele>2317.88</ele>
        <time>2016-03-06T10:55:02Z</time>
      </trkpt>
      <trkpt lat="45.49544" lon="6.6288">
        <ele>2316.43</ele>
        <time>2016-03-06T10:55:03Z</time>
      </trkpt>
      <trkpt lat="45.49544" lon="6.62874">
        <ele>2314.99</ele>
        <time>2016-03-06T10:55:04Z</time>
      </trkpt>
      <trkpt lat="45.49545" lon="6.62862">
        <ele>2313.55</ele>
        <time>2016-03-06T10:55:06Z</time>
      </trkpt>
      <trkpt lat="45.49545" lon="6.62855">
        <ele>2312.59</ele>
        <time>2016-03-06T10:55:07Z</time>
      </trkpt>
      <trkpt lat="45.49544" lon="6.6285">
        <ele>2312.11</ele>
        <time>2016-03-06T10:55:08Z</time>
      </trkpt>
      <trkpt lat="45.49542" lon="6.62844">
        <ele>2311.15</ele>
        <time>2016-03-06T10:55:09Z</time>
      </trkpt>
      <trkpt lat="45.49541" lon="6.6284">
        <ele>2311.15</ele>
        <time>2016-03-06T10:55:10Z</time>
      </trkpt>
      <trkpt lat="45.49539" lon="6.62836">
        <ele>2309.7</ele>
        <time>2016-03-06T10:55:11Z</time>
      </trkpt>
      <trkpt lat="45.49537" lon="6.62833">
        <ele>2309.22</ele>
        <time>2016-03-06T10:55:12Z</time>
      </trkpt>
      <trkpt lat="45.49535" lon="6.6283">
        <ele>2309.22</ele>
        <time>2016-03-06T10:55:13Z</time>
      </trkpt>
      <trkpt lat="45.49525" lon="6.62822">
        <ele>2306.34</ele>
        <time>2016-03-06T10:55:16Z</time>
      </trkpt>
      <trkpt lat="45.49521" lon="6.62817">
        <ele>2304.42</ele>
        <time>2016-03-06T10:55:17Z</time>
      </trkpt>
      <trkpt lat="45.49516" lon="6.62812">
        <ele>2302.98</ele>
        <time>2016-03-06T10:55:18Z</time>
      </trkpt>
      <trkpt lat="45.49513" lon="6.62806">
        <ele>2302.01</ele>
        <time>2016-03-06T10:55:19Z</time>
      </trkpt>
      <trkpt lat="45.4951" lon="6.62801">
        <ele>2302.01</ele>
        <time>2016-03-06T10:55:20Z</time>
      </trkpt>
      <trkpt lat="45.49508" lon="6.62796">
        <ele>2301.05</ele>
        <time>2016-03-06T10:55:21Z</time>
      </trkpt>
      <trkpt lat="45.49497" lon="6.62759">
        <ele>2297.69</ele>
        <time>2016-03-06T10:55:32Z</time>
      </trkpt>
      <trkpt lat="45.49492" lon="6.62749">
        <ele>2296.25</ele>
        <time>2016-03-06T10:55:35Z</time>
      </trkpt>
      <trkpt lat="45.49486" lon="6.62738">
        <ele>2294.32</ele>
        <time>2016-03-06T10:55:38Z</time>
      </trkpt>
      <trkpt lat="45.49484" lon="6.62733">
        <ele>2292.4</ele>
        <time>2016-03-06T10:55:39Z</time>
      </trkpt>
      <trkpt lat="45.49483" lon="6.62725">
        <ele>2291.44</ele>
        <time>2016-03-06T10:55:40Z</time>
      </trkpt>
      <trkpt lat="45.49484" lon="6.62717">
        <ele>2288.56</ele>
        <time>2016-03-06T10:55:41Z</time>
      </trkpt>
      <trkpt lat="45.49485" lon="6.62708">
        <ele>2286.15</ele>
        <time>2016-03-06T10:55:42Z</time>
      </trkpt>
      <trkpt lat="45.49489" lon="6.62696">
        <ele>2282.79</ele>
        <time>2016-03-06T10:55:43Z</time>
      </trkpt>
      <trkpt lat="45.49491" lon="6.62686">
        <ele>2277.02</ele>
        <time>2016-03-06T10:55:45Z</time>
      </trkpt>
      <trkpt lat="45.4949" lon="6.62683">
        <ele>2278.46</ele>
        <time>2016-03-06T10:55:46Z</time>
      </trkpt>
      <trkpt lat="45.49491" lon="6.62682">
        <ele>2278.46</ele>
        <time>2016-03-06T10:55:50Z</time>
      </trkpt>
      <trkpt lat="45.49489" lon="6.62671">
        <ele>2276.54</ele>
        <time>2016-03-06T10:55:54Z</time>
      </trkpt>
      <trkpt lat="45.49488" lon="6.62659">
        <ele>2274.62</ele>
        <time>2016-03-06T10:55:57Z</time>
      </trkpt>
      <trkpt lat="45.49487" lon="6.62641">
        <ele>2270.77</ele>
        <time>2016-03-06T10:56:00Z</time>
      </trkpt>
      <trkpt lat="45.49487" lon="6.62619">
        <ele>2266.45</ele>
        <time>2016-03-06T10:56:03Z</time>
      </trkpt>
      <trkpt lat="45.49488" lon="6.62613">
        <ele>2266.45</ele>
        <time>2016-03-06T10:56:04Z</time>
      </trkpt>
      <trkpt lat="45.4949" lon="6.62597">
        <ele>2264.52</ele>
        <time>2016-03-06T10:56:08Z</time>
      </trkpt>
      <trkpt lat="45.4949" lon="6.62565">
        <ele>2262.12</ele>
        <time>2016-03-06T10:56:20Z</time>
      </trkpt>
      <trkpt lat="45.49489" lon="6.62561">
        <ele>2259.72</ele>
        <time>2016-03-06T10:56:21Z</time>
      </trkpt>
      <trkpt lat="45.49493" lon="6.62545">
        <ele>2256.83</ele>
        <time>2016-03-06T10:56:24Z</time>
      </trkpt>
      <trkpt lat="45.49506" lon="6.6251">
        <ele>2249.62</ele>
        <time>2016-03-06T10:56:28Z</time>
      </trkpt>
      <trkpt lat="45.49511" lon="6.62495">
        <ele>2249.14</ele>
        <time>2016-03-06T10:56:31Z</time>
      </trkpt>
      <trkpt lat="45.49514" lon="6.62488">
        <ele>2250.58</ele>
        <time>2016-03-06T10:56:41Z</time>
      </trkpt>
      <trkpt lat="45.49518" lon="6.62479">
        <ele>2251.06</ele>
        <time>2016-03-06T10:56:52Z</time>
      </trkpt>
      <trkpt lat="45.4952" lon="6.62476">
        <ele>2249.62</ele>
        <time>2016-03-06T10:56:56Z</time>
      </trkpt>
      <trkpt lat="45.49526" lon="6.62466">
        <ele>2247.7</ele>
        <time>2016-03-06T10:57:00Z</time>
      </trkpt>
      <trkpt lat="45.4953" lon="6.62459">
        <ele>2246.26</ele>
        <time>2016-03-06T10:57:01Z</time>
      </trkpt>
      <trkpt lat="45.49533" lon="6.62453">
        <ele>2244.33</ele>
        <time>2016-03-06T10:57:02Z</time>
      </trkpt>
      <trkpt lat="45.49537" lon="6.62444">
        <ele>2241.93</ele>
        <time>2016-03-06T10:57:03Z</time>
      </trkpt>
      <trkpt lat="45.4954" lon="6.62435">
        <ele>2240.01</ele>
        <time>2016-03-06T10:57:04Z</time>
      </trkpt>
      <trkpt lat="45.49542" lon="6.62425">
        <ele>2237.13</ele>
        <time>2016-03-06T10:57:05Z</time>
      </trkpt>
      <trkpt lat="45.49544" lon="6.62415">
        <ele>2236.64</ele>
        <time>2016-03-06T10:57:06Z</time>
      </trkpt>
      <trkpt lat="45.49546" lon="6.62396">
        <ele>2234.72</ele>
        <time>2016-03-06T10:57:08Z</time>
      </trkpt>
      <trkpt lat="45.49547" lon="6.62381">
        <ele>2233.28</ele>
        <time>2016-03-06T10:57:10Z</time>
      </trkpt>
      <trkpt lat="45.49547" lon="6.62373">
        <ele>2235.2</ele>
        <time>2016-03-06T10:57:12Z</time>
      </trkpt>
      <trkpt lat="45.49558" lon="6.62339">
        <ele>2231.36</ele>
        <time>2016-03-06T10:57:20Z</time>
      </trkpt>
      <trkpt lat="45.4956" lon="6.62334">
        <ele>2231.36</ele>
        <time>2016-03-06T10:57:21Z</time>
      </trkpt>
      <trkpt lat="45.49564" lon="6.62319">
        <ele>2235.2</ele>
        <time>2016-03-06T10:57:26Z</time>
      </trkpt>
      <trkpt lat="45.49565" lon="6.62319">
        <ele>2231.84</ele>
        <time>2016-03-06T10:57:27Z</time>
      </trkpt>
      <trkpt lat="45.49565" lon="6.62314">
        <ele>2235.2</ele>
        <time>2016-03-06T10:57:32Z</time>
      </trkpt>
      <trkpt lat="45.49568" lon="6.62302">
        <ele>2233.28</ele>
        <time>2016-03-06T10:57:46Z</time>
      </trkpt>
      <trkpt lat="45.49577" lon="6.62285">
        <ele>2229.92</ele>
        <time>2016-03-06T10:57:51Z</time>
      </trkpt>
      <trkpt lat="45.49579" lon="6.6228">
        <ele>2228.95</ele>
        <time>2016-03-06T10:57:52Z</time>
      </trkpt>
      <trkpt lat="45.4958" lon="6.62274">
        <ele>2227.51</ele>
        <time>2016-03-06T10:57:53Z</time>
      </trkpt>
      <trkpt lat="45.4958" lon="6.62268">
        <ele>2227.51</ele>
        <time>2016-03-06T10:57:54Z</time>
      </trkpt>
      <trkpt lat="45.4958" lon="6.6226">
        <ele>2225.59</ele>
        <time>2016-03-06T10:57:55Z</time>
      </trkpt>
      <trkpt lat="45.49579" lon="6.62253">
        <ele>2223.19</ele>
        <time>2016-03-06T10:57:56Z</time>
      </trkpt>
      <trkpt lat="45.49578" lon="6.62246">
        <ele>2221.26</ele>
        <time>2016-03-06T10:57:57Z</time>
      </trkpt>
      <trkpt lat="45.49578" lon="6.62239">
        <ele>2218.38</ele>
        <time>2016-03-06T10:57:58Z</time>
      </trkpt>
      <trkpt lat="45.49577" lon="6.62233">
        <ele>2216.46</ele>
        <time>2016-03-06T10:57:59Z</time>
      </trkpt>
      <trkpt lat="45.49579" lon="6.62227">
        <ele>2215.01</ele>
        <time>2016-03-06T10:58:00Z</time>
      </trkpt>
      <trkpt lat="45.49581" lon="6.62221">
        <ele>2214.53</ele>
        <time>2016-03-06T10:58:01Z</time>
      </trkpt>
      <trkpt lat="45.49587" lon="6.6221">
        <ele>2213.09</ele>
        <time>2016-03-06T10:58:05Z</time>
      </trkpt>
      <trkpt lat="45.49599" lon="6.62195">
        <ele>2209.25</ele>
        <time>2016-03-06T10:58:12Z</time>
      </trkpt>
      <trkpt lat="45.49609" lon="6.62183">
        <ele>2206.84</ele>
        <time>2016-03-06T10:58:17Z</time>
      </trkpt>
      <trkpt lat="45.49616" lon="6.62174">
        <ele>2204.92</ele>
        <time>2016-03-06T10:58:21Z</time>
      </trkpt>
      <trkpt lat="45.49629" lon="6.62157">
        <ele>2202.04</ele>
        <time>2016-03-06T10:58:28Z</time>
      </trkpt>
      <trkpt lat="45.49639" lon="6.62144">
        <ele>2198.67</ele>
        <time>2016-03-06T10:58:33Z</time>
      </trkpt>
      <trkpt lat="45.49643" lon="6.62137">
        <ele>2197.71</ele>
        <time>2016-03-06T10:58:35Z</time>
      </trkpt>
      <trkpt lat="45.49648" lon="6.62129">
        <ele>2196.27</ele>
        <time>2016-03-06T10:58:37Z</time>
      </trkpt>
      <trkpt lat="45.49654" lon="6.62114">
        <ele>2193.39</ele>
        <time>2016-03-06T10:58:40Z</time>
      </trkpt>
      <trkpt lat="45.49659" lon="6.62103">
        <ele>2191.46</ele>
        <time>2016-03-06T10:58:42Z</time>
      </trkpt>
      <trkpt lat="45.49665" lon="6.62092">
        <ele>2188.58</ele>
        <time>2016-03-06T10:58:45Z</time>
      </trkpt>
      <trkpt lat="45.49669" lon="6.62083">
        <ele>2189.54</ele>
        <time>2016-03-06T10:58:54Z</time>
      </trkpt>
      <trkpt lat="45.49669" lon="6.62083">
        <ele>2189.06</ele>
        <time>2016-03-06T10:59:27Z</time>
      </trkpt>
      <trkpt lat="45.49668" lon="6.62081">
        <ele>2188.58</ele>
        <time>2016-03-06T10:59:41Z</time>
      </trkpt>
      <trkpt lat="45.49668" lon="6.62078">
        <ele>2188.1</ele>
        <time>2016-03-06T10:59:42Z</time>
      </trkpt>
      <trkpt lat="45.49668" lon="6.62076">
        <ele>2187.62</ele>
        <time>2016-03-06T10:59:43Z</time>
      </trkpt>
      <trkpt lat="45.49668" lon="6.62074">
        <ele>2187.62</ele>
        <time>2016-03-06T10:59:44Z</time>
      </trkpt>
      <trkpt lat="45.49668" lon="6.62071">
        <ele>2187.14</ele>
        <time>2016-03-06T10:59:45Z</time>
      </trkpt>
      <trkpt lat="45.49667" lon="6.62046">
        <ele>2184.25</ele>
        <time>2016-03-06T10:59:57Z</time>
      </trkpt>
      <trkpt lat="45.49666" lon="6.62044">
        <ele>2183.77</ele>
        <time>2016-03-06T10:59:58Z</time>
      </trkpt>
      <trkpt lat="45.49665" lon="6.62042">
        <ele>2183.77</ele>
        <time>2016-03-06T10:59:59Z</time>
      </trkpt>
      <trkpt lat="45.49658" lon="6.62022">
        <ele>2180.41</ele>
        <time>2016-03-06T11:00:06Z</time>
      </trkpt>
      <trkpt lat="45.49651" lon="6.62002">
        <ele>2176.56</ele>
        <time>2016-03-06T11:00:10Z</time>
      </trkpt>
      <trkpt lat="45.49644" lon="6.61988">
        <ele>2173.68</ele>
        <time>2016-03-06T11:00:12Z</time>
      </trkpt>
      <trkpt lat="45.49642" lon="6.61981">
        <ele>2172.24</ele>
        <time>2016-03-06T11:00:13Z</time>
      </trkpt>
      <trkpt lat="45.4964" lon="6.61975">
        <ele>2171.76</ele>
        <time>2016-03-06T11:00:14Z</time>
      </trkpt>
      <trkpt lat="45.4964" lon="6.61969">
        <ele>2170.79</ele>
        <time>2016-03-06T11:00:15Z</time>
      </trkpt>
      <trkpt lat="45.4964" lon="6.61964">
        <ele>2170.31</ele>
        <time>2016-03-06T11:00:16Z</time>
      </trkpt>
      <trkpt lat="45.4964" lon="6.6196">
        <ele>2169.83</ele>
        <time>2016-03-06T11:00:17Z</time>
      </trkpt>
      <trkpt lat="45.49641" lon="6.61955">
        <ele>2169.83</ele>
        <time>2016-03-06T11:00:18Z</time>
      </trkpt>
      <trkpt lat="45.49642" lon="6.61951">
        <ele>2169.35</ele>
        <time>2016-03-06T11:00:19Z</time>
      </trkpt>
      <trkpt lat="45.49643" lon="6.61947">
        <ele>2168.39</ele>
        <time>2016-03-06T11:00:20Z</time>
      </trkpt>
      <trkpt lat="45.49648" lon="6.61933">
        <ele>2165.51</ele>
        <time>2016-03-06T11:00:23Z</time>
      </trkpt>
      <trkpt lat="45.49651" lon="6.61926">
        <ele>2164.55</ele>
        <time>2016-03-06T11:00:24Z</time>
      </trkpt>
      <trkpt lat="45.49653" lon="6.6192">
        <ele>2162.62</ele>
        <time>2016-03-06T11:00:25Z</time>
      </trkpt>
      <trkpt lat="45.49662" lon="6.61905">
        <ele>2159.26</ele>
        <time>2016-03-06T11:00:28Z</time>
      </trkpt>
      <trkpt lat="45.4967" lon="6.61902">
        <ele>2157.34</ele>
        <time>2016-03-06T11:00:30Z</time>
      </trkpt>
      <trkpt lat="45.49678" lon="6.619">
        <ele>2154.93</ele>
        <time>2016-03-06T11:00:32Z</time>
      </trkpt>
      <trkpt lat="45.49694" lon="6.61893">
        <ele>2150.61</ele>
        <time>2016-03-06T11:00:35Z</time>
      </trkpt>
      <trkpt lat="45.49703" lon="6.61888">
        <ele>2149.16</ele>
        <time>2016-03-06T11:00:37Z</time>
      </trkpt>
      <trkpt lat="45.4971" lon="6.61886">
        <ele>2148.2</ele>
        <time>2016-03-06T11:00:45Z</time>
      </trkpt>
      <trkpt lat="45.4971" lon="6.61878">
        <ele>2145.32</ele>
        <time>2016-03-06T11:00:48Z</time>
      </trkpt>
      <trkpt lat="45.49706" lon="6.61865">
        <ele>2141.95</ele>
        <time>2016-03-06T11:00:50Z</time>
      </trkpt>
      <trkpt lat="45.49707" lon="6.6185">
        <ele>2137.63</ele>
        <time>2016-03-06T11:00:52Z</time>
      </trkpt>
      <trkpt lat="45.49709" lon="6.61837">
        <ele>2134.26</ele>
        <time>2016-03-06T11:00:54Z</time>
      </trkpt>
      <trkpt lat="45.4971" lon="6.61831">
        <ele>2134.26</ele>
        <time>2016-03-06T11:00:55Z</time>
      </trkpt>
      <trkpt lat="45.4971" lon="6.6182">
        <ele>2129.94</ele>
        <time>2016-03-06T11:00:57Z</time>
      </trkpt>
      <trkpt lat="45.49709" lon="6.61816">
        <ele>2128.98</ele>
        <time>2016-03-06T11:01:04Z</time>
      </trkpt>
      <trkpt lat="45.49708" lon="6.61809">
        <ele>2127.53</ele>
        <time>2016-03-06T11:01:15Z</time>
      </trkpt>
      <trkpt lat="45.4971" lon="6.61799">
        <ele>2121.77</ele>
        <time>2016-03-06T11:01:17Z</time>
      </trkpt>
      <trkpt lat="45.49709" lon="6.61794">
        <ele>2111.19</ele>
        <time>2016-03-06T11:01:18Z</time>
      </trkpt>
      <trkpt lat="45.4971" lon="6.61789">
        <ele>2126.57</ele>
        <time>2016-03-06T11:01:19Z</time>
      </trkpt>
      <trkpt lat="45.49712" lon="6.61783">
        <ele>2115.04</ele>
        <time>2016-03-06T11:01:20Z</time>
      </trkpt>
      <trkpt lat="45.49714" lon="6.61777">
        <ele>2111.19</ele>
        <time>2016-03-06T11:01:21Z</time>
      </trkpt>
      <trkpt lat="45.49715" lon="6.61765">
        <ele>2106.39</ele>
        <time>2016-03-06T11:01:23Z</time>
      </trkpt>
      <trkpt lat="45.49715" lon="6.61759">
        <ele>2106.39</ele>
        <time>2016-03-06T11:01:24Z</time>
      </trkpt>
      <trkpt lat="45.49716" lon="6.61752">
        <ele>2099.66</ele>
        <time>2016-03-06T11:01:25Z</time>
      </trkpt>
      <trkpt lat="45.49717" lon="6.61745">
        <ele>2093.41</ele>
        <time>2016-03-06T11:01:26Z</time>
      </trkpt>
      <trkpt lat="45.4972" lon="6.61738">
        <ele>2097.25</ele>
        <time>2016-03-06T11:01:27Z</time>
      </trkpt>
      <trkpt lat="45.49723" lon="6.61731">
        <ele>2091.49</ele>
        <time>2016-03-06T11:01:28Z</time>
      </trkpt>
      <trkpt lat="45.49727" lon="6.61724">
        <ele>2087.16</ele>
        <time>2016-03-06T11:01:29Z</time>
      </trkpt>
      <trkpt lat="45.49732" lon="6.61704">
        <ele>2078.03</ele>
        <time>2016-03-06T11:01:32Z</time>
      </trkpt>
      <trkpt lat="45.49737" lon="6.61711">
        <ele>2079.47</ele>
        <time>2016-03-06T11:01:43Z</time>
      </trkpt>
      <trkpt lat="45.49737" lon="6.61716">
        <ele>2079.95</ele>
        <time>2016-03-06T11:02:04Z</time>
      </trkpt>
      <trkpt lat="45.49741" lon="6.61718">
        <ele>2080.43</ele>
        <time>2016-03-06T11:02:32Z</time>
      </trkpt>
      <trkpt lat="45.49741" lon="6.61719">
        <ele>2080.91</ele>
        <time>2016-03-06T11:02:57Z</time>
      </trkpt>
      <trkpt lat="45.49743" lon="6.61715">
        <ele>2080.91</ele>
        <time>2016-03-06T11:03:21Z</time>
      </trkpt>
      <trkpt lat="45.49751" lon="6.61712">
        <ele>2078.99</ele>
        <time>2016-03-06T11:03:27Z</time>
      </trkpt>
      <trkpt lat="45.49759" lon="6.61713">
        <ele>2078.99</ele>
        <time>2016-03-06T11:03:40Z</time>
      </trkpt>
      <trkpt lat="45.4978" lon="6.61723">
        <ele>2076.59</ele>
        <time>2016-03-06T11:03:52Z</time>
      </trkpt>
      <trkpt lat="45.49787" lon="6.61728">
        <ele>2075.14</ele>
        <time>2016-03-06T11:03:57Z</time>
      </trkpt>
      <trkpt lat="45.49806" lon="6.61734">
        <ele>2071.78</ele>
        <time>2016-03-06T11:04:02Z</time>
      </trkpt>
      <trkpt lat="45.49811" lon="6.61736">
        <ele>2071.78</ele>
        <time>2016-03-06T11:04:03Z</time>
      </trkpt>
      <trkpt lat="45.49816" lon="6.61736">
        <ele>2070.82</ele>
        <time>2016-03-06T11:04:04Z</time>
      </trkpt>
      <trkpt lat="45.49832" lon="6.61738">
        <ele>2068.89</ele>
        <time>2016-03-06T11:04:07Z</time>
      </trkpt>
      <trkpt lat="45.49837" lon="6.61739">
        <ele>2067.93</ele>
        <time>2016-03-06T11:04:08Z</time>
      </trkpt>
      <trkpt lat="45.49842" lon="6.61741">
        <ele>2067.45</ele>
        <time>2016-03-06T11:04:09Z</time>
      </trkpt>
      <trkpt lat="45.49887" lon="6.6175">
        <ele>2064.57</ele>
        <time>2016-03-06T11:04:20Z</time>
      </trkpt>
      <trkpt lat="45.49891" lon="6.61751">
        <ele>2063.13</ele>
        <time>2016-03-06T11:04:21Z</time>
      </trkpt>
      <trkpt lat="45.49919" lon="6.61758">
        <ele>2060.24</ele>
        <time>2016-03-06T11:04:26Z</time>
      </trkpt>
      <trkpt lat="45.49933" lon="6.61766">
        <ele>2058.8</ele>
        <time>2016-03-06T11:04:29Z</time>
      </trkpt>
      <trkpt lat="45.49957" lon="6.61782">
        <ele>2055.44</ele>
        <time>2016-03-06T11:04:35Z</time>
      </trkpt>
      <trkpt lat="45.49967" lon="6.61792">
        <ele>2055.92</ele>
        <time>2016-03-06T11:04:43Z</time>
      </trkpt>
      <trkpt lat="45.49978" lon="6.61799">
        <ele>2054.96</ele>
        <time>2016-03-06T11:04:57Z</time>
      </trkpt>
      <trkpt lat="45.49983" lon="6.61802">
        <ele>2053.99</ele>
        <time>2016-03-06T11:05:03Z</time>
      </trkpt>
      <trkpt lat="45.49992" lon="6.61807">
        <ele>2053.99</ele>
        <time>2016-03-06T11:05:17Z</time>
      </trkpt>
      <trkpt lat="45.49998" lon="6.61813">
        <ele>2052.55</ele>
        <time>2016-03-06T11:05:26Z</time>
      </trkpt>
      <trkpt lat="45.49999" lon="6.61814">
        <ele>2052.55</ele>
        <time>2016-03-06T11:05:27Z</time>
      </trkpt>
      <trkpt lat="45.50017" lon="6.61826">
        <ele>2049.19</ele>
        <time>2016-03-06T11:05:36Z</time>
      </trkpt>
      <trkpt lat="45.50035" lon="6.61829">
        <ele>2048.23</ele>
        <time>2016-03-06T11:05:49Z</time>
      </trkpt>
      <trkpt lat="45.50045" lon="6.61834">
        <ele>2047.75</ele>
        <time>2016-03-06T11:06:05Z</time>
      </trkpt>
      <trkpt lat="45.50047" lon="6.61831">
        <ele>2048.23</ele>
        <time>2016-03-06T11:06:29Z</time>
      </trkpt>
      <trkpt lat="45.50047" lon="6.61829">
        <ele>2049.19</ele>
        <time>2016-03-06T11:06:44Z</time>
      </trkpt>
      <trkpt lat="45.50049" lon="6.61829">
        <ele>2046.78</ele>
        <time>2016-03-06T11:06:45Z</time>
      </trkpt>
      <trkpt lat="45.5005" lon="6.61822">
        <ele>2045.34</ele>
        <time>2016-03-06T11:06:47Z</time>
      </trkpt>
      <trkpt lat="45.50052" lon="6.61815">
        <ele>2039.09</ele>
        <time>2016-03-06T11:06:49Z</time>
      </trkpt>
      <trkpt lat="45.50054" lon="6.61812">
        <ele>2041.98</ele>
        <time>2016-03-06T11:06:50Z</time>
      </trkpt>
      <trkpt lat="45.50055" lon="6.61808">
        <ele>2039.09</ele>
        <time>2016-03-06T11:06:51Z</time>
      </trkpt>
      <trkpt lat="45.50054" lon="6.61806">
        <ele>2035.73</ele>
        <time>2016-03-06T11:06:52Z</time>
      </trkpt>
      <trkpt lat="45.50055" lon="6.61804">
        <ele>2035.73</ele>
        <time>2016-03-06T11:06:53Z</time>
      </trkpt>
      <trkpt lat="45.50057" lon="6.61803">
        <ele>2032.36</ele>
        <time>2016-03-06T11:06:54Z</time>
      </trkpt>
      <trkpt lat="45.50059" lon="6.61805">
        <ele>2032.84</ele>
        <time>2016-03-06T11:06:55Z</time>
      </trkpt>
      <trkpt lat="45.50064" lon="6.61809">
        <ele>2028.04</ele>
        <time>2016-03-06T11:06:58Z</time>
      </trkpt>
      <trkpt lat="45.50068" lon="6.6181">
        <ele>2028.04</ele>
        <time>2016-03-06T11:06:59Z</time>
      </trkpt>
      <trkpt lat="45.50073" lon="6.61806">
        <ele>2021.31</ele>
        <time>2016-03-06T11:07:01Z</time>
      </trkpt>
      <trkpt lat="45.50077" lon="6.61799">
        <ele>2019.87</ele>
        <time>2016-03-06T11:07:03Z</time>
      </trkpt>
      <trkpt lat="45.50081" lon="6.61793">
        <ele>2017.46</ele>
        <time>2016-03-06T11:07:04Z</time>
      </trkpt>
      <trkpt lat="45.5009" lon="6.6178">
        <ele>2007.85</ele>
        <time>2016-03-06T11:07:06Z</time>
      </trkpt>
      <trkpt lat="45.50093" lon="6.61775">
        <ele>2010.25</ele>
        <time>2016-03-06T11:07:07Z</time>
      </trkpt>
      <trkpt lat="45.50096" lon="6.61769">
        <ele>2003.52</ele>
        <time>2016-03-06T11:07:08Z</time>
      </trkpt>
      <trkpt lat="45.50099" lon="6.61763">
        <ele>2005.93</ele>
        <time>2016-03-06T11:07:09Z</time>
      </trkpt>
      <trkpt lat="45.50103" lon="6.61756">
        <ele>2002.08</ele>
        <time>2016-03-06T11:07:10Z</time>
      </trkpt>
      <trkpt lat="45.50107" lon="6.61752">
        <ele>1998.72</ele>
        <time>2016-03-06T11:07:16Z</time>
      </trkpt>
      <trkpt lat="45.50104" lon="6.61757">
        <ele>1998.72</ele>
        <time>2016-03-06T11:07:39Z</time>
      </trkpt>
      <trkpt lat="45.50101" lon="6.61761">
        <ele>1998.72</ele>
        <time>2016-03-06T11:08:02Z</time>
      </trkpt>
      <trkpt lat="45.50103" lon="6.6176">
        <ele>2000.64</ele>
        <time>2016-03-06T11:08:06Z</time>
      </trkpt>
      <trkpt lat="45.50105" lon="6.61759">
        <ele>1999.2</ele>
        <time>2016-03-06T11:08:13Z</time>
      </trkpt>
      <trkpt lat="45.5012" lon="6.61752">
        <ele>1995.83</ele>
        <time>2016-03-06T11:08:19Z</time>
      </trkpt>
      <trkpt lat="45.50134" lon="6.61735">
        <ele>1990.55</ele>
        <time>2016-03-06T11:08:23Z</time>
      </trkpt>
      <trkpt lat="45.50139" lon="6.61722">
        <ele>1987.18</ele>
        <time>2016-03-06T11:08:25Z</time>
      </trkpt>
      <trkpt lat="45.50143" lon="6.61715">
        <ele>1984.3</ele>
        <time>2016-03-06T11:08:26Z</time>
      </trkpt>
      <trkpt lat="45.50151" lon="6.617">
        <ele>1978.05</ele>
        <time>2016-03-06T11:08:28Z</time>
      </trkpt>
      <trkpt lat="45.50162" lon="6.61678">
        <ele>1972.76</ele>
        <time>2016-03-06T11:08:31Z</time>
      </trkpt>
      <trkpt lat="45.50167" lon="6.61665">
        <ele>1968.44</ele>
        <time>2016-03-06T11:08:33Z</time>
      </trkpt>
      <trkpt lat="45.50169" lon="6.61664">
        <ele>1967.96</ele>
        <time>2016-03-06T11:08:34Z</time>
      </trkpt>
      <trkpt lat="45.50166" lon="6.61669">
        <ele>1967.48</ele>
        <time>2016-03-06T11:08:40Z</time>
      </trkpt>
      <trkpt lat="45.50163" lon="6.61675">
        <ele>1967.96</ele>
        <time>2016-03-06T11:09:01Z</time>
      </trkpt>
      <trkpt lat="45.50163" lon="6.61675">
        <ele>1967.96</ele>
        <time>2016-03-06T11:09:02Z</time>
      </trkpt>
      <trkpt lat="45.50161" lon="6.61676">
        <ele>1968.44</ele>
        <time>2016-03-06T11:09:31Z</time>
      </trkpt>
      <trkpt lat="45.50165" lon="6.61673">
        <ele>1967.96</ele>
        <time>2016-03-06T11:09:47Z</time>
      </trkpt>
      <trkpt lat="45.50162" lon="6.61676">
        <ele>1967.96</ele>
        <time>2016-03-06T11:10:10Z</time>
      </trkpt>
      <trkpt lat="45.50165" lon="6.61673">
        <ele>1967.96</ele>
        <time>2016-03-06T11:10:16Z</time>
      </trkpt>
      <trkpt lat="45.50167" lon="6.61659">
        <ele>1963.63</ele>
        <time>2016-03-06T11:10:20Z</time>
      </trkpt>
      <trkpt lat="45.50169" lon="6.61642">
        <ele>1957.38</ele>
        <time>2016-03-06T11:10:22Z</time>
      </trkpt>
      <trkpt lat="45.50167" lon="6.61628">
        <ele>1954.5</ele>
        <time>2016-03-06T11:10:24Z</time>
      </trkpt>
      <trkpt lat="45.5017" lon="6.61622">
        <ele>1954.5</ele>
        <time>2016-03-06T11:10:26Z</time>
      </trkpt>
      <trkpt lat="45.50173" lon="6.6162">
        <ele>1954.5</ele>
        <time>2016-03-06T11:10:27Z</time>
      </trkpt>
      <trkpt lat="45.50174" lon="6.61619">
        <ele>1953.06</ele>
        <time>2016-03-06T11:10:28Z</time>
      </trkpt>
      <trkpt lat="45.50177" lon="6.61618">
        <ele>1953.06</ele>
        <time>2016-03-06T11:10:29Z</time>
      </trkpt>
      <trkpt lat="45.50179" lon="6.61617">
        <ele>1953.06</ele>
        <time>2016-03-06T11:10:30Z</time>
      </trkpt>
      <trkpt lat="45.5018" lon="6.61616">
        <ele>1953.06</ele>
        <time>2016-03-06T11:10:31Z</time>
      </trkpt>
      <trkpt lat="45.50182" lon="6.61616">
        <ele>1953.06</ele>
        <time>2016-03-06T11:10:32Z</time>
      </trkpt>
      <trkpt lat="45.50185" lon="6.61616">
        <ele>1953.06</ele>
        <time>2016-03-06T11:10:33Z</time>
      </trkpt>
      <trkpt lat="45.50194" lon="6.61617">
        <ele>1949.69</ele>
        <time>2016-03-06T11:10:38Z</time>
      </trkpt>
      <trkpt lat="45.50196" lon="6.61617">
        <ele>1953.06</ele>
        <time>2016-03-06T11:10:39Z</time>
      </trkpt>
      <trkpt lat="45.50202" lon="6.61617">
        <ele>1950.17</ele>
        <time>2016-03-06T11:10:43Z</time>
      </trkpt>
      <trkpt lat="45.5022" lon="6.6161">
        <ele>1950.17</ele>
        <time>2016-03-06T11:10:54Z</time>
      </trkpt>
      <trkpt lat="45.50224" lon="6.61609">
        <ele>1948.73</ele>
        <time>2016-03-06T11:10:58Z</time>
      </trkpt>
      <trkpt lat="45.50225" lon="6.61608">
        <ele>1950.17</ele>
        <time>2016-03-06T11:10:59Z</time>
      </trkpt>
      <trkpt lat="45.5024" lon="6.61599">
        <ele>1946.81</ele>
        <time>2016-03-06T11:11:08Z</time>
      </trkpt>
      <trkpt lat="45.50242" lon="6.61598">
        <ele>1946.81</ele>
        <time>2016-03-06T11:11:09Z</time>
      </trkpt>
      <trkpt lat="45.50244" lon="6.61598">
        <ele>1946.81</ele>
        <time>2016-03-06T11:11:10Z</time>
      </trkpt>
      <trkpt lat="45.50257" lon="6.61604">
        <ele>1943.44</ele>
        <time>2016-03-06T11:11:18Z</time>
      </trkpt>
      <trkpt lat="45.50259" lon="6.61605">
        <ele>1943.44</ele>
        <time>2016-03-06T11:11:19Z</time>
      </trkpt>
      <trkpt lat="45.50275" lon="6.61611">
        <ele>1942.48</ele>
        <time>2016-03-06T11:11:31Z</time>
      </trkpt>
      <trkpt lat="45.50279" lon="6.6161">
        <ele>1942</ele>
        <time>2016-03-06T11:11:34Z</time>
      </trkpt>
      <trkpt lat="45.50281" lon="6.61609">
        <ele>1942</ele>
        <time>2016-03-06T11:11:35Z</time>
      </trkpt>
      <trkpt lat="45.50283" lon="6.61608">
        <ele>1942</ele>
        <time>2016-03-06T11:11:36Z</time>
      </trkpt>
      <trkpt lat="45.50302" lon="6.61616">
        <ele>1939.12</ele>
        <time>2016-03-06T11:11:49Z</time>
      </trkpt>
      <trkpt lat="45.50322" lon="6.61624">
        <ele>1937.19</ele>
        <time>2016-03-06T11:12:00Z</time>
      </trkpt>
      <trkpt lat="45.5034" lon="6.61603">
        <ele>1933.83</ele>
        <time>2016-03-06T11:12:11Z</time>
      </trkpt>
      <trkpt lat="45.50347" lon="6.61574">
        <ele>1930.46</ele>
        <time>2016-03-06T11:12:17Z</time>
      </trkpt>
      <trkpt lat="45.50348" lon="6.61538">
        <ele>1926.62</ele>
        <time>2016-03-06T11:12:27Z</time>
      </trkpt>
      <trkpt lat="45.50345" lon="6.61522">
        <ele>1927.1</ele>
        <time>2016-03-06T11:12:36Z</time>
      </trkpt>
      <trkpt lat="45.50342" lon="6.61509">
        <ele>1928.54</ele>
        <time>2016-03-06T11:12:50Z</time>
      </trkpt>
      <trkpt lat="45.5034" lon="6.6149">
        <ele>1926.62</ele>
        <time>2016-03-06T11:13:06Z</time>
      </trkpt>
      <trkpt lat="45.50341" lon="6.61488">
        <ele>1926.62</ele>
        <time>2016-03-06T11:13:07Z</time>
      </trkpt>
      <trkpt lat="45.50343" lon="6.61482">
        <ele>1926.62</ele>
        <time>2016-03-06T11:13:16Z</time>
      </trkpt>
      <trkpt lat="45.50355" lon="6.61455">
        <ele>1922.77</ele>
        <time>2016-03-06T11:13:26Z</time>
      </trkpt>
      <trkpt lat="45.50356" lon="6.6145">
        <ele>1922.77</ele>
        <time>2016-03-06T11:13:27Z</time>
      </trkpt>
      <trkpt lat="45.50357" lon="6.61429">
        <ele>1921.81</ele>
        <time>2016-03-06T11:13:37Z</time>
      </trkpt>
      <trkpt lat="45.50357" lon="6.61416">
        <ele>1922.29</ele>
        <time>2016-03-06T11:13:52Z</time>
      </trkpt>
      <trkpt lat="45.50371" lon="6.614">
        <ele>1919.41</ele>
        <time>2016-03-06T11:14:04Z</time>
      </trkpt>
      <trkpt lat="45.50379" lon="6.61398">
        <ele>1917.01</ele>
        <time>2016-03-06T11:14:06Z</time>
      </trkpt>
      <trkpt lat="45.50384" lon="6.61398">
        <ele>1916.53</ele>
        <time>2016-03-06T11:14:07Z</time>
      </trkpt>
      <trkpt lat="45.50389" lon="6.61398">
        <ele>1914.6</ele>
        <time>2016-03-06T11:14:08Z</time>
      </trkpt>
      <trkpt lat="45.50393" lon="6.614">
        <ele>1914.6</ele>
        <time>2016-03-06T11:14:09Z</time>
      </trkpt>
      <trkpt lat="45.50396" lon="6.61402">
        <ele>1913.64</ele>
        <time>2016-03-06T11:14:10Z</time>
      </trkpt>
      <trkpt lat="45.50399" lon="6.61403">
        <ele>1913.64</ele>
        <time>2016-03-06T11:14:11Z</time>
      </trkpt>
      <trkpt lat="45.50416" lon="6.61413">
        <ele>1909.32</ele>
        <time>2016-03-06T11:14:17Z</time>
      </trkpt>
      <trkpt lat="45.50434" lon="6.61416">
        <ele>1905.47</ele>
        <time>2016-03-06T11:14:25Z</time>
      </trkpt>
      <trkpt lat="45.50455" lon="6.61403">
        <ele>1898.26</ele>
        <time>2016-03-06T11:14:28Z</time>
      </trkpt>
      <trkpt lat="45.50471" lon="6.6139">
        <ele>1892.49</ele>
        <time>2016-03-06T11:14:30Z</time>
      </trkpt>
      <trkpt lat="45.50486" lon="6.61377">
        <ele>1887.69</ele>
        <time>2016-03-06T11:14:32Z</time>
      </trkpt>
      <trkpt lat="45.50494" lon="6.61371">
        <ele>1884.32</ele>
        <time>2016-03-06T11:14:33Z</time>
      </trkpt>
      <trkpt lat="45.5051" lon="6.61355">
        <ele>1877.11</ele>
        <time>2016-03-06T11:14:35Z</time>
      </trkpt>
      <trkpt lat="45.50517" lon="6.61348">
        <ele>1876.63</ele>
        <time>2016-03-06T11:14:36Z</time>
      </trkpt>
      <trkpt lat="45.5053" lon="6.6133">
        <ele>1871.34</ele>
        <time>2016-03-06T11:14:38Z</time>
      </trkpt>
      <trkpt lat="45.50545" lon="6.61304">
        <ele>1866.06</ele>
        <time>2016-03-06T11:14:41Z</time>
      </trkpt>
      <trkpt lat="45.50551" lon="6.61292">
        <ele>1865.58</ele>
        <time>2016-03-06T11:14:43Z</time>
      </trkpt>
      <trkpt lat="45.50559" lon="6.61284">
        <ele>1865.58</ele>
        <time>2016-03-06T11:14:51Z</time>
      </trkpt>
      <trkpt lat="45.50559" lon="6.61286">
        <ele>1866.06</ele>
        <time>2016-03-06T11:15:16Z</time>
      </trkpt>
      <trkpt lat="45.50562" lon="6.61286">
        <ele>1866.06</ele>
        <time>2016-03-06T11:15:41Z</time>
      </trkpt>
      <trkpt lat="45.50559" lon="6.61287">
        <ele>1866.54</ele>
        <time>2016-03-06T11:16:09Z</time>
      </trkpt>
      <trkpt lat="45.50559" lon="6.61284">
        <ele>1866.54</ele>
        <time>2016-03-06T11:16:36Z</time>
      </trkpt>
      <trkpt lat="45.50561" lon="6.61287">
        <ele>1866.54</ele>
        <time>2016-03-06T11:16:52Z</time>
      </trkpt>
      <trkpt lat="45.50563" lon="6.61288">
        <ele>1868.94</ele>
        <time>2016-03-06T11:16:54Z</time>
      </trkpt>
      <trkpt lat="45.50569" lon="6.61292">
        <ele>1866.54</ele>
        <time>2016-03-06T11:16:59Z</time>
      </trkpt>
      <trkpt lat="45.50589" lon="6.61296">
        <ele>1865.58</ele>
        <time>2016-03-06T11:17:12Z</time>
      </trkpt>
      <trkpt lat="45.50611" lon="6.61288">
        <ele>1863.17</ele>
        <time>2016-03-06T11:17:25Z</time>
      </trkpt>
      <trkpt lat="45.50621" lon="6.61277">
        <ele>1861.25</ele>
        <time>2016-03-06T11:17:31Z</time>
      </trkpt>
      <trkpt lat="45.5063" lon="6.61272">
        <ele>1859.33</ele>
        <time>2016-03-06T11:17:33Z</time>
      </trkpt>
      <trkpt lat="45.50637" lon="6.61272">
        <ele>1854.52</ele>
        <time>2016-03-06T11:17:34Z</time>
      </trkpt>
      <trkpt lat="45.50652" lon="6.61272">
        <ele>1849.23</ele>
        <time>2016-03-06T11:17:36Z</time>
      </trkpt>
      <trkpt lat="45.50678" lon="6.61279">
        <ele>1840.1</ele>
        <time>2016-03-06T11:17:40Z</time>
      </trkpt>
      <trkpt lat="45.50691" lon="6.61286">
        <ele>1833.85</ele>
        <time>2016-03-06T11:17:42Z</time>
      </trkpt>
      <trkpt lat="45.50697" lon="6.61289">
        <ele>1833.85</ele>
        <time>2016-03-06T11:17:43Z</time>
      </trkpt>
      <trkpt lat="45.507" lon="6.61291">
        <ele>1830.97</ele>
        <time>2016-03-06T11:17:44Z</time>
      </trkpt>
      <trkpt lat="45.50706" lon="6.61295">
        <ele>1830.01</ele>
        <time>2016-03-06T11:17:45Z</time>
      </trkpt>
      <trkpt lat="45.50712" lon="6.613">
        <ele>1826.16</ele>
        <time>2016-03-06T11:17:46Z</time>
      </trkpt>
      <trkpt lat="45.50716" lon="6.61305">
        <ele>1824.72</ele>
        <time>2016-03-06T11:17:48Z</time>
      </trkpt>
      <trkpt lat="45.50718" lon="6.61309">
        <ele>1821.84</ele>
        <time>2016-03-06T11:17:50Z</time>
      </trkpt>
      <trkpt lat="45.50719" lon="6.61313">
        <ele>1821.35</ele>
        <time>2016-03-06T11:17:51Z</time>
      </trkpt>
      <trkpt lat="45.5072" lon="6.61316">
        <ele>1821.84</ele>
        <time>2016-03-06T11:17:55Z</time>
      </trkpt>
      <trkpt lat="45.50722" lon="6.61317">
        <ele>1819.91</ele>
        <time>2016-03-06T11:17:56Z</time>
      </trkpt>
      <trkpt lat="45.50725" lon="6.61318">
        <ele>1817.51</ele>
        <time>2016-03-06T11:17:57Z</time>
      </trkpt>
      <trkpt lat="45.50732" lon="6.61317">
        <ele>1815.59</ele>
        <time>2016-03-06T11:18:00Z</time>
      </trkpt>
      <trkpt lat="45.50736" lon="6.61319">
        <ele>1813.66</ele>
        <time>2016-03-06T11:18:01Z</time>
      </trkpt>
      <trkpt lat="45.50739" lon="6.61321">
        <ele>1815.11</ele>
        <time>2016-03-06T11:18:02Z</time>
      </trkpt>
      <trkpt lat="45.50742" lon="6.61325">
        <ele>1813.66</ele>
        <time>2016-03-06T11:18:04Z</time>
      </trkpt>
      <trkpt lat="45.50744" lon="6.61328">
        <ele>1810.3</ele>
        <time>2016-03-06T11:18:05Z</time>
      </trkpt>
      <trkpt lat="45.50745" lon="6.61329">
        <ele>1815.59</ele>
        <time>2016-03-06T11:18:06Z</time>
      </trkpt>
      <trkpt lat="45.50748" lon="6.61334">
        <ele>1812.7</ele>
        <time>2016-03-06T11:18:08Z</time>
      </trkpt>
      <trkpt lat="45.50749" lon="6.61336">
        <ele>1811.74</ele>
        <time>2016-03-06T11:18:09Z</time>
      </trkpt>
      <trkpt lat="45.50754" lon="6.61343">
        <ele>1811.26</ele>
        <time>2016-03-06T11:18:13Z</time>
      </trkpt>
      <trkpt lat="45.50757" lon="6.61344">
        <ele>1811.26</ele>
        <time>2016-03-06T11:18:14Z</time>
      </trkpt>
      <trkpt lat="45.5076" lon="6.61344">
        <ele>1811.26</ele>
        <time>2016-03-06T11:18:15Z</time>
      </trkpt>
      <trkpt lat="45.50764" lon="6.61343">
        <ele>1808.38</ele>
        <time>2016-03-06T11:18:16Z</time>
      </trkpt>
      <trkpt lat="45.50774" lon="6.61341">
        <ele>1803.57</ele>
        <time>2016-03-06T11:18:19Z</time>
      </trkpt>
      <trkpt lat="45.50779" lon="6.61342">
        <ele>1803.09</ele>
        <time>2016-03-06T11:18:23Z</time>
      </trkpt>
      <trkpt lat="45.50782" lon="6.61341">
        <ele>1803.09</ele>
        <time>2016-03-06T11:18:24Z</time>
      </trkpt>
      <trkpt lat="45.50784" lon="6.6134">
        <ele>1802.61</ele>
        <time>2016-03-06T11:18:25Z</time>
      </trkpt>
      <trkpt lat="45.50786" lon="6.61338">
        <ele>1800.21</ele>
        <time>2016-03-06T11:18:26Z</time>
      </trkpt>
      <trkpt lat="45.50787" lon="6.61335">
        <ele>1799.73</ele>
        <time>2016-03-06T11:18:27Z</time>
      </trkpt>
      <trkpt lat="45.50789" lon="6.61333">
        <ele>1793</ele>
        <time>2016-03-06T11:18:28Z</time>
      </trkpt>
      <trkpt lat="45.50792" lon="6.61331">
        <ele>1802.61</ele>
        <time>2016-03-06T11:18:29Z</time>
      </trkpt>
      <trkpt lat="45.50794" lon="6.6133">
        <ele>1796.36</ele>
        <time>2016-03-06T11:18:30Z</time>
      </trkpt>
      <trkpt lat="45.50798" lon="6.61327">
        <ele>1795.88</ele>
        <time>2016-03-06T11:18:36Z</time>
      </trkpt>
      <trkpt lat="45.50799" lon="6.61326">
        <ele>1796.36</ele>
        <time>2016-03-06T11:18:37Z</time>
      </trkpt>
      <trkpt lat="45.50804" lon="6.61322">
        <ele>1794.92</ele>
        <time>2016-03-06T11:18:46Z</time>
      </trkpt>
      <trkpt lat="45.50806" lon="6.61321">
        <ele>1794.92</ele>
        <time>2016-03-06T11:18:47Z</time>
      </trkpt>
      <trkpt lat="45.50807" lon="6.61319">
        <ele>1794.92</ele>
        <time>2016-03-06T11:18:48Z</time>
      </trkpt>
      <trkpt lat="45.50811" lon="6.61319">
        <ele>1793.96</ele>
        <time>2016-03-06T11:18:56Z</time>
      </trkpt>
      <trkpt lat="45.50819" lon="6.61328">
        <ele>1793</ele>
        <time>2016-03-06T11:19:11Z</time>
      </trkpt>
      <trkpt lat="45.50821" lon="6.61332">
        <ele>1792.52</ele>
        <time>2016-03-06T11:19:14Z</time>
      </trkpt>
      <trkpt lat="45.50822" lon="6.61334">
        <ele>1792.52</ele>
        <time>2016-03-06T11:19:15Z</time>
      </trkpt>
      <trkpt lat="45.50829" lon="6.61351">
        <ele>1790.11</ele>
        <time>2016-03-06T11:19:25Z</time>
      </trkpt>
      <trkpt lat="45.50829" lon="6.61356">
        <ele>1790.11</ele>
        <time>2016-03-06T11:19:27Z</time>
      </trkpt>
      <trkpt lat="45.50829" lon="6.61358">
        <ele>1789.63</ele>
        <time>2016-03-06T11:19:28Z</time>
      </trkpt>
      <trkpt lat="45.50829" lon="6.6136">
        <ele>1789.15</ele>
        <time>2016-03-06T11:19:29Z</time>
      </trkpt>
      <trkpt lat="45.50828" lon="6.61362">
        <ele>1789.15</ele>
        <time>2016-03-06T11:19:30Z</time>
      </trkpt>
      <trkpt lat="45.50829" lon="6.61364">
        <ele>1789.15</ele>
        <time>2016-03-06T11:19:31Z</time>
      </trkpt>
      <trkpt lat="45.5083" lon="6.61367">
        <ele>1788.67</ele>
        <time>2016-03-06T11:19:32Z</time>
      </trkpt>
      <trkpt lat="45.50831" lon="6.61369">
        <ele>1788.67</ele>
        <time>2016-03-06T11:19:33Z</time>
      </trkpt>
      <trkpt lat="45.50834" lon="6.61372">
        <ele>1787.71</ele>
        <time>2016-03-06T11:19:35Z</time>
      </trkpt>
      <trkpt lat="45.5085" lon="6.61388">
        <ele>1784.82</ele>
        <time>2016-03-06T11:19:45Z</time>
      </trkpt>
      <trkpt lat="45.5086" lon="6.61398">
        <ele>1783.38</ele>
        <time>2016-03-06T11:19:51Z</time>
      </trkpt>
      <trkpt lat="45.50861" lon="6.614">
        <ele>1783.38</ele>
        <time>2016-03-06T11:19:53Z</time>
      </trkpt>
      <trkpt lat="45.50863" lon="6.61402">
        <ele>1782.42</ele>
        <time>2016-03-06T11:19:54Z</time>
      </trkpt>
      <trkpt lat="45.50867" lon="6.61406">
        <ele>1780.02</ele>
        <time>2016-03-06T11:19:57Z</time>
      </trkpt>
      <trkpt lat="45.50868" lon="6.61406">
        <ele>1782.42</ele>
        <time>2016-03-06T11:19:58Z</time>
      </trkpt>
      <trkpt lat="45.5087" lon="6.61405">
        <ele>1778.58</ele>
        <time>2016-03-06T11:19:59Z</time>
      </trkpt>
      <trkpt lat="45.5087" lon="6.61404">
        <ele>1775.69</ele>
        <time>2016-03-06T11:20:00Z</time>
      </trkpt>
      <trkpt lat="45.5087" lon="6.61403">
        <ele>1775.69</ele>
        <time>2016-03-06T11:20:01Z</time>
      </trkpt>
      <trkpt lat="45.50871" lon="6.61401">
        <ele>1772.33</ele>
        <time>2016-03-06T11:20:04Z</time>
      </trkpt>
      <trkpt lat="45.50873" lon="6.614">
        <ele>1775.69</ele>
        <time>2016-03-06T11:20:05Z</time>
      </trkpt>
      <trkpt lat="45.50875" lon="6.61397">
        <ele>1772.81</ele>
        <time>2016-03-06T11:20:06Z</time>
      </trkpt>
      <trkpt lat="45.50876" lon="6.61394">
        <ele>1770.41</ele>
        <time>2016-03-06T11:20:07Z</time>
      </trkpt>
      <trkpt lat="45.50877" lon="6.61392">
        <ele>1768.48</ele>
        <time>2016-03-06T11:20:08Z</time>
      </trkpt>
      <trkpt lat="45.5088" lon="6.61391">
        <ele>1771.37</ele>
        <time>2016-03-06T11:20:09Z</time>
      </trkpt>
      <trkpt lat="45.50884" lon="6.61387">
        <ele>1767.04</ele>
        <time>2016-03-06T11:20:10Z</time>
      </trkpt>
      <trkpt lat="45.50887" lon="6.61384">
        <ele>1762.23</ele>
        <time>2016-03-06T11:20:11Z</time>
      </trkpt>
      <trkpt lat="45.50893" lon="6.61385">
        <ele>1762.23</ele>
        <time>2016-03-06T11:20:13Z</time>
      </trkpt>
      <trkpt lat="45.50897" lon="6.61389">
        <ele>1762.23</ele>
        <time>2016-03-06T11:20:20Z</time>
      </trkpt>
      <trkpt lat="45.50898" lon="6.6139">
        <ele>1761.75</ele>
        <time>2016-03-06T11:20:21Z</time>
      </trkpt>
      <trkpt lat="45.50899" lon="6.61392">
        <ele>1761.27</ele>
        <time>2016-03-06T11:20:22Z</time>
      </trkpt>
      <trkpt lat="45.50901" lon="6.61393">
        <ele>1758.39</ele>
        <time>2016-03-06T11:20:23Z</time>
      </trkpt>
      <trkpt lat="45.50908" lon="6.61391">
        <ele>1755.02</ele>
        <time>2016-03-06T11:20:27Z</time>
      </trkpt>
      <trkpt lat="45.5091" lon="6.61391">
        <ele>1754.54</ele>
        <time>2016-03-06T11:20:28Z</time>
      </trkpt>
      <trkpt lat="45.50913" lon="6.61393">
        <ele>1753.58</ele>
        <time>2016-03-06T11:20:30Z</time>
      </trkpt>
      <trkpt lat="45.50916" lon="6.61396">
        <ele>1752.14</ele>
        <time>2016-03-06T11:20:32Z</time>
      </trkpt>
      <trkpt lat="45.50918" lon="6.61397">
        <ele>1750.22</ele>
        <time>2016-03-06T11:20:33Z</time>
      </trkpt>
      <trkpt lat="45.5092" lon="6.61397">
        <ele>1749.26</ele>
        <time>2016-03-06T11:20:35Z</time>
      </trkpt>
      <trkpt lat="45.50923" lon="6.61398">
        <ele>1747.81</ele>
        <time>2016-03-06T11:20:37Z</time>
      </trkpt>
      <trkpt lat="45.50925" lon="6.61399">
        <ele>1747.33</ele>
        <time>2016-03-06T11:20:38Z</time>
      </trkpt>
      <trkpt lat="45.50932" lon="6.61405">
        <ele>1744.45</ele>
        <time>2016-03-06T11:20:42Z</time>
      </trkpt>
      <trkpt lat="45.50953" lon="6.61415">
        <ele>1744.45</ele>
        <time>2016-03-06T11:20:52Z</time>
      </trkpt>
      <trkpt lat="45.50957" lon="6.61413">
        <ele>1744.45</ele>
        <time>2016-03-06T11:20:57Z</time>
      </trkpt>
      <trkpt lat="45.50971" lon="6.61406">
        <ele>1741.08</ele>
        <time>2016-03-06T11:21:01Z</time>
      </trkpt>
      <trkpt lat="45.50978" lon="6.61402">
        <ele>1738.2</ele>
        <time>2016-03-06T11:21:04Z</time>
      </trkpt>
      <trkpt lat="45.50979" lon="6.61406">
        <ele>1734.84</ele>
        <time>2016-03-06T11:21:06Z</time>
      </trkpt>
      <trkpt lat="45.50979" lon="6.61409">
        <ele>1733.88</ele>
        <time>2016-03-06T11:21:07Z</time>
      </trkpt>
      <trkpt lat="45.50983" lon="6.61411">
        <ele>1732.43</ele>
        <time>2016-03-06T11:21:12Z</time>
      </trkpt>
      <trkpt lat="45.5099" lon="6.61409">
        <ele>1730.99</ele>
        <time>2016-03-06T11:21:13Z</time>
      </trkpt>
      <trkpt lat="45.50993" lon="6.61409">
        <ele>1730.51</ele>
        <time>2016-03-06T11:21:14Z</time>
      </trkpt>
      <trkpt lat="45.51015" lon="6.61414">
        <ele>1730.51</ele>
        <time>2016-03-06T11:21:22Z</time>
      </trkpt>
      <trkpt lat="45.51017" lon="6.61405">
        <ele>1729.55</ele>
        <time>2016-03-06T11:21:30Z</time>
      </trkpt>
      <trkpt lat="45.51013" lon="6.61397">
        <ele>1728.11</ele>
        <time>2016-03-06T11:21:38Z</time>
      </trkpt>
      <trkpt lat="45.51013" lon="6.61395">
        <ele>1728.11</ele>
        <time>2016-03-06T11:21:40Z</time>
      </trkpt>
      <trkpt lat="45.51018" lon="6.61396">
        <ele>1727.15</ele>
        <time>2016-03-06T11:21:49Z</time>
      </trkpt>
      <trkpt lat="45.5102" lon="6.61397">
        <ele>1729.07</ele>
        <time>2016-03-06T11:21:51Z</time>
      </trkpt>
      <trkpt lat="45.51021" lon="6.61397">
        <ele>1727.63</ele>
        <time>2016-03-06T11:21:52Z</time>
      </trkpt>
      <trkpt lat="45.51022" lon="6.61398">
        <ele>1729.07</ele>
        <time>2016-03-06T11:21:54Z</time>
      </trkpt>
      <trkpt lat="45.51027" lon="6.61393">
        <ele>1728.11</ele>
        <time>2016-03-06T11:22:02Z</time>
      </trkpt>
      <trkpt lat="45.5102" lon="6.61394">
        <ele>1727.63</ele>
        <time>2016-03-06T11:22:16Z</time>
      </trkpt>
      <trkpt lat="45.51021" lon="6.61395">
        <ele>1729.07</ele>
        <time>2016-03-06T11:22:19Z</time>
      </trkpt>
      <trkpt lat="45.5102" lon="6.61395">
        <ele>1727.63</ele>
        <time>2016-03-06T11:22:23Z</time>
      </trkpt>
      <trkpt lat="45.5102" lon="6.61386">
        <ele>1725.22</ele>
        <time>2016-03-06T11:22:38Z</time>
      </trkpt>
      <trkpt lat="45.51018" lon="6.61381">
        <ele>1726.67</ele>
        <time>2016-03-06T11:22:50Z</time>
      </trkpt>
      <trkpt lat="45.51019" lon="6.61384">
        <ele>1725.22</ele>
        <time>2016-03-06T11:22:51Z</time>
      </trkpt>
      <trkpt lat="45.51022" lon="6.61388">
        <ele>1724.26</ele>
        <time>2016-03-06T11:22:53Z</time>
      </trkpt>
      <trkpt lat="45.51027" lon="6.61391">
        <ele>1714.17</ele>
        <time>2016-03-06T11:22:56Z</time>
      </trkpt>
      <trkpt lat="45.51028" lon="6.61391">
        <ele>1729.07</ele>
        <time>2016-03-06T11:22:57Z</time>
      </trkpt>
      <trkpt lat="45.51029" lon="6.61392">
        <ele>1721.86</ele>
        <time>2016-03-06T11:22:58Z</time>
      </trkpt>
      <trkpt lat="45.51029" lon="6.61392">
        <ele>1727.63</ele>
        <time>2016-03-06T11:22:59Z</time>
      </trkpt>
      <trkpt lat="45.51029" lon="6.61392">
        <ele>1724.74</ele>
        <time>2016-03-06T11:23:00Z</time>
      </trkpt>
      <trkpt lat="45.51028" lon="6.61392">
        <ele>1723.78</ele>
        <time>2016-03-06T11:23:02Z</time>
      </trkpt>
      <trkpt lat="45.51028" lon="6.61391">
        <ele>1731.47</ele>
        <time>2016-03-06T11:23:04Z</time>
      </trkpt>
      <trkpt lat="45.51027" lon="6.61393">
        <ele>1723.78</ele>
        <time>2016-03-06T11:23:05Z</time>
      </trkpt>
      <trkpt lat="45.51023" lon="6.61406">
        <ele>1723.3</ele>
        <time>2016-03-06T11:23:19Z</time>
      </trkpt>
      <trkpt lat="45.51031" lon="6.61413">
        <ele>1720.42</ele>
        <time>2016-03-06T11:23:23Z</time>
      </trkpt>
      <trkpt lat="45.51034" lon="6.61417">
        <ele>1721.38</ele>
        <time>2016-03-06T11:23:27Z</time>
      </trkpt>
      <trkpt lat="45.51038" lon="6.61422">
        <ele>1719.46</ele>
        <time>2016-03-06T11:23:31Z</time>
      </trkpt>
      <trkpt lat="45.51049" lon="6.61427">
        <ele>1716.57</ele>
        <time>2016-03-06T11:23:37Z</time>
      </trkpt>
      <trkpt lat="45.51053" lon="6.6143">
        <ele>1716.09</ele>
        <time>2016-03-06T11:23:39Z</time>
      </trkpt>
      <trkpt lat="45.5106" lon="6.61437">
        <ele>1714.65</ele>
        <time>2016-03-06T11:23:43Z</time>
      </trkpt>
      <trkpt lat="45.51064" lon="6.61438">
        <ele>1713.69</ele>
        <time>2016-03-06T11:23:45Z</time>
      </trkpt>
      <trkpt lat="45.5107" lon="6.61439">
        <ele>1710.32</ele>
        <time>2016-03-06T11:23:47Z</time>
      </trkpt>
      <trkpt lat="45.51072" lon="6.61439">
        <ele>1710.32</ele>
        <time>2016-03-06T11:23:48Z</time>
      </trkpt>
      <trkpt lat="45.51075" lon="6.61439">
        <ele>1709.36</ele>
        <time>2016-03-06T11:23:49Z</time>
      </trkpt>
      <trkpt lat="45.51081" lon="6.61442">
        <ele>1707.44</ele>
        <time>2016-03-06T11:23:51Z</time>
      </trkpt>
      <trkpt lat="45.51087" lon="6.61445">
        <ele>1706.48</ele>
        <time>2016-03-06T11:23:53Z</time>
      </trkpt>
      <trkpt lat="45.51108" lon="6.61443">
        <ele>1704.55</ele>
        <time>2016-03-06T11:24:02Z</time>
      </trkpt>
      <trkpt lat="45.5112" lon="6.61445">
        <ele>1702.15</ele>
        <time>2016-03-06T11:24:14Z</time>
      </trkpt>
      <trkpt lat="45.51122" lon="6.61445">
        <ele>1702.63</ele>
        <time>2016-03-06T11:24:15Z</time>
      </trkpt>
      <trkpt lat="45.51132" lon="6.61443">
        <ele>1700.71</ele>
        <time>2016-03-06T11:24:18Z</time>
      </trkpt>
      <trkpt lat="45.51139" lon="6.61443">
        <ele>1700.23</ele>
        <time>2016-03-06T11:24:20Z</time>
      </trkpt>
      <trkpt lat="45.51144" lon="6.61443">
        <ele>1697.83</ele>
        <time>2016-03-06T11:24:22Z</time>
      </trkpt>
      <trkpt lat="45.51153" lon="6.61438">
        <ele>1694.94</ele>
        <time>2016-03-06T11:24:26Z</time>
      </trkpt>
      <trkpt lat="45.51155" lon="6.61438">
        <ele>1690.62</ele>
        <time>2016-03-06T11:24:27Z</time>
      </trkpt>
      <trkpt lat="45.51157" lon="6.61437">
        <ele>1689.17</ele>
        <time>2016-03-06T11:24:28Z</time>
      </trkpt>
      <trkpt lat="45.51158" lon="6.61437">
        <ele>1691.58</ele>
        <time>2016-03-06T11:24:29Z</time>
      </trkpt>
      <trkpt lat="45.51165" lon="6.61434">
        <ele>1684.85</ele>
        <time>2016-03-06T11:24:31Z</time>
      </trkpt>
      <trkpt lat="45.51167" lon="6.61433">
        <ele>1688.69</ele>
        <time>2016-03-06T11:24:32Z</time>
      </trkpt>
      <trkpt lat="45.51175" lon="6.61431">
        <ele>1684.85</ele>
        <time>2016-03-06T11:24:34Z</time>
      </trkpt>
      <trkpt lat="45.51182" lon="6.61435">
        <ele>1683.41</ele>
        <time>2016-03-06T11:24:36Z</time>
      </trkpt>
      <trkpt lat="45.5119" lon="6.61436">
        <ele>1680.52</ele>
        <time>2016-03-06T11:24:38Z</time>
      </trkpt>
      <trkpt lat="45.51196" lon="6.61438">
        <ele>1680.52</ele>
        <time>2016-03-06T11:24:40Z</time>
      </trkpt>
      <trkpt lat="45.51208" lon="6.61444">
        <ele>1675.72</ele>
        <time>2016-03-06T11:24:42Z</time>
      </trkpt>
      <trkpt lat="45.51219" lon="6.61448">
        <ele>1670.91</ele>
        <time>2016-03-06T11:24:44Z</time>
      </trkpt>
      <trkpt lat="45.5123" lon="6.61455">
        <ele>1668.02</ele>
        <time>2016-03-06T11:24:47Z</time>
      </trkpt>
      <trkpt lat="45.51243" lon="6.6146">
        <ele>1666.1</ele>
        <time>2016-03-06T11:24:50Z</time>
      </trkpt>
      <trkpt lat="45.51244" lon="6.61455">
        <ele>1667.06</ele>
        <time>2016-03-06T11:25:04Z</time>
      </trkpt>
      <trkpt lat="45.51238" lon="6.61449">
        <ele>1668.51</ele>
        <time>2016-03-06T11:25:28Z</time>
      </trkpt>
      <trkpt lat="45.51234" lon="6.6145">
        <ele>1668.99</ele>
        <time>2016-03-06T11:25:51Z</time>
      </trkpt>
      <trkpt lat="45.51236" lon="6.61448">
        <ele>1669.47</ele>
        <time>2016-03-06T11:26:17Z</time>
      </trkpt>
      <trkpt lat="45.51235" lon="6.61446">
        <ele>1669.95</ele>
        <time>2016-03-06T11:26:46Z</time>
      </trkpt>
      <trkpt lat="45.51235" lon="6.61446">
        <ele>1670.43</ele>
        <time>2016-03-06T11:27:14Z</time>
      </trkpt>
      <trkpt lat="45.51233" lon="6.61444">
        <ele>1670.91</ele>
        <time>2016-03-06T11:27:32Z</time>
      </trkpt>
      <trkpt lat="45.51231" lon="6.61444">
        <ele>1671.39</ele>
        <time>2016-03-06T11:27:56Z</time>
      </trkpt>
      <trkpt lat="45.51232" lon="6.6145">
        <ele>1671.87</ele>
        <time>2016-03-06T11:28:20Z</time>
      </trkpt>
      <trkpt lat="45.51234" lon="6.61448">
        <ele>1672.35</ele>
        <time>2016-03-06T11:28:44Z</time>
      </trkpt>
      <trkpt lat="45.51231" lon="6.61441">
        <ele>1672.83</ele>
        <time>2016-03-06T11:29:10Z</time>
      </trkpt>
      <trkpt lat="45.51232" lon="6.61445">
        <ele>1672.83</ele>
        <time>2016-03-06T11:29:31Z</time>
      </trkpt>
      <trkpt lat="45.51233" lon="6.61446">
        <ele>1673.31</ele>
        <time>2016-03-06T11:29:53Z</time>
      </trkpt>
      <trkpt lat="45.51237" lon="6.61452">
        <ele>1673.79</ele>
        <time>2016-03-06T11:30:16Z</time>
      </trkpt>
      <trkpt lat="45.5124" lon="6.61453">
        <ele>1674.27</ele>
        <time>2016-03-06T11:30:42Z</time>
      </trkpt>
      <trkpt lat="45.51235" lon="6.61446">
        <ele>1674.27</ele>
        <time>2016-03-06T11:31:12Z</time>
      </trkpt>
      <trkpt lat="45.51235" lon="6.61444">
        <ele>1674.75</ele>
        <time>2016-03-06T11:31:41Z</time>
      </trkpt>
      <trkpt lat="45.51227" lon="6.61445">
        <ele>1675.23</ele>
        <time>2016-03-06T11:32:10Z</time>
      </trkpt>
      <trkpt lat="45.51228" lon="6.6145">
        <ele>1675.72</ele>
        <time>2016-03-06T11:32:27Z</time>
      </trkpt>
      <trkpt lat="45.51231" lon="6.61455">
        <ele>1675.72</ele>
        <time>2016-03-06T11:32:42Z</time>
      </trkpt>
      <trkpt lat="45.51239" lon="6.61452">
        <ele>1672.35</ele>
        <time>2016-03-06T11:32:46Z</time>
      </trkpt>
      <trkpt lat="45.51247" lon="6.61456">
        <ele>1668.51</ele>
        <time>2016-03-06T11:32:49Z</time>
      </trkpt>
      <trkpt lat="45.51256" lon="6.6146">
        <ele>1662.74</ele>
        <time>2016-03-06T11:32:52Z</time>
      </trkpt>
      <trkpt lat="45.51264" lon="6.61471">
        <ele>1658.41</ele>
        <time>2016-03-06T11:32:56Z</time>
      </trkpt>
      <trkpt lat="45.51265" lon="6.61474">
        <ele>1658.41</ele>
        <time>2016-03-06T11:32:57Z</time>
      </trkpt>
      <trkpt lat="45.51268" lon="6.61487">
        <ele>1657.93</ele>
        <time>2016-03-06T11:33:02Z</time>
      </trkpt>
      <trkpt lat="45.51272" lon="6.61497">
        <ele>1657.93</ele>
        <time>2016-03-06T11:33:05Z</time>
      </trkpt>
      <trkpt lat="45.51279" lon="6.61493">
        <ele>1652.16</ele>
        <time>2016-03-06T11:33:08Z</time>
      </trkpt>
      <trkpt lat="45.51291" lon="6.61489">
        <ele>1648.32</ele>
        <time>2016-03-06T11:33:12Z</time>
      </trkpt>
      <trkpt lat="45.51295" lon="6.61487">
        <ele>1646.4</ele>
        <time>2016-03-06T11:33:13Z</time>
      </trkpt>
      <trkpt lat="45.51303" lon="6.61483">
        <ele>1644.95</ele>
        <time>2016-03-06T11:33:15Z</time>
      </trkpt>
      <trkpt lat="45.51306" lon="6.61482">
        <ele>1643.99</ele>
        <time>2016-03-06T11:33:16Z</time>
      </trkpt>
      <trkpt lat="45.51311" lon="6.61482">
        <ele>1642.07</ele>
        <time>2016-03-06T11:33:17Z</time>
      </trkpt>
      <trkpt lat="45.51326" lon="6.61485">
        <ele>1639.67</ele>
        <time>2016-03-06T11:33:20Z</time>
      </trkpt>
      <trkpt lat="45.5133" lon="6.61487">
        <ele>1638.7</ele>
        <time>2016-03-06T11:33:21Z</time>
      </trkpt>
      <trkpt lat="45.51341" lon="6.6149">
        <ele>1636.3</ele>
        <time>2016-03-06T11:33:23Z</time>
      </trkpt>
      <trkpt lat="45.51353" lon="6.61494">
        <ele>1636.3</ele>
        <time>2016-03-06T11:33:30Z</time>
      </trkpt>
      <trkpt lat="45.51354" lon="6.61495">
        <ele>1636.3</ele>
        <time>2016-03-06T11:33:31Z</time>
      </trkpt>
      <trkpt lat="45.51359" lon="6.61501">
        <ele>1636.3</ele>
        <time>2016-03-06T11:33:36Z</time>
      </trkpt>
      <trkpt lat="45.51363" lon="6.61508">
        <ele>1633.42</ele>
        <time>2016-03-06T11:33:39Z</time>
      </trkpt>
      <trkpt lat="45.51369" lon="6.61513">
        <ele>1631.98</ele>
        <time>2016-03-06T11:33:42Z</time>
      </trkpt>
      <trkpt lat="45.5137" lon="6.61515">
        <ele>1633.9</ele>
        <time>2016-03-06T11:33:43Z</time>
      </trkpt>
      <trkpt lat="45.51376" lon="6.61521">
        <ele>1631.49</ele>
        <time>2016-03-06T11:33:54Z</time>
      </trkpt>
      <trkpt lat="45.51384" lon="6.61519">
        <ele>1631.49</ele>
        <time>2016-03-06T11:34:08Z</time>
      </trkpt>
      <trkpt lat="45.51383" lon="6.61511">
        <ele>1630.05</ele>
        <time>2016-03-06T11:34:14Z</time>
      </trkpt>
      <trkpt lat="45.51383" lon="6.61508">
        <ele>1630.05</ele>
        <time>2016-03-06T11:34:16Z</time>
      </trkpt>
      <trkpt lat="45.51382" lon="6.61506">
        <ele>1630.05</ele>
        <time>2016-03-06T11:34:17Z</time>
      </trkpt>
      <trkpt lat="45.51382" lon="6.61504">
        <ele>1629.57</ele>
        <time>2016-03-06T11:34:18Z</time>
      </trkpt>
      <trkpt lat="45.51376" lon="6.61487">
        <ele>1628.61</ele>
        <time>2016-03-06T11:34:27Z</time>
      </trkpt>
      <trkpt lat="45.51376" lon="6.61486">
        <ele>1627.17</ele>
        <time>2016-03-06T11:34:28Z</time>
      </trkpt>
      <trkpt lat="45.51375" lon="6.61483">
        <ele>1629.57</ele>
        <time>2016-03-06T11:34:29Z</time>
      </trkpt>
      <trkpt lat="45.51374" lon="6.61478">
        <ele>1628.61</ele>
        <time>2016-03-06T11:34:32Z</time>
      </trkpt>
      <trkpt lat="45.51374" lon="6.61476">
        <ele>1628.61</ele>
        <time>2016-03-06T11:34:33Z</time>
      </trkpt>
      <trkpt lat="45.51375" lon="6.61474">
        <ele>1627.65</ele>
        <time>2016-03-06T11:34:34Z</time>
      </trkpt>
      <trkpt lat="45.51378" lon="6.61473">
        <ele>1627.17</ele>
        <time>2016-03-06T11:34:35Z</time>
      </trkpt>
      <trkpt lat="45.51382" lon="6.61473">
        <ele>1625.73</ele>
        <time>2016-03-06T11:34:36Z</time>
      </trkpt>
      <trkpt lat="45.51385" lon="6.61475">
        <ele>1624.77</ele>
        <time>2016-03-06T11:34:37Z</time>
      </trkpt>
      <trkpt lat="45.51388" lon="6.61476">
        <ele>1624.28</ele>
        <time>2016-03-06T11:34:38Z</time>
      </trkpt>
      <trkpt lat="45.51391" lon="6.61478">
        <ele>1624.28</ele>
        <time>2016-03-06T11:34:40Z</time>
      </trkpt>
      <trkpt lat="45.51404" lon="6.61502">
        <ele>1620.92</ele>
        <time>2016-03-06T11:34:50Z</time>
      </trkpt>
      <trkpt lat="45.51408" lon="6.61508">
        <ele>1619.48</ele>
        <time>2016-03-06T11:34:53Z</time>
      </trkpt>
      <trkpt lat="45.51409" lon="6.6151">
        <ele>1619.48</ele>
        <time>2016-03-06T11:34:54Z</time>
      </trkpt>
      <trkpt lat="45.51411" lon="6.61511">
        <ele>1619</ele>
        <time>2016-03-06T11:34:55Z</time>
      </trkpt>
      <trkpt lat="45.51413" lon="6.61511">
        <ele>1617.07</ele>
        <time>2016-03-06T11:34:56Z</time>
      </trkpt>
      <trkpt lat="45.5142" lon="6.61507">
        <ele>1614.67</ele>
        <time>2016-03-06T11:35:05Z</time>
      </trkpt>
      <trkpt lat="45.51424" lon="6.61498">
        <ele>1611.31</ele>
        <time>2016-03-06T11:35:08Z</time>
      </trkpt>
      <trkpt lat="45.51426" lon="6.61493">
        <ele>1609.38</ele>
        <time>2016-03-06T11:35:10Z</time>
      </trkpt>
      <trkpt lat="45.51427" lon="6.61489">
        <ele>1607.46</ele>
        <time>2016-03-06T11:35:11Z</time>
      </trkpt>
      <trkpt lat="45.5144" lon="6.61473">
        <ele>1602.66</ele>
        <time>2016-03-06T11:35:16Z</time>
      </trkpt>
      <trkpt lat="45.51443" lon="6.61467">
        <ele>1601.69</ele>
        <time>2016-03-06T11:35:17Z</time>
      </trkpt>
      <trkpt lat="45.51449" lon="6.61457">
        <ele>1598.81</ele>
        <time>2016-03-06T11:35:19Z</time>
      </trkpt>
      <trkpt lat="45.51453" lon="6.61454">
        <ele>1597.37</ele>
        <time>2016-03-06T11:35:20Z</time>
      </trkpt>
      <trkpt lat="45.51455" lon="6.61449">
        <ele>1596.41</ele>
        <time>2016-03-06T11:35:21Z</time>
      </trkpt>
      <trkpt lat="45.51461" lon="6.61445">
        <ele>1595.45</ele>
        <time>2016-03-06T11:35:29Z</time>
      </trkpt>
      <trkpt lat="45.51464" lon="6.61447">
        <ele>1594</ele>
        <time>2016-03-06T11:35:31Z</time>
      </trkpt>
      <trkpt lat="45.51466" lon="6.61451">
        <ele>1593.52</ele>
        <time>2016-03-06T11:35:32Z</time>
      </trkpt>
      <trkpt lat="45.51468" lon="6.61463">
        <ele>1590.64</ele>
        <time>2016-03-06T11:35:38Z</time>
      </trkpt>
      <trkpt lat="45.51472" lon="6.61464">
        <ele>1588.24</ele>
        <time>2016-03-06T11:35:40Z</time>
      </trkpt>
      <trkpt lat="45.51479" lon="6.61462">
        <ele>1586.31</ele>
        <time>2016-03-06T11:35:42Z</time>
      </trkpt>
      <trkpt lat="45.51484" lon="6.61457">
        <ele>1583.91</ele>
        <time>2016-03-06T11:35:43Z</time>
      </trkpt>
      <trkpt lat="45.51487" lon="6.61453">
        <ele>1583.91</ele>
        <time>2016-03-06T11:35:44Z</time>
      </trkpt>
      <trkpt lat="45.51491" lon="6.61448">
        <ele>1582.47</ele>
        <time>2016-03-06T11:35:45Z</time>
      </trkpt>
      <trkpt lat="45.51494" lon="6.61443">
        <ele>1581.99</ele>
        <time>2016-03-06T11:35:46Z</time>
      </trkpt>
      <trkpt lat="45.51496" lon="6.61439">
        <ele>1581.51</ele>
        <time>2016-03-06T11:35:47Z</time>
      </trkpt>
      <trkpt lat="45.51499" lon="6.61436">
        <ele>1581.03</ele>
        <time>2016-03-06T11:35:48Z</time>
      </trkpt>
      <trkpt lat="45.51501" lon="6.61432">
        <ele>1580.06</ele>
        <time>2016-03-06T11:35:49Z</time>
      </trkpt>
      <trkpt lat="45.51503" lon="6.61429">
        <ele>1580.06</ele>
        <time>2016-03-06T11:35:50Z</time>
      </trkpt>
      <trkpt lat="45.5151" lon="6.6141">
        <ele>1578.14</ele>
        <time>2016-03-06T11:35:55Z</time>
      </trkpt>
      <trkpt lat="45.51517" lon="6.61385">
        <ele>1576.22</ele>
        <time>2016-03-06T11:36:01Z</time>
      </trkpt>
      <trkpt lat="45.51525" lon="6.61351">
        <ele>1576.22</ele>
        <time>2016-03-06T11:36:11Z</time>
      </trkpt>
      <trkpt lat="45.51525" lon="6.61345">
        <ele>1575.26</ele>
        <time>2016-03-06T11:36:13Z</time>
      </trkpt>
      <trkpt lat="45.51525" lon="6.61343">
        <ele>1575.26</ele>
        <time>2016-03-06T11:36:14Z</time>
      </trkpt>
      <trkpt lat="45.51525" lon="6.61341">
        <ele>1573.33</ele>
        <time>2016-03-06T11:36:15Z</time>
      </trkpt>
      <trkpt lat="45.51526" lon="6.61335">
        <ele>1573.33</ele>
        <time>2016-03-06T11:36:18Z</time>
      </trkpt>
      <trkpt lat="45.51527" lon="6.61333">
        <ele>1573.82</ele>
        <time>2016-03-06T11:36:19Z</time>
      </trkpt>
      <trkpt lat="45.51527" lon="6.61328">
        <ele>1573.82</ele>
        <time>2016-03-06T11:36:21Z</time>
      </trkpt>
      <trkpt lat="45.51529" lon="6.61316">
        <ele>1573.82</ele>
        <time>2016-03-06T11:36:30Z</time>
      </trkpt>
      <trkpt lat="45.51531" lon="6.61302">
        <ele>1573.82</ele>
        <time>2016-03-06T11:36:44Z</time>
      </trkpt>
      <trkpt lat="45.51534" lon="6.61292">
        <ele>1575.26</ele>
        <time>2016-03-06T11:36:57Z</time>
      </trkpt>
      <trkpt lat="45.51538" lon="6.61282">
        <ele>1575.26</ele>
        <time>2016-03-06T11:37:13Z</time>
      </trkpt>
      <trkpt lat="45.51545" lon="6.61276">
        <ele>1574.78</ele>
        <time>2016-03-06T11:37:27Z</time>
      </trkpt>
      <trkpt lat="45.51547" lon="6.61274">
        <ele>1575.74</ele>
        <time>2016-03-06T11:37:32Z</time>
      </trkpt>
      <trkpt lat="45.51552" lon="6.6127">
        <ele>1574.78</ele>
        <time>2016-03-06T11:37:41Z</time>
      </trkpt>
      <trkpt lat="45.51555" lon="6.61269">
        <ele>1576.22</ele>
        <time>2016-03-06T11:37:43Z</time>
      </trkpt>
      <trkpt lat="45.51557" lon="6.61261">
        <ele>1574.78</ele>
        <time>2016-03-06T11:37:53Z</time>
      </trkpt>
      <trkpt lat="45.51557" lon="6.61255">
        <ele>1574.3</ele>
        <time>2016-03-06T11:37:57Z</time>
      </trkpt>
      <trkpt lat="45.51558" lon="6.61243">
        <ele>1574.78</ele>
        <time>2016-03-06T11:38:05Z</time>
      </trkpt>
      <trkpt lat="45.51557" lon="6.61236">
        <ele>1574.3</ele>
        <time>2016-03-06T11:38:11Z</time>
      </trkpt>
      <trkpt lat="45.51556" lon="6.61233">
        <ele>1574.3</ele>
        <time>2016-03-06T11:38:13Z</time>
      </trkpt>
      <trkpt lat="45.51549" lon="6.61209">
        <ele>1572.85</ele>
        <time>2016-03-06T11:38:24Z</time>
      </trkpt>
      <trkpt lat="45.51547" lon="6.61204">
        <ele>1572.85</ele>
        <time>2016-03-06T11:38:27Z</time>
      </trkpt>
      <trkpt lat="45.5154" lon="6.61186">
        <ele>1570.93</ele>
        <time>2016-03-06T11:38:41Z</time>
      </trkpt>
      <trkpt lat="45.5153" lon="6.61167">
        <ele>1570.93</ele>
        <time>2016-03-06T11:38:52Z</time>
      </trkpt>
      <trkpt lat="45.51526" lon="6.61158">
        <ele>1570.45</ele>
        <time>2016-03-06T11:39:06Z</time>
      </trkpt>
      <trkpt lat="45.51524" lon="6.61154">
        <ele>1571.89</ele>
        <time>2016-03-06T11:39:18Z</time>
      </trkpt>
      <trkpt lat="45.51527" lon="6.61159">
        <ele>1567.57</ele>
        <time>2016-03-06T11:39:27Z</time>
      </trkpt>
      <trkpt lat="45.51527" lon="6.61159">
        <ele>1564.68</ele>
        <time>2016-03-06T11:39:29Z</time>
      </trkpt>
      <trkpt lat="45.51527" lon="6.6116">
        <ele>1570.93</ele>
        <time>2016-03-06T11:39:30Z</time>
      </trkpt>
      <trkpt lat="45.51523" lon="6.61161">
        <ele>1569.49</ele>
        <time>2016-03-06T11:39:40Z</time>
      </trkpt>
      <trkpt lat="45.51523" lon="6.61162">
        <ele>1571.41</ele>
        <time>2016-03-06T11:39:42Z</time>
      </trkpt>
      <trkpt lat="45.51522" lon="6.61164">
        <ele>1571.41</ele>
        <time>2016-03-06T11:39:54Z</time>
      </trkpt>
      <trkpt lat="45.51523" lon="6.61161">
        <ele>1571.41</ele>
        <time>2016-03-06T11:39:58Z</time>
      </trkpt>
      <trkpt lat="45.51523" lon="6.61159">
        <ele>1571.41</ele>
        <time>2016-03-06T11:39:59Z</time>
      </trkpt>
      <trkpt lat="45.51513" lon="6.61132">
        <ele>1569.97</ele>
        <time>2016-03-06T11:40:14Z</time>
      </trkpt>
      <trkpt lat="45.51494" lon="6.61112">
        <ele>1569.01</ele>
        <time>2016-03-06T11:40:27Z</time>
      </trkpt>
      <trkpt lat="45.51493" lon="6.61111">
        <ele>1569.01</ele>
        <time>2016-03-06T11:40:28Z</time>
      </trkpt>
      <trkpt lat="45.51492" lon="6.6111">
        <ele>1569.01</ele>
        <time>2016-03-06T11:40:29Z</time>
      </trkpt>
      <trkpt lat="45.5149" lon="6.61108">
        <ele>1569.01</ele>
        <time>2016-03-06T11:40:30Z</time>
      </trkpt>
      <trkpt lat="45.51489" lon="6.61107">
        <ele>1569.01</ele>
        <time>2016-03-06T11:40:31Z</time>
      </trkpt>
      <trkpt lat="45.51476" lon="6.61084">
        <ele>1567.09</ele>
        <time>2016-03-06T11:40:42Z</time>
      </trkpt>
      <trkpt lat="45.51466" lon="6.61058">
        <ele>1566.61</ele>
        <time>2016-03-06T11:40:54Z</time>
      </trkpt>
      <trkpt lat="45.51464" lon="6.61055">
        <ele>1566.61</ele>
        <time>2016-03-06T11:40:55Z</time>
      </trkpt>
      <trkpt lat="45.51463" lon="6.61053">
        <ele>1566.12</ele>
        <time>2016-03-06T11:40:56Z</time>
      </trkpt>
      <trkpt lat="45.51462" lon="6.6105">
        <ele>1566.12</ele>
        <time>2016-03-06T11:40:57Z</time>
      </trkpt>
      <trkpt lat="45.51461" lon="6.61048">
        <ele>1566.12</ele>
        <time>2016-03-06T11:40:58Z</time>
      </trkpt>
      <trkpt lat="45.5145" lon="6.61024">
        <ele>1564.2</ele>
        <time>2016-03-06T11:41:08Z</time>
      </trkpt>
      <trkpt lat="45.5145" lon="6.61022">
        <ele>1563.72</ele>
        <time>2016-03-06T11:41:09Z</time>
      </trkpt>
      <trkpt lat="45.5145" lon="6.6102">
        <ele>1563.72</ele>
        <time>2016-03-06T11:41:10Z</time>
      </trkpt>
      <trkpt lat="45.51449" lon="6.61009">
        <ele>1563.24</ele>
        <time>2016-03-06T11:41:21Z</time>
      </trkpt>
      <trkpt lat="45.51447" lon="6.61007">
        <ele>1563.72</ele>
        <time>2016-03-06T11:41:34Z</time>
      </trkpt>
      <trkpt lat="45.51445" lon="6.61009">
        <ele>1563.72</ele>
        <time>2016-03-06T11:41:53Z</time>
      </trkpt>
      <trkpt lat="45.51443" lon="6.61008">
        <ele>1563.72</ele>
        <time>2016-03-06T11:42:18Z</time>
      </trkpt>
      <trkpt lat="45.51443" lon="6.61011">
        <ele>1563.72</ele>
        <time>2016-03-06T11:42:39Z</time>
      </trkpt>
      <trkpt lat="45.51442" lon="6.61004">
        <ele>1564.2</ele>
        <time>2016-03-06T11:42:53Z</time>
      </trkpt>
      <trkpt lat="45.51442" lon="6.61002">
        <ele>1564.2</ele>
        <time>2016-03-06T11:42:54Z</time>
      </trkpt>
      <trkpt lat="45.51442" lon="6.61">
        <ele>1564.2</ele>
        <time>2016-03-06T11:42:55Z</time>
      </trkpt>
      <trkpt lat="45.51441" lon="6.60978">
        <ele>1564.2</ele>
        <time>2016-03-06T11:43:07Z</time>
      </trkpt>
      <trkpt lat="45.51439" lon="6.60962">
        <ele>1564.2</ele>
        <time>2016-03-06T11:43:19Z</time>
      </trkpt>
      <trkpt lat="45.51438" lon="6.60961">
        <ele>1564.2</ele>
        <time>2016-03-06T11:43:21Z</time>
      </trkpt>
      <trkpt lat="45.51432" lon="6.60954">
        <ele>1564.2</ele>
        <time>2016-03-06T11:43:29Z</time>
      </trkpt>
      <trkpt lat="45.5143" lon="6.60952">
        <ele>1563.72</ele>
        <time>2016-03-06T11:43:30Z</time>
      </trkpt>
      <trkpt lat="45.51421" lon="6.60947">
        <ele>1561.8</ele>
        <time>2016-03-06T11:43:34Z</time>
      </trkpt>
      <trkpt lat="45.51411" lon="6.60935">
        <ele>1557.95</ele>
        <time>2016-03-06T11:43:39Z</time>
      </trkpt>
      <trkpt lat="45.51411" lon="6.60931">
        <ele>1557.47</ele>
        <time>2016-03-06T11:43:40Z</time>
      </trkpt>
      <trkpt lat="45.51411" lon="6.60928">
        <ele>1556.03</ele>
        <time>2016-03-06T11:43:41Z</time>
      </trkpt>
      <trkpt lat="45.51415" lon="6.60926">
        <ele>1554.59</ele>
        <time>2016-03-06T11:43:46Z</time>
      </trkpt>
      <trkpt lat="45.51421" lon="6.6092">
        <ele>1553.63</ele>
        <time>2016-03-06T11:43:52Z</time>
      </trkpt>
      <trkpt lat="45.51419" lon="6.60908">
        <ele>1549.78</ele>
        <time>2016-03-06T11:43:55Z</time>
      </trkpt>
      <trkpt lat="45.51419" lon="6.60895">
        <ele>1546.42</ele>
        <time>2016-03-06T11:43:58Z</time>
      </trkpt>
      <trkpt lat="45.51415" lon="6.60891">
        <ele>1544.98</ele>
        <time>2016-03-06T11:44:00Z</time>
      </trkpt>
      <trkpt lat="45.51405" lon="6.60878">
        <ele>1542.57</ele>
        <time>2016-03-06T11:44:09Z</time>
      </trkpt>
      <trkpt lat="45.51405" lon="6.60877">
        <ele>1542.57</ele>
        <time>2016-03-06T11:44:10Z</time>
      </trkpt>
      <trkpt lat="45.51405" lon="6.60876">
        <ele>1542.09</ele>
        <time>2016-03-06T11:44:12Z</time>
      </trkpt>
      <trkpt lat="45.51409" lon="6.60872">
        <ele>1541.61</ele>
        <time>2016-03-06T11:44:15Z</time>
      </trkpt>
      <trkpt lat="45.51409" lon="6.60862">
        <ele>1541.13</ele>
        <time>2016-03-06T11:44:19Z</time>
      </trkpt>
      <trkpt lat="45.51412" lon="6.60847">
        <ele>1539.21</ele>
        <time>2016-03-06T11:44:26Z</time>
      </trkpt>
      <trkpt lat="45.51412" lon="6.60838">
        <ele>1536.32</ele>
        <time>2016-03-06T11:44:29Z</time>
      </trkpt>
      <trkpt lat="45.51409" lon="6.60828">
        <ele>1532.48</ele>
        <time>2016-03-06T11:44:31Z</time>
      </trkpt>
      <trkpt lat="45.51405" lon="6.60809">
        <ele>1528.15</ele>
        <time>2016-03-06T11:44:33Z</time>
      </trkpt>
      <trkpt lat="45.514" lon="6.60793">
        <ele>1524.31</ele>
        <time>2016-03-06T11:44:35Z</time>
      </trkpt>
      <trkpt lat="45.51396" lon="6.60786">
        <ele>1522.39</ele>
        <time>2016-03-06T11:44:36Z</time>
      </trkpt>
      <trkpt lat="45.51395" lon="6.6078">
        <ele>1521.42</ele>
        <time>2016-03-06T11:44:37Z</time>
      </trkpt>
      <trkpt lat="45.51391" lon="6.60755">
        <ele>1519.5</ele>
        <time>2016-03-06T11:44:41Z</time>
      </trkpt>
      <trkpt lat="45.51389" lon="6.60749">
        <ele>1518.54</ele>
        <time>2016-03-06T11:44:42Z</time>
      </trkpt>
      <trkpt lat="45.51379" lon="6.6073">
        <ele>1516.62</ele>
        <time>2016-03-06T11:44:46Z</time>
      </trkpt>
      <trkpt lat="45.51366" lon="6.60712">
        <ele>1513.25</ele>
        <time>2016-03-06T11:44:50Z</time>
      </trkpt>
      <trkpt lat="45.5136" lon="6.607">
        <ele>1512.77</ele>
        <time>2016-03-06T11:44:52Z</time>
      </trkpt>
      <trkpt lat="45.51349" lon="6.60662">
        <ele>1509.41</ele>
        <time>2016-03-06T11:45:02Z</time>
      </trkpt>
      <trkpt lat="45.51345" lon="6.60624">
        <ele>1505.56</ele>
        <time>2016-03-06T11:45:10Z</time>
      </trkpt>
      <trkpt lat="45.51343" lon="6.60618">
        <ele>1505.08</ele>
        <time>2016-03-06T11:45:11Z</time>
      </trkpt>
      <trkpt lat="45.51333" lon="6.60595">
        <ele>1502.2</ele>
        <time>2016-03-06T11:45:15Z</time>
      </trkpt>
      <trkpt lat="45.51332" lon="6.60582">
        <ele>1500.27</ele>
        <time>2016-03-06T11:45:17Z</time>
      </trkpt>
      <trkpt lat="45.51333" lon="6.60569">
        <ele>1498.35</ele>
        <time>2016-03-06T11:45:20Z</time>
      </trkpt>
      <trkpt lat="45.51333" lon="6.60551">
        <ele>1495.47</ele>
        <time>2016-03-06T11:45:23Z</time>
      </trkpt>
      <trkpt lat="45.5133" lon="6.60546">
        <ele>1494.03</ele>
        <time>2016-03-06T11:45:24Z</time>
      </trkpt>
      <trkpt lat="45.51327" lon="6.60542">
        <ele>1493.06</ele>
        <time>2016-03-06T11:45:25Z</time>
      </trkpt>
      <trkpt lat="45.51322" lon="6.60538">
        <ele>1493.06</ele>
        <time>2016-03-06T11:45:26Z</time>
      </trkpt>
      <trkpt lat="45.51318" lon="6.60536">
        <ele>1492.58</ele>
        <time>2016-03-06T11:45:27Z</time>
      </trkpt>
      <trkpt lat="45.51315" lon="6.60535">
        <ele>1491.62</ele>
        <time>2016-03-06T11:45:28Z</time>
      </trkpt>
      <trkpt lat="45.51284" lon="6.60521">
        <ele>1488.74</ele>
        <time>2016-03-06T11:45:37Z</time>
      </trkpt>
      <trkpt lat="45.51253" lon="6.6051">
        <ele>1485.37</ele>
        <time>2016-03-06T11:45:45Z</time>
      </trkpt>
      <trkpt lat="45.51239" lon="6.60505">
        <ele>1483.93</ele>
        <time>2016-03-06T11:45:48Z</time>
      </trkpt>
      <trkpt lat="45.51212" lon="6.60493">
        <ele>1480.57</ele>
        <time>2016-03-06T11:45:55Z</time>
      </trkpt>
      <trkpt lat="45.51183" lon="6.60478">
        <ele>1477.2</ele>
        <time>2016-03-06T11:46:04Z</time>
      </trkpt>
      <trkpt lat="45.51154" lon="6.60451">
        <ele>1473.84</ele>
        <time>2016-03-06T11:46:15Z</time>
      </trkpt>
      <trkpt lat="45.5113" lon="6.60419">
        <ele>1470.95</ele>
        <time>2016-03-06T11:46:29Z</time>
      </trkpt>
      <trkpt lat="45.51093" lon="6.60407">
        <ele>1467.11</ele>
        <time>2016-03-06T11:46:40Z</time>
      </trkpt>
      <trkpt lat="45.51072" lon="6.604">
        <ele>1465.19</ele>
        <time>2016-03-06T11:46:45Z</time>
      </trkpt>
      <trkpt lat="45.51058" lon="6.60391">
        <ele>1463.26</ele>
        <time>2016-03-06T11:46:49Z</time>
      </trkpt>
      <trkpt lat="45.51048" lon="6.60383">
        <ele>1461.82</ele>
        <time>2016-03-06T11:46:52Z</time>
      </trkpt>
      <trkpt lat="45.5102" lon="6.60361">
        <ele>1458.46</ele>
        <time>2016-03-06T11:47:00Z</time>
      </trkpt>
      <trkpt lat="45.50993" lon="6.60339">
        <ele>1455.09</ele>
        <time>2016-03-06T11:47:07Z</time>
      </trkpt>
      <trkpt lat="45.50973" lon="6.60328">
        <ele>1452.21</ele>
        <time>2016-03-06T11:47:13Z</time>
      </trkpt>
      <trkpt lat="45.50941" lon="6.60316">
        <ele>1448.84</ele>
        <time>2016-03-06T11:47:22Z</time>
      </trkpt>
      <trkpt lat="45.50915" lon="6.60293">
        <ele>1445.48</ele>
        <time>2016-03-06T11:47:31Z</time>
      </trkpt>
      <trkpt lat="45.50886" lon="6.60273">
        <ele>1443.08</ele>
        <time>2016-03-06T11:47:43Z</time>
      </trkpt>
      <trkpt lat="45.50861" lon="6.60241">
        <ele>1441.15</ele>
        <time>2016-03-06T11:47:55Z</time>
      </trkpt>
      <trkpt lat="45.50839" lon="6.602">
        <ele>1438.27</ele>
        <time>2016-03-06T11:48:05Z</time>
      </trkpt>
      <trkpt lat="45.50817" lon="6.60173">
        <ele>1434.91</ele>
        <time>2016-03-06T11:48:11Z</time>
      </trkpt>
      <trkpt lat="45.50798" lon="6.60142">
        <ele>1432.02</ele>
        <time>2016-03-06T11:48:18Z</time>
      </trkpt>
      <trkpt lat="45.50776" lon="6.60101">
        <ele>1428.66</ele>
        <time>2016-03-06T11:48:27Z</time>
      </trkpt>
      <trkpt lat="45.50765" lon="6.60067">
        <ele>1426.25</ele>
        <time>2016-03-06T11:48:33Z</time>
      </trkpt>
      <trkpt lat="45.50746" lon="6.60027">
        <ele>1422.89</ele>
        <time>2016-03-06T11:48:40Z</time>
      </trkpt>
      <trkpt lat="45.5073" lon="6.59983">
        <ele>1419.52</ele>
        <time>2016-03-06T11:48:47Z</time>
      </trkpt>
      <trkpt lat="45.50722" lon="6.59965">
        <ele>1417.12</ele>
        <time>2016-03-06T11:48:51Z</time>
      </trkpt>
      <trkpt lat="45.50721" lon="6.59963">
        <ele>1416.64</ele>
        <time>2016-03-06T11:48:52Z</time>
      </trkpt>
      <trkpt lat="45.50719" lon="6.59955">
        <ele>1415.68</ele>
        <time>2016-03-06T11:48:58Z</time>
      </trkpt>
      <trkpt lat="45.50719" lon="6.59951">
        <ele>1414.72</ele>
        <time>2016-03-06T11:48:59Z</time>
      </trkpt>
      <trkpt lat="45.50727" lon="6.59941">
        <ele>1410.87</ele>
        <time>2016-03-06T11:49:02Z</time>
      </trkpt>
      <trkpt lat="45.50727" lon="6.59928">
        <ele>1406.55</ele>
        <time>2016-03-06T11:49:06Z</time>
      </trkpt>
      <trkpt lat="45.50734" lon="6.59924">
        <ele>1404.14</ele>
        <time>2016-03-06T11:49:08Z</time>
      </trkpt>
      <trkpt lat="45.50743" lon="6.59919">
        <ele>1399.82</ele>
        <time>2016-03-06T11:49:10Z</time>
      </trkpt>
      <trkpt lat="45.50755" lon="6.59919">
        <ele>1394.05</ele>
        <time>2016-03-06T11:49:13Z</time>
      </trkpt>
      <trkpt lat="45.50765" lon="6.59913">
        <ele>1389.24</ele>
        <time>2016-03-06T11:49:15Z</time>
      </trkpt>
      <trkpt lat="45.50773" lon="6.59909">
        <ele>1384.92</ele>
        <time>2016-03-06T11:49:17Z</time>
      </trkpt>
      <trkpt lat="45.50782" lon="6.599">
        <ele>1381.07</ele>
        <time>2016-03-06T11:49:19Z</time>
      </trkpt>
      <trkpt lat="45.50786" lon="6.59898">
        <ele>1377.71</ele>
        <time>2016-03-06T11:49:20Z</time>
      </trkpt>
      <trkpt lat="45.50795" lon="6.59891">
        <ele>1372.9</ele>
        <time>2016-03-06T11:49:22Z</time>
      </trkpt>
      <trkpt lat="45.50807" lon="6.59892">
        <ele>1368.57</ele>
        <time>2016-03-06T11:49:24Z</time>
      </trkpt>
      <trkpt lat="45.50814" lon="6.59905">
        <ele>1365.69</ele>
        <time>2016-03-06T11:49:27Z</time>
      </trkpt>
      <trkpt lat="45.50826" lon="6.5991">
        <ele>1362.81</ele>
        <time>2016-03-06T11:49:31Z</time>
      </trkpt>
      <trkpt lat="45.50834" lon="6.59903">
        <ele>1360.4</ele>
        <time>2016-03-06T11:49:34Z</time>
      </trkpt>
      <trkpt lat="45.50854" lon="6.59905">
        <ele>1355.6</ele>
        <time>2016-03-06T11:49:39Z</time>
      </trkpt>
      <trkpt lat="45.50871" lon="6.59912">
        <ele>1352.23</ele>
        <time>2016-03-06T11:49:43Z</time>
      </trkpt>
      <trkpt lat="45.5089" lon="6.59924">
        <ele>1348.39</ele>
        <time>2016-03-06T11:49:47Z</time>
      </trkpt>
      <trkpt lat="45.50906" lon="6.59939">
        <ele>1344.54</ele>
        <time>2016-03-06T11:49:50Z</time>
      </trkpt>
      <trkpt lat="45.50918" lon="6.59951">
        <ele>1341.66</ele>
        <time>2016-03-06T11:49:52Z</time>
      </trkpt>
      <trkpt lat="45.50926" lon="6.59966">
        <ele>1339.25</ele>
        <time>2016-03-06T11:49:54Z</time>
      </trkpt>
      <trkpt lat="45.50929" lon="6.59974">
        <ele>1338.29</ele>
        <time>2016-03-06T11:49:55Z</time>
      </trkpt>
      <trkpt lat="45.50932" lon="6.59982">
        <ele>1338.29</ele>
        <time>2016-03-06T11:49:56Z</time>
      </trkpt>
      <trkpt lat="45.50934" lon="6.59989">
        <ele>1337.81</ele>
        <time>2016-03-06T11:49:57Z</time>
      </trkpt>
      <trkpt lat="45.50937" lon="6.59996">
        <ele>1336.85</ele>
        <time>2016-03-06T11:49:58Z</time>
      </trkpt>
      <trkpt lat="45.50941" lon="6.60001">
        <ele>1335.89</ele>
        <time>2016-03-06T11:49:59Z</time>
      </trkpt>
      <trkpt lat="45.50945" lon="6.60006">
        <ele>1335.89</ele>
        <time>2016-03-06T11:50:00Z</time>
      </trkpt>
      <trkpt lat="45.50948" lon="6.6001">
        <ele>1336.37</ele>
        <time>2016-03-06T11:50:01Z</time>
      </trkpt>
      <trkpt lat="45.50951" lon="6.60015">
        <ele>1335.41</ele>
        <time>2016-03-06T11:50:02Z</time>
      </trkpt>
      <trkpt lat="45.50955" lon="6.60019">
        <ele>1335.41</ele>
        <time>2016-03-06T11:50:03Z</time>
      </trkpt>
      <trkpt lat="45.5096" lon="6.60023">
        <ele>1334.93</ele>
        <time>2016-03-06T11:50:04Z</time>
      </trkpt>
      <trkpt lat="45.50969" lon="6.60031">
        <ele>1334.45</ele>
        <time>2016-03-06T11:50:06Z</time>
      </trkpt>
      <trkpt lat="45.51005" lon="6.60051">
        <ele>1331.08</ele>
        <time>2016-03-06T11:50:13Z</time>
      </trkpt>
      <trkpt lat="45.51044" lon="6.60075">
        <ele>1327.72</ele>
        <time>2016-03-06T11:50:20Z</time>
      </trkpt>
      <trkpt lat="45.51073" lon="6.60091">
        <ele>1324.35</ele>
        <time>2016-03-06T11:50:25Z</time>
      </trkpt>
      <trkpt lat="45.51116" lon="6.60102">
        <ele>1320.99</ele>
        <time>2016-03-06T11:50:31Z</time>
      </trkpt>
      <trkpt lat="45.51146" lon="6.60102">
        <ele>1318.1</ele>
        <time>2016-03-06T11:50:35Z</time>
      </trkpt>
      <trkpt lat="45.51151" lon="6.60099">
        <ele>1317.14</ele>
        <time>2016-03-06T11:50:36Z</time>
      </trkpt>
      <trkpt lat="45.5116" lon="6.60095">
        <ele>1315.22</ele>
        <time>2016-03-06T11:50:38Z</time>
      </trkpt>
      <trkpt lat="45.5118" lon="6.60072">
        <ele>1312.34</ele>
        <time>2016-03-06T11:50:47Z</time>
      </trkpt>
      <trkpt lat="45.51196" lon="6.60046">
        <ele>1310.9</ele>
        <time>2016-03-06T11:50:58Z</time>
      </trkpt>
      <trkpt lat="45.51233" lon="6.60027">
        <ele>1307.53</ele>
        <time>2016-03-06T11:51:10Z</time>
      </trkpt>
      <trkpt lat="45.51264" lon="6.6">
        <ele>1305.13</ele>
        <time>2016-03-06T11:51:21Z</time>
      </trkpt>
      <trkpt lat="45.51282" lon="6.59965">
        <ele>1303.2</ele>
        <time>2016-03-06T11:51:30Z</time>
      </trkpt>
      <trkpt lat="45.51291" lon="6.59933">
        <ele>1301.76</ele>
        <time>2016-03-06T11:51:35Z</time>
      </trkpt>
      <trkpt lat="45.51299" lon="6.59899">
        <ele>1300.32</ele>
        <time>2016-03-06T11:51:45Z</time>
      </trkpt>
      <trkpt lat="45.51295" lon="6.59889">
        <ele>1298.88</ele>
        <time>2016-03-06T11:51:53Z</time>
      </trkpt>
      <trkpt lat="45.51293" lon="6.59883">
        <ele>1298.88</ele>
        <time>2016-03-06T11:52:03Z</time>
      </trkpt>
      <trkpt lat="45.51294" lon="6.59882">
        <ele>1298.88</ele>
        <time>2016-03-06T11:52:04Z</time>
      </trkpt>
      <trkpt lat="45.51294" lon="6.5988">
        <ele>1298.88</ele>
        <time>2016-03-06T11:52:05Z</time>
      </trkpt>
      <trkpt lat="45.51297" lon="6.5987">
        <ele>1298.4</ele>
        <time>2016-03-06T11:52:17Z</time>
      </trkpt>
      <trkpt lat="45.51299" lon="6.59868">
        <ele>1298.4</ele>
        <time>2016-03-06T11:52:20Z</time>
      </trkpt>
      <trkpt lat="45.513" lon="6.59867">
        <ele>1298.4</ele>
        <time>2016-03-06T11:52:21Z</time>
      </trkpt>
      <trkpt lat="45.51301" lon="6.59866">
        <ele>1298.4</ele>
        <time>2016-03-06T11:52:22Z</time>
      </trkpt>
      <trkpt lat="45.51302" lon="6.59865">
        <ele>1297.92</ele>
        <time>2016-03-06T11:52:23Z</time>
      </trkpt>
      <trkpt lat="45.51304" lon="6.59865">
        <ele>1297.92</ele>
        <time>2016-03-06T11:52:24Z</time>
      </trkpt>
      <trkpt lat="45.51306" lon="6.59864">
        <ele>1297.44</ele>
        <time>2016-03-06T11:52:25Z</time>
      </trkpt>
      <trkpt lat="45.51331" lon="6.59848">
        <ele>1295.51</ele>
        <time>2016-03-06T11:52:37Z</time>
      </trkpt>
      <trkpt lat="45.51338" lon="6.59831">
        <ele>1294.55</ele>
        <time>2016-03-06T11:52:48Z</time>
      </trkpt>
      <trkpt lat="45.51339" lon="6.59832">
        <ele>1294.55</ele>
        <time>2016-03-06T11:53:01Z</time>
      </trkpt>
      <trkpt lat="45.5134" lon="6.59833">
        <ele>1294.55</ele>
        <time>2016-03-06T11:53:14Z</time>
      </trkpt>
      <trkpt lat="45.5134" lon="6.59833">
        <ele>1294.07</ele>
        <time>2016-03-06T11:53:27Z</time>
      </trkpt>
      <trkpt lat="45.51339" lon="6.59831">
        <ele>1293.59</ele>
        <time>2016-03-06T11:53:53Z</time>
      </trkpt>
      <trkpt lat="45.51339" lon="6.59834">
        <ele>1296.48</ele>
        <time>2016-03-06T11:54:21Z</time>
      </trkpt>
      <trkpt lat="45.51338" lon="6.59833">
        <ele>1294.55</ele>
        <time>2016-03-06T11:54:23Z</time>
      </trkpt>
      <trkpt lat="45.51337" lon="6.59833">
        <ele>1295.03</ele>
        <time>2016-03-06T11:54:33Z</time>
      </trkpt>
      <trkpt lat="45.51336" lon="6.59839">
        <ele>1294.55</ele>
        <time>2016-03-06T11:54:56Z</time>
      </trkpt>
      <trkpt lat="45.51339" lon="6.59839">
        <ele>1295.99</ele>
        <time>2016-03-06T11:55:18Z</time>
      </trkpt>
      <trkpt lat="45.5134" lon="6.59839">
        <ele>1294.07</ele>
        <time>2016-03-06T11:55:21Z</time>
      </trkpt>
    </trkseg>
  </trk>
</gpx>